     2              OBSERVATION DATA    GPS                 RINEX VERSION / TYPE
teqc 2000Feb29 20010929 17:44:23UTC                         PGM / RUN BY / DATE
                                                            COMMENT
L2: 1 -> 1; 150 -> 5; 250 -> 9                              COMMENT
L2: 1 -> 1; 150 -> 5; 250 -> 9                              COMMENT
L2: 1 -> 1; 150 -> 5; 250 -> 9                              COMMENT
L2: 1 -> 1; 150 -> 5; 250 -> 9                              COMMENT
L2: 1 -> 1; 150 -> 5; 250 -> 9                              COMMENT
Original Marker Name: PK03                                  COMMENT
Campaign Name: postHector                                   COMMENT
4-Character Station Name: PK03                              COMMENT
6-Character Antenna Code: DMRCHT                            COMMENT
Vertical Measurement Point: BCR                             COMMENT
Vertical Offset to Rinex Ref. Point: 0.0348                 COMMENT
Radial Measurement Point: ECF                               COMMENT
Radial Offset to Rinex Ref. Point: 0.1897                   COMMENT
Antenna Height from Field Measurement: 0.7360 m             COMMENT
Additional Antenna Identification Info.:                    COMMENT
Turborogue and Ashtech Choke Ring                           COMMENT
Original XYZ: 0.0000 0.0000 0.0000                          COMMENT
New XYZ position is based on association with SCEC monument COMMENT
E1F2U7V7+0011. Position of that monument is believed to be  COMMENT
valid to within 1 m horizontally; vertical accuracy         COMMENT
should be no worse than 3-times this value.                 COMMENT
                                                            COMMENT
Revised Rinex header created by UCSD GPS archive for        COMMENT
GSAC on 03-Oct-2001 (2001:276) 16:09:29 GMT                 COMMENT
For assistance contact dagnew@ucsd.edu                      COMMENT
or anderson@python.ucsd.edu                                 COMMENT
                                                            COMMENT
PK03 99                                                     MARKER NAME
PFO SCRIPPS INSTITUTION OF OCEANOGRAPHY                     OBSERVER / AGENCY
LP03312 ASHTECH Z-XII3 CC00                                 REC # / TYPE / VERS
CR16404 DORNE-MARGOL. TYPE T                                ANT # / TYPE
 -2295878.6827 -4698395.5660  3640018.3628                  APPROX POSITION XYZ
        0.6763        0.0000        0.0000                  ANTENNA: DELTA H/E/N
     1     1     0                                          WAVELENGTH FACT L1/2
     7    C1    L1    L2    P1    P2    S1    S2            # / TYPES OF OBSERV
     0                                                      INTERVAL
  2001     9    24    20    14    0.000000                  TIME OF FIRST OBS
  2001     9    24    23    59   30.000000                  TIME OF LAST OBS
                                                            END OF HEADER
 01  9 24 20 14  0.0000000  0  5G 1G25G22G20G11
  21726364.490     -316943.65449   -229799.38046  21726364.241    21726374.008
       232.000         186.000
                      3625.35749      2487.31745                  22798607.448
       216.000         132.000
  21180793.932     -307274.00449   -217344.79046  21180793.652    21180804.368
       232.000         187.000
                   -216466.32749   -154495.82843
       233.000          74.000
                     25977.67549     18649.48843
       208.000          74.000
 01  9 24 20 14 29.9990000  0  5G 1G25G22G20G11
  21403853.790     -436323.40749   -322822.50747  21403854.950    21403864.355
       233.000         188.000
  22499418.087        6838.99149      4991.34745  22499418.307    22499428.713
       216.000         154.000
  20857912.797     -428607.64449   -311890.38147  20857912.648    20857922.715
       231.000         188.000
                   -301813.45849    -13959.19845                  20126967.966
       233.000         154.000
                     36737.97149     27033.83344                  23818050.353
       199.000         128.000
 01  9 24 20 15  0.0000000  0  6G 1G25G22G20G29G11
  21526016.940    -1369774.90349  -1050187.21946  21526017.528    21526026.282
       228.000         186.000
  22644909.537     -804017.40449   -626844.94045  22644910.764    22644920.317
       203.000         153.000
  20979789.762    -1363559.57049  -1040424.26647  20979789.164    20979799.977
       232.000         189.000
  20255681.864    -1200798.77149   -714467.22847  20255681.254    20255688.234
       230.000         197.000
  23650715.470     -843002.20349   -655004.61944  23650714.401    23650733.250
       199.000         130.000
  23964944.607     -766657.49349   -598988.96545  23964946.033    23964962.003
       203.000         132.000
 01  9 24 20 15 30.0000000  0  6G 1G25G22G20G29G11
  21517603.474    -1413988.71349  -1084639.52146  21517603.553    21517612.676
       234.000         187.000
  22659824.081     -725640.64649   -565772.28445  22659824.750    22659835.369
       216.000         151.000
  20971177.215    -1408818.58649  -1075690.93347  20971176.786    20971187.233
       233.000         189.000
  20253909.132    -1210113.39449   -721725.37547  20253908.311    20253916.250
       232.000         202.000
  23663136.009     -777718.96149   -604134.84345  23663139.449    23663156.958
       202.000         137.000
  23981263.375     -680907.21749   -532170.93045  23981265.685    23981281.757
       208.000         140.000
 01  9 24 20 16  0.0000000  0  6G 1G25G22G20G29G11
  21509213.125    -1458080.62149  -1118996.79446  21509213.232    21509223.312
       234.000         187.000
  22674761.437     -647146.35549   -504608.04745  22674761.819    22674772.799
       216.000         152.000
  20962674.770    -1453498.73249  -1110506.56647  20962674.313    20962684.547
       231.000         190.000
  20252242.340    -1218871.83449   -728550.12247  20252241.975    20252249.599
       234.000         202.000
  23675582.039     -712323.68049   -553177.70945  23675585.064    23675596.769
       209.000         138.000
  23997586.946     -595127.85849   -465330.24845  23997586.686    23997603.439
       203.000         136.000
 01  9 24 20 16 30.0000000  0  6G 1G25G22G20G29G11
  21500846.213    -1502049.10249  -1153257.87347  21500846.684    21500855.468
       235.000         188.000
  22689720.793     -568535.07449   -443352.62345  22689721.493    22689731.755
       216.000         155.000
  20954283.131    -1497596.99249  -1144868.74947  20954282.462    20954292.980
       233.000         189.000
  20250681.884    -1227072.07749   -734939.92547  20250681.795    20250688.888
       234.000         202.000
  23688048.469     -646814.88549   -502132.09545  23688048.695    23688068.668
       202.000         139.000
  24013915.659     -509321.16349   -398468.19145  24013917.641    24013933.065
       209.000         137.000
 01  9 24 20 17  0.0000000  0  6G 1G25G22G20G29G11
  21492502.410    -1545896.49449  -1187424.61246  21492502.140    21492511.727
       232.000         187.000
  22704701.464     -489811.21949   -382009.49645  22704701.912    22704712.961
       221.000         162.000
  20946002.189    -1541113.84549  -1178777.91247  20946001.535    20946011.729
       232.000         190.000
  20249227.335    -1234715.74549   -740896.02547  20249226.932    20249234.385
       234.000         202.000
  23700535.786     -581195.10749   -450999.98245  23700535.291    23700551.803
       201.000         136.000
  24030248.694     -423492.36549   -331588.88945  24030248.925    24030269.455
       200.000         139.000
 01  9 24 20 17 30.0000000  0  6G 1G25G22G20G29G11
  21484181.261    -1589624.69449  -1221498.47146  21484181.221    21484190.420
       231.000         187.000
  22719702.838     -410978.91749   -320581.85946  22719703.826    22719714.281
       221.000         165.000
  20937831.703    -1584049.77549  -1212234.39947  20937831.021    20937841.202
       232.000         190.000
  20247878.473    -1241804.13049   -746419.44247  20247878.136    20247885.770
       234.000         203.000
  23713043.978     -515466.57349   -399783.14045  23713044.761    23713059.962
       202.000         136.000
  24046584.349     -337646.70649   -264696.67845  24046586.535    24046602.557
       208.000         135.000
 01  9 24 20 18  0.0000000  0  6G 1G25G22G20G29G11
  21475882.722    -1633233.47249  -1255479.29246  21475882.156    21475892.002
       231.000         187.000
  22734724.642     -332039.75449   -259070.95346  22734725.287    22734735.022
       220.000         166.000
  20929772.154    -1626402.87449  -1245236.73947  20929771.790    20929782.016
       233.000         190.000
  20246635.409    -1248336.45349   -751509.57147  20246635.196    20246642.610
       234.000         202.000
  23725572.593     -449629.38149   -348481.62845  23725573.447    23725590.656
       201.000         139.000
  24062923.626     -251787.29849   -197793.54945  24062923.904    24062938.790
       209.000         134.000
 01  9 24 20 18 30.0000000  0  6G 1G25G22G20G29G11
  21467607.227    -1676721.41549  -1289365.93646  21467607.045    21467616.779
       232.000         187.000
  22749766.562     -252994.34749   -197477.25046  22749767.104    22749777.743
       219.000         166.000
  20921824.069    -1668170.18649  -1277782.61247  20921823.543    20921833.527
       233.000         190.000
  20245498.549    -1254311.03149   -756165.08447  20245497.873    20245505.668
       234.000         203.000
  23738121.981     -383682.03349   -297094.36245  23738122.460    23738140.126
       204.000         138.000
  24079264.642     -165916.07149   -130881.16745  24079264.422    24079283.898
       203.000         132.000
 01  9 24 20 19  0.0000000  0  7G 1G25G22G20G29G13G11
  21459355.053    -1720086.73049  -1323157.03946  21459355.048    21459364.580
       232.000         187.000
  22764828.551     -173843.32349   -135801.25246  22764829.427    22764839.233
       219.000         165.000
  20913988.065    -1709348.63549  -1309869.64047  20913987.418    20913997.879
       232.000         190.000
  20244468.158    -1259725.86449   -760384.43447  20244467.757    20244475.459
       234.000         203.000
  23750692.949     -317623.33849   -245620.24245  23750693.747    23750710.426
       202.000         140.000
                   -558297.32849   -412798.26543
       205.000          74.000
  24095607.247      -80034.68549    -63961.01445  24095606.439    24095629.290
       205.000         135.000
 01  9 24 20 19 30.0000000  0  6G 1G25G22G20G29G11
  21451126.287    -1763329.71049  -1356852.80046  21451126.314    21451135.337
       232.000         187.000
  22779910.222      -94589.03349    -74044.78846  22779910.666    22779921.303
       218.000         165.000
  20906264.383    -1749936.87049  -1341496.76147  20906263.565    20906274.216
       232.000         191.000
  20243544.356    -1264580.48849   -764167.26247  20243544.276    20243551.664
       234.000         203.000
  23763284.792     -251453.64349   -194059.63045  23763284.970    23763302.139
       202.000         137.000
  24111951.599        5853.40849      2964.37045  24111952.832    24111969.629
       206.000         137.000
 01  9 24 20 20  0.0000000  0  7G 1G25G22G20G29G13G11
  21442920.513    -1806451.16949  -1390453.88447  21442920.185    21442929.362
       231.000         188.000
  22795011.024      -15234.18949    -12209.97046  22795011.032    22795022.392
       218.000         165.000
  20898653.099    -1789934.17149  -1372663.40947  20898652.584    20898662.479
       234.000         191.000
  20242727.113    -1268875.32749   -767513.90147  20242726.802    20242734.097
       234.000         203.000
  23775897.429     -185174.02249   -142413.36445  23775898.018    23775916.507
       202.000         137.000
                   -709205.01249   -173235.70643
       205.000          74.000
  24128296.397       91744.44849     69892.16644  24128295.629    24128311.884
       202.000         129.000
 01  9 24 20 20 30.0000000  0  7G 1G25G22G20G29G13G11
  21434738.037    -1849450.48649  -1423959.79347  21434737.290    21434746.766
       231.000         188.000
  22810130.703       64219.69449     49702.02346  22810131.425    22810142.758
       218.000         164.000
  20891154.772    -1829338.33249  -1403367.88447  20891154.385    20891164.457
       233.000         191.000
  20242016.608    -1272609.09949   -770423.34347  20242016.354    20242023.733
       234.000         203.000
  23788531.321     -118783.71349    -90680.86845  23788531.632    23788548.165
       202.000         138.000
                   -784639.74749   -232015.79244                  23975760.006
       207.000         120.000
  24144641.354      177635.70049    136820.09545  24144643.851    24144662.370
       206.000         134.000
 01  9 24 20 21  0.0000000  0  7G 1G25G22G20G29G13G11
  21426578.556    -1892328.38349  -1457371.08547  21426578.229    21426587.303
       232.000         188.000
  22825268.722      143769.69049    111688.89646  22825269.355    22825280.055
       218.000         164.000
  20883769.253    -1868149.09549  -1433609.95647  20883768.728    20883778.645
       233.000         191.000
  20241412.694    -1275782.66149   -772896.25247  20241412.512    20241419.876
       234.000         203.000
  23801186.205      -52284.10849    -38863.19845  23801188.300    23801205.065
       204.000         143.000
  23961398.219     -860062.68249   -290786.68245  23961399.458    23961411.749
       204.000         132.000
  24160985.725      263523.04649    203744.90345  24160986.317    24161005.706
       205.000         135.000
 01  9 24 20 21 30.0000000  0  7G 1G25G22G20G29G13G11
  21418442.819    -1935081.54849  -1490685.17847  21418443.090    21418451.196
       231.000         188.000
  22840425.243      223417.18649    173751.75646  22840425.962    22840436.174
       218.000         164.000
  20876497.552    -1906361.57449  -1463385.82947  20876496.392    20876507.265
       233.000         191.000
  20240916.155    -1278392.19449   -774929.66347  20240915.846    20240923.264
       233.000         203.000
  23813862.157       14327.87649     13042.07845  23813862.236    23813877.898
       202.000         137.000
  23947048.637     -935471.03349   -349546.28245  23947049.742    23947062.372
       208.000         136.000
  24177328.861      349406.83049    270666.93445  24177329.893    24177347.497
       205.000         133.000
 01  9 24 20 22  0.0000000  0  7G 1G25G22G20G29G13G11
  21410331.130    -1977709.19649  -1523901.47447  21410331.396    21410339.989
       233.000         188.000
  22855599.984      303160.54649    235889.29746  22855600.407    22855610.924
       218.000         163.000
  20869340.216    -1943973.69049  -1492693.90947  20869339.567    20869349.771
       233.000         191.000
  20240527.157    -1280436.66849   -776522.76347  20240526.895    20240534.686
       234.000         203.000
  23826559.619       81052.89449     65035.42745  23826560.096    23826579.097
       197.000         136.000
  23932701.969    -1010864.10349   -408293.97145  23932702.335    23932714.756
       207.000         135.000
  24193671.159      435284.42849    337584.16844  24193670.261    24193689.352
       203.000         131.000
 01  9 24 20 22 30.0000000  0  7G 1G25G22G20G29G13G11
  21402243.171    -2020211.85349  -1557020.37247  21402243.355    21402251.855
       234.000         189.000
  22870792.570      382997.53349    298099.79746  22870793.469    22870804.297
       219.000         163.000
  20862297.182    -1980984.76649  -1521533.63747  20862296.333    20862306.374
       233.000         191.000
  20240245.606    -1281916.17249   -777675.63647  20240245.660    20240252.959
       234.000         203.000
  23839278.594      147889.99149    117116.03845  23839279.150    23839296.012
       203.000         138.000
  23918357.835    -1086242.75749   -467030.43945  23918357.476    23918368.874
       206.000         135.000
  24210011.527      521151.97249    404493.62944  24210013.596    24210028.485
       202.000         129.000
 01  9 24 20 23  0.0000000  0  7G 1G25G22G20G29G13G11
  21394179.084    -2062589.01149  -1590041.47647  21394178.878    21394187.443
       232.000         189.000
  22886002.717      462926.38849    360381.87046  22886003.440    22886013.852
       219.000         163.000
  20855368.945    -2017392.75449  -1549903.42447  20855368.339    20855378.249
       233.000         191.000
  20240071.727    -1282830.14949   -778387.83347  20240071.330    20240079.208
       234.000         202.000
  23852018.846      214839.47549    169284.24545  23852019.101    23852036.986
       204.000         138.000
  23904016.803    -1161606.59249   -525755.35945  23904016.724    23904029.563
       206.000         138.000
  24226349.638      607006.95349    471393.20345  24226350.337    24226370.267
       204.000         134.000
 01  9 24 20 23 30.0000000  0  7G 1G25G22G20G29G13G11
  21386138.891    -2104840.16749  -1622964.39947  21386139.014    21386147.480
       233.000         189.000
  22901229.991      542945.59949    422734.36946  22901229.689    22901242.883
       218.000         163.000
  20848555.769    -2053196.12549  -1577802.06747  20848554.866    20848564.762
       233.000         191.000
  20240005.635    -1283177.79249   -778658.72547  20240005.616    20240012.692
       235.000         203.000
  23864780.610      281901.55949    221540.24745  23864781.206    23864799.290
       197.000         136.000
  23889678.344    -1236955.47149   -584468.62745  23889678.610    23889689.544
       206.000         136.000
  24242684.656      692846.59049    538280.76245  24242685.578    24242702.266
       206.000         132.000
 01  9 24 20 24  0.0000000  0  7G 1G25G22G20G29G13G11
  21378123.017    -2146964.40449  -1655788.42547  21378122.864    21378131.837
       233.000         189.000
  22916474.197      623054.09149    485156.41246  22916474.015    22916486.128
       218.000         163.000
  20841858.077    -2088392.75749  -1605227.94147  20841857.682    20841867.534
       234.000         191.000
  20240047.460    -1282958.12049   -778487.55747  20240047.347    20240054.551
       234.000         203.000
  23877563.731      349076.82049    273884.36745  23877564.626    23877580.839
       201.000         136.000
  23875342.840    -1312288.68449   -643169.68645  23875343.134    23875355.224
       209.000         138.000
  24259016.674      778668.26049    605154.56244  24259018.571    24259033.166
       209.000         130.000
 01  9 24 20 24 30.0000000  0  7G 1G25G22G20G29G13G11
  21370131.074    -2188962.11249  -1688513.86147  21370131.116    21370139.273
       233.000         190.000
  22931735.140      703249.74649    547646.37546  22931736.059    22931746.887
       219.000         163.000
  20835275.976    -2122981.88549  -1632180.42047  20835275.349    20835285.143
       233.000         191.000
  20240197.264    -1282171.19149   -777874.37247  20240197.033    20240204.199
       234.000         203.000
  23890368.397      416364.56749    326316.17445  23890369.571    23890386.556
       203.000         137.000
  23861010.046    -1387606.93949   -701859.08645  23861010.296    23861021.154
       210.000         139.000
  24275343.803      864468.50749    672011.55144  24275341.251    24275368.206
       195.000         129.000
 01  9 24 20 25  0.0000000  0  7G 1G25G22G20G29G13G11
  21362163.715    -2230831.05349  -1721138.95947  21362163.202    21362172.453
       233.000         190.000
  22947012.583      783532.27149    610204.04146  22947012.194    22947024.097
       217.000         163.000
  20828810.054    -2156960.18749  -1658656.93647  20828809.215    20828819.102
       232.000         191.000
  20240455.389    -1280814.93049   -776817.54947  20240455.035    20240462.454
       234.000         203.000
  23903194.698      483766.73749    378837.13545  23903195.082    23903213.670
       201.000         136.000
  23846680.711    -1462908.85749   -760535.78245  23846680.906    23846691.836
       210.000         139.000
  24291666.849      950246.18349    738850.70845  24291669.477    24291687.328
       214.000         136.000
 01  9 24 20 25 30.0000000  0  7G 1G25G22G20G29G13G11
  21354220.468    -2272572.66249  -1753664.83647  21354219.991    21354229.303
       233.000         190.000
  22962305.732      863898.10049    672826.60945  22962306.136    22962316.388
       218.000         162.000
  20822460.335    -2190327.85749  -1684657.62647  20822459.731    20822469.303
       233.000         192.000
  20240821.605    -1278890.49049   -775317.99347  20240821.411    20240828.711
       234.000         203.000
  23916042.431      551281.61549    431445.87945  23916042.628    23916060.627
       203.000         137.000
  23832354.265    -1538195.17649   -819200.32245  23832353.855    23832366.037
       207.000         139.000
  24307985.509     1035996.33849    805668.80444  24307991.018    24307996.356
       205.000         130.000
 01  9 24 20 26  0.0000000  0  7G 1G25G22G20G29G13G11
  21346301.794    -2314185.51749  -1786090.38747  21346301.783    21346310.309
       233.000         190.000
  22977614.733      944346.57649    735513.57745  22977615.218    22977626.805
       218.000         162.000
  20816227.316    -2223082.51549  -1710180.65247  20816226.626    20816236.727
       234.000         192.000
  20241296.298    -1276396.29849   -773374.46847  20241295.862    20241303.766
       234.000         203.000
  23928912.060      618910.21349    484143.29245  23928914.277    23928930.313
       200.000         135.000
  23818030.587    -1613465.21449   -877852.18545  23818029.771    23818041.123
       205.000         138.000
  24324297.453     1121717.83448    872464.50644  24324293.702    24324322.122
       192.000         122.000
 01  9 24 20 26 30.0000000  0  7G 1G25G22G20G29G13G11
  21338407.781    -2355668.80549  -1818414.97647  21338407.348    21338416.371
       233.000         190.000
  22992939.195     1024876.69549    798264.16245  22992939.829    22992950.626
       218.000         162.000
  20810111.306    -2255222.38449  -1735224.62847  20810110.710    20810120.402
       234.000         192.000
  20241879.497    -1273331.78249   -770986.54047  20241879.319    20241886.259
       233.000         203.000
  23941803.208      686652.91549    536929.59445  23941802.595    23941820.786
       200.000         132.000
  23803710.160    -1688718.46449   -936490.95345  23803710.094    23803722.350
       209.000         139.000
  24340604.023     1207408.10949    939235.59845  24340607.478    24340625.694
       210.000         140.000
 01  9 24 20 27  0.0000000  0  7G 1G25G22G20G29G13G11
  21330538.269    -2397023.01649  -1850638.99047  21330537.796    21330546.911
       233.000         190.000
  23008278.695     1105485.49749    861076.05645  23008279.609    23008290.288
       218.000         162.000
  20804112.358    -2286746.81449  -1759789.03947  20804111.743    20804121.482
       234.000         192.000
  20242571.134    -1269697.26349   -768154.45647  20242571.000    20242578.483
       232.000         203.000
  23954715.841      754508.84549    589804.11545  23954716.875    23954732.330
       204.000         134.000
  23789393.090    -1763955.83149   -995117.31245  23789392.696    23789403.689
       206.000         138.000
  24356904.343     1293063.16049   1005979.41045  24356906.624    24356921.554
       198.000         134.000
 01  9 24 20 27 30.0000000  0  7G 1G25G22G20G29G13G11
  21322693.586    -2438247.05649  -1882761.56647  21322693.606    21322702.025
       233.000         190.000
  23023632.992     1186172.41149    923948.82545  23023633.390    23023644.800
       218.000         162.000
  20798230.929    -2317653.83349  -1783872.35047  20798230.235    20798239.771
       234.000         192.000
  20243371.502    -1265491.71149   -764877.41247  20243371.146    20243378.561
       232.000         203.000
  23967650.432      822478.90949    642767.60945  23967651.870    23967668.811
       203.000         137.000
  23775079.061    -1839176.06949  -1053730.34645  23775079.915    23775091.467
       209.000         139.000
  24373196.781     1378680.86449   1072694.16444  24373198.546    24373208.770
       203.000         120.000
 01  9 24 20 28  0.0000000  0  7G 1G25G22G20G29G13G11
  21314874.221    -2479338.12349  -1914780.54047  21314874.210    21314882.452
       235.000         190.000
  23039002.298     1266938.23249    986883.06945  23039002.251    23039014.137
       218.000         161.000
  20792467.686    -2347939.68049  -1807471.63747  20792466.815    20792476.314
       234.000         192.000
  20244280.956    -1260712.34449   -761153.24547  20244280.656    20244287.966
       233.000         203.000
  23980607.044      890565.60449    695821.90445  23980607.581    23980627.146
       203.000         137.000
  23760768.812    -1914376.98849  -1112328.32045  23760768.932    23760779.458
       208.000         138.000
  24389482.433     1464260.77049   1139379.49844  24389483.002    24389505.575
       203.000         131.000
 01  9 24 20 28 30.0000000  0  7G 1G25G22G20G29G13G11
  21307079.368    -2520300.36049  -1946699.12547  21307079.186    21307087.855
       233.000         190.000
  23054385.325     1347776.59949   1049873.84045  23054385.981    23054397.799
       217.000         161.000
  20786821.984    -2377607.71549  -1830589.51947  20786821.273    20786831.105
       233.000         192.000
  20245298.833    -1255363.61549   -756985.42047  20245298.751    20245305.913
       232.000         202.000
  23993584.942      958764.01249    748963.29845  23993583.228    23993601.154
       198.000         132.000
  23746461.449    -1989563.11349  -1170914.78545  23746461.277    23746471.630
       210.000         139.000
  24405759.487     1549795.46549   1206029.42344  24405759.454    24405780.907
       200.000         131.000
 01  9 24 20 29  0.0000000  0  7G 1G25G22G20G29G13G11
  21299309.590    -2561130.68949  -1978514.90647  21299309.105    21299317.819
       234.000         191.000
  23069782.555     1428688.67549   1112922.06745  23069783.411    23069794.843
       219.000         160.000
  20781294.640    -2406653.91049  -1853222.82447  20781293.610    20781303.861
       234.000         193.000
  20246425.614    -1249442.35549   -752371.44847  20246425.162    20246432.440
       233.000         203.000
  24006584.550     1027077.04049    802194.01745  24006586.666    24006603.421
       205.000         132.000
  23732157.329    -2064731.57849  -1229487.45145  23732156.200    23732168.907
       208.000         141.000
  24422027.898     1635284.73949   1272644.00144  24422031.559    24422047.685
       208.000         128.000
 01  9 24 20 29 30.0000000  0  7G 1G25G22G20G29G13G11
  21291565.165    -2601827.79549  -2010226.90047  21291564.597    21291573.607
       235.000         191.000
  23085193.511     1509673.52649   1176026.97845  23085194.512    23085205.513
       218.000         161.000
  20775885.994    -2435076.22049  -1875370.00747  20775884.604    20775894.444
       233.000         193.000
  20247661.507    -1242947.56049   -747310.58447  20247660.996    20247668.586
       233.000         203.000
  24019606.442     1095505.52549    855514.71945  24019606.952    24019624.387
       204.000         134.000
  23717856.519    -2139881.14249  -1288045.43345  23717856.370    23717867.576
       210.000         141.000
  24438287.487     1720726.63549   1339221.89544  24438289.035    24438305.718
       197.000         130.000
 01  9 24 20 30  0.0000000  0  7G 1G25G22G20G29G13G11
  21283845.716    -2642393.46949  -2041836.48147  21283845.840    21283854.139
       235.000         192.000
  23100617.612     1590727.12349   1239185.46545  23100618.145    23100630.684
       218.000         160.000
  20770595.800    -2462875.50049  -1897031.72047  20770595.156    20770605.030
       234.000         192.000
  20249006.210    -1235881.00449   -741804.19647  20249005.835    20249013.478
       233.000         203.000
  24032649.589     1164047.50549    908923.81145  24032649.243    24032668.326
       202.000         132.000
  23703559.110    -2215013.93749  -1346590.36345  23703558.638    23703569.920
       212.000         141.000
  24454536.378     1806116.35649   1405758.78544  24454537.846    24454560.497
       198.000         123.000
 01  9 24 20 30 30.0000000  0  7G 1G25G22G20G29G13G11
  21276152.488    -2682821.53349  -2073338.83847  21276152.386    21276160.844
       235.000         192.000
  23116055.686     1671853.68749   1302400.80545  23116055.957    23116068.228
       216.000         159.000
  20765425.504    -2490045.09449  -1918202.75547  20765424.546    20765434.844
       233.000         193.000
  20250460.828    -1228237.01349   -735847.85947  20250460.548    20250467.800
       233.000         203.000
  24045715.543     1232708.38549    962425.56945  24045715.098    24045735.270
       202.000         133.000
  23689265.942    -2290124.50349  -1405117.97045  23689266.032    23689277.141
       210.000         141.000
  24470776.537     1891456.32749   1472256.98344  24470777.603    24470788.028
       207.000         122.000
 01  9 24 20 31  0.0000000  0  7G 1G25G22G20G29G13G11
  21268484.602    -2723116.41649  -2104737.41447  21268484.085    21268492.986
       235.000         192.000
  23131506.320     1753046.64849   1365667.86545  23131507.171    23131518.328
       218.000         159.000
  20760374.362    -2516588.51449  -1938885.88347  20760373.702    20760383.411
       234.000         193.000
  20252024.440    -1220020.06149   -729445.06247  20252024.235    20252031.607
       233.000         203.000
  24058803.034     1301483.35549   1016016.20244  24058803.167    24058819.486
       200.000         130.000
  23674976.147    -2365217.17649  -1463631.64045  23674976.725    23674987.695
       212.000         143.000
  24487005.924     1976739.16449   1538710.93844  24487003.570    24487026.730
       203.000         127.000
 01  9 24 20 31 30.0000000  0  7G 1G25G22G20G29G13G11
  21260842.249    -2763277.02949  -2136031.36547  21260841.776    21260851.125
       234.000         192.000
  23146969.564     1834305.33449   1428986.14445  23146969.596    23146982.067
       217.000         159.000
  20755442.810    -2542503.98949  -1959079.69947  20755441.697    20755451.998
       233.000         193.000
  20253697.278    -1211229.33349   -722595.17047  20253696.927    20253704.359
       233.000         203.000
  24071912.556     1370373.18049   1069696.36344  24071913.511    24071931.962
       201.000         131.000
  23660689.996    -2440291.26849  -1522130.82345  23660690.145    23660701.349
       211.000         143.000
  24503223.065     2061962.75548   1605118.43344  24503222.612    24503249.660
       192.000         125.000
 01  9 24 20 32  0.0000000  0  7G 1G25G22G20G29G13G11
  21253225.405    -2803303.19749  -2167220.55147  21253225.158    21253233.967
       235.000         192.000
  23162444.918     1915627.68749   1492354.03345  23162446.292    23162457.850
       218.000         158.000
  20750630.775    -2567790.73249  -1978783.58247  20750630.058    20750640.031
       233.000         193.000
  20255479.230    -1201865.06749   -715298.36447  20255479.074    20255486.834
       233.000         203.000
  24085043.864     1439377.56249   1123465.75944  24085042.982    24085061.508
       203.000         131.000
  23646407.270    -2515346.77949  -1580615.51145  23646406.683    23646418.170
       212.000         143.000
  24519429.066     2147123.99449   1671477.25344  24519431.761    24519447.268
       208.000         128.000
 01  9 24 20 32 30.0000000  0  7G 1G25G22G20G29G13G11
  21245634.868    -2843191.70149  -2198302.46747  21245634.743    21245643.205
       235.000         193.000
  23177932.647     1997015.16849   1555772.68745  23177933.331    23177945.902
       218.000         158.000
  20745939.240    -2592444.80449  -1997994.47847  20745938.546    20745948.373
       234.000         193.000
  20257370.878    -1191924.30749   -707552.34347  20257370.524    20257378.024
       233.000         203.000
  24098197.520     1508499.30549   1177326.61344  24098195.926    24098215.983
       200.000         130.000
  23632128.653    -2590380.85449  -1639083.51745  23632127.958    23632139.818
       213.000         143.000
  24535623.454     2232222.68649   1737787.58244  24535623.701    24535639.762
       201.000         122.000
 01  9 24 20 33  0.0000000  0  7G 1G25G22G20G29G13G11
  21238070.292    -2882943.54249  -2229277.88347  21238070.050    21238078.938
       235.000         193.000
  23193432.120     2078464.39849   1619239.43845  23193432.811    23193445.141
       217.000         158.000
  20741367.877    -2616466.97849  -2016712.98347  20741366.890    20741377.271
       234.000         193.000
  20259372.027    -1181408.40349   -699358.15447  20259371.879    20259379.274
       233.000         203.000
  24111373.174     1577736.80449   1231277.68544  24111373.843    24111390.751
       203.000         130.000
  23617853.773    -2665394.80449  -1697535.85645  23617853.011    23617865.510
       211.000         143.000
  24551805.042     2317254.54849   1804045.84744  24551805.149    24551826.328
       205.000         127.000
 01  9 24 20 33 30.0000000  0  7G 1G25G22G20G29G13G11
  21230531.851    -2922558.37749  -2260146.53847  21230531.589    21230540.208
       236.000         193.000
  23208943.001     2159973.74149   1682753.03745  23208944.462    23208955.410
       216.000         156.000
  20736917.069    -2639856.06849  -2034938.17747  20736916.352    20736926.044
       235.000         193.000
  20261482.627    -1170317.39749   -690715.82747  20261482.298    20261490.002
       233.000         203.000
  24124570.888     1647089.99449   1285318.93044  24124569.778    24124590.306
       199.000         129.000
  23603582.778    -2740388.67849  -1755972.54845  23603582.710    23603593.977
       210.000         143.000
  24567973.220     2402217.09848   1870249.97944  24567974.305    24567996.882
       194.000         127.000
 01  9 24 20 34  0.0000000  0  7G 1G25G22G20G29G13G11
  21223020.004    -2962033.34949  -2290906.20747  21223019.899    21223028.476
       235.000         193.000
  23224465.499     2241544.23049   1746314.27845  23224464.328    23224478.117
       215.000         156.000
  20732587.318    -2662608.66149  -2052667.39947  20732586.779    20732596.305
       235.000         193.000
  20263703.089    -1158648.76649   -681623.41147  20263703.010    20263710.489
       233.000         203.000
  24137790.970     1716561.47549   1339452.28544  24137789.666    24137810.893
       198.000         128.000
  23589316.160    -2815359.66249  -1814391.40145  23589314.657    23589328.172
       211.000         142.000
  24584127.922     2487109.64549   1936399.49544  24584129.551    24584150.050
       204.000         130.000
 01  9 24 20 34 30.0000000  0  7G 1G25G22G20G29G13G11
  21215534.433    -3001370.12349  -2321558.19447  21215534.471    21215542.484
       236.000         193.000
  23239998.701     2323171.92849   1809920.08345  23239999.543    23240011.272
       215.000         156.000
  20728378.493    -2684726.13249  -2069901.72847  20728378.112    20728387.607
       237.000         194.000
  20266033.140    -1146404.71949   -672082.61747  20266032.518    20266040.621
       232.000         203.000
  24151033.177     1786148.69349   1393675.84244  24151034.707    24151049.187
       198.000         125.000
  23575053.627    -2890309.86449  -1872794.05645  23575054.339    23575065.364
       213.000         143.000
  24600268.953     2571927.35149   2002490.77044  24600270.137    24600289.626
       197.000         131.000
 01  9 24 20 35  0.0000000  0  7G 1G25G22G20G29G13G11
  21208075.537    -3040566.91349  -2352101.10147  21208075.365    21208083.805
       236.000         194.000
  23255542.815     2404856.33049   1873570.09945  23255543.572    23255555.515
       215.000         155.000
  20724290.965    -2706206.28049  -2086639.43047  20724290.083    20724300.097
       236.000         194.000
  20268472.746    -1133584.19149   -662092.62047  20268472.558    20268480.035
       233.000         203.000
  24164297.594     1855852.99449   1447990.67844  24164297.765    24164313.591
       198.000         122.000
  23560795.230    -2965237.77349  -1931179.30045  23560794.172    23560805.568
       210.000         143.000
  24616394.446     2656668.76849   2068522.62144  24616397.922    24616413.893
       197.000         123.000
 01  9 24 20 35 30.0000000  0  7G 1G25G22G20G29G13G11
  21200643.380    -3079623.35149  -2382534.63747  21200642.940    21200651.925
       235.000         194.000
  23271097.564     2486596.09649   1937263.24345  23271098.484    23271109.827
       216.000         154.000
  20720324.757    -2727048.26849  -2102879.87847  20720324.278    20720333.702
       236.000         194.000
  20271022.203    -1120186.93149   -651653.21747  20271021.634    20271029.504
       233.000         203.000
  24177584.317     1925674.30649   1502396.67844  24177582.708    24177604.344
       197.000         124.000
  23546540.927    -3040143.34649  -1989547.15945  23546540.629    23546552.819
       212.000         144.000
  24632505.495     2741330.71949   2134492.54144  24632507.000    24632527.713
       204.000         125.000
 01  9 24 20 36  0.0000000  0  7G 1G25G22G20G29G13G11
  21193237.984    -3118538.98149  -2412858.45847  21193237.797    21193246.527
       236.000         194.000
  23286662.507     2568389.72549   2000998.34745  23286663.079    23286675.213
       216.000         154.000
  20716480.321    -2747251.29249  -2118622.43747  20716479.620    20716489.149
       235.000         194.000
  20273681.324    -1106213.34849   -640764.74247  20273681.213    20273688.839
       234.000         203.000
  24190893.150     1995612.37848   1556893.56544  24190894.212    24190913.035
       194.000         125.000
  23532291.061    -3115026.34249  -2047897.43145  23532290.864    23532301.792
       212.000         144.000
  24648601.075     2825910.73349   2200398.58844  24648597.581    24648623.669
       202.000         127.000
 01  9 24 20 36 30.0000000  0  7G 1G25G22G20G29G13G11
  21185859.536    -3157312.91849  -2443071.86747  21185859.275    21185867.681
       235.000         194.000
  23302237.478     2650235.91349   2064774.42845  23302238.376    23302250.633
       214.000         154.000
  20712757.601    -2766814.11349  -2133866.13347  20712756.857    20712766.566
       236.000         195.000
  20276450.187    -1091663.12949   -629426.93747  20276449.826    20276457.458
       233.000         202.000
  24204224.541     2065667.87649   1611481.98944  24204226.463    24204243.125
       202.000         126.000
  23518045.789    -3189886.12749  -2106229.61645  23518045.866    23518057.170
       211.000         144.000
  24664680.511     2910406.25649   2266238.78244  24664681.147    24664705.643
       200.000         128.000
 01  9 24 20 37  0.0000000  0  6G 1G25G22G20G29G13
  21178508.697    -3195941.68049  -2473172.14947  21178508.124    21178517.224
       236.000         194.000
  23317822.649     2732135.92649   2128592.42545  23317823.657    23317835.153
       215.000         154.000
  20709157.418    -2785733.13049  -2148608.17247  20709156.829    20709166.364
       236.000         195.000
  20279329.326    -1076533.25049   -617637.45347  20279329.033    20279336.837
       233.000         202.000
  24217578.889     2135843.49849   1666164.09444  24217580.718    24217599.498
       199.000         126.000
  23503805.421    -3264719.54049  -2164541.21045  23503805.664    23503817.173
       212.000         144.000
 01  9 24 20 37 30.0000000  0  6G 1G25G22G20G29G13
  21171185.718    -3234423.78149  -2503158.15447  21171185.034    21171194.142
       236.000         194.000
  23333418.055     2814089.56749   2192452.23045  23333418.201    23333431.726
       216.000         154.000
  20705680.106    -2804006.43649  -2162847.06447  20705679.596    20705689.088
       237.000         195.000
  20282318.983    -1060822.75749   -605395.54247  20282318.653    20282326.144
       233.000         202.000
  24230955.874     2206140.31248   1720940.57844  24230953.860    24230974.295
       191.000         120.000
  23489570.360    -3339525.45549  -2222831.39245  23489569.749    23489581.296
       213.000         145.000
 01  9 24 20 38  0.0000000  0  6G 1G25G22G20G29G13
  21163889.595    -3272765.11349  -2533034.47647  21163889.404    21163897.591
       236.000         195.000
  23349022.163     2896088.68249   2256347.46345  23349022.788    23349036.036
       215.000         154.000
  20702324.568    -2821639.85549  -2176587.33747  20702323.600    20702333.294
       236.000         195.000
  20285417.778    -1044538.49049   -592706.53747  20285417.668    20285425.231
       234.000         202.000
  24244354.854     2276551.60149   1775806.25944  24244354.882    24244370.794
       200.000         122.000
  23475339.140    -3414310.11749  -2281104.99245  23475338.931    23475350.240
       214.000         145.000
 01  9 24 20 38 30.0000000  0  6G 1G25G22G20G29G13
  21156620.842    -3310962.62149  -2562798.72347  21156620.546    21156629.303
       236.000         195.000
  23364635.018     2978134.13949   2320278.79345  23364635.949    23364647.956
       215.000         153.000
  20699091.323    -2838630.18249  -2189826.49547  20699090.368    20699100.385
       236.000         194.000
  20288626.238    -1027678.21149   -579568.69047  20288626.046    20288633.717
       233.000         202.000
  24257776.339     2347079.90148   1830763.16144  24257778.689    24257796.435
       194.000         124.000
  23461112.515    -3489070.90949  -2339360.01845  23461111.890    23461122.597
       213.000         145.000
 01  9 24 20 39  0.0000000  0  6G 1G25G22G20G29G13
  21149379.405    -3349016.20649  -2592450.83147  21149379.299    21149388.027
       236.000         195.000
  23380256.403     3060224.14349   2384244.83745  23380256.695    23380269.064
       215.000         153.000
  20695980.601    -2854977.04149  -2202564.25647  20695979.601    20695989.623
       236.000         195.000
  20291944.200    -1010242.29949   -565982.30147  20291943.790    20291951.725
       233.000         202.000
  24271219.741     2417724.65149   1885810.73544  24271218.235    24271241.833
       199.000         124.000
  23446890.592    -3563807.81549  -2397596.47945  23446889.886    23446900.700
       213.000         145.000
 01  9 24 20 39 30.0000000  0  6G 1G25G22G20G29G13
  21142165.705    -3386924.42449  -2621989.65847  21142165.244    21142174.044
       236.000         195.000
  23395886.162     3142358.19349   2448245.20445  23395887.154    23395898.296
       213.000         153.000
  20692992.647    -2870678.76449  -2214799.31747  20692991.900    20693001.878
       236.000         195.000
  20295371.823     -992230.09049   -551946.85447  20295371.737    20295379.063
       233.000         202.000
  24284685.619     2488486.98349   1940949.97144  24284686.471    24284703.604
       196.000         130.000
  23432673.361    -3638519.37349  -2455813.15945  23432673.787    23432683.641
       212.000         145.000
 01  9 24 20 40  0.0000000  0  6G 1G25G22G20G29G13
  21134979.884    -3424685.99249  -2651414.21847  21134979.878    21134988.215
       236.000         195.000
  23411524.099     3224535.54349   2512279.31145  23411524.179    23411537.582
       214.000         153.000
  20690127.655    -2885734.12349  -2226530.71947  20690127.353    20690136.753
       237.000         195.000
  20298909.275     -973641.04649   -537461.92047  20298908.778    20298916.709
       232.000         202.000
  24298173.952     2559367.58049   1996181.30944  24298172.395    24298196.070
       196.000         127.000
  23418460.959    -3713204.99949  -2514009.64145  23418461.856    23418472.584
       212.000         145.000
 01  9 24 20 40 30.0000000  0  6G 1G25G22G20G29G13
  21127822.170    -3462300.13749  -2680723.90547  21127822.033    21127830.571
       236.000         195.000
  23427169.984     3306754.71849   2576346.01545  23427171.127    23427182.498
       212.000         153.000
  20687385.802    -2900142.42549  -2237757.92347  20687384.762    20687394.697
       236.000         194.000
  20302556.380     -954475.43649   -522527.71947  20302555.993    20302563.836
       233.000         202.000
  24311684.751     2630366.23649   2051504.72144  24311683.682    24311701.958
       197.000         124.000
  23404253.733    -3787864.20549  -2572185.51645  23404254.782    23404263.746
       213.000         146.000
 01  9 24 20 41  0.0000000  0  6G 1G25G22G20G29G13
  21120692.328    -3499767.57449  -2709919.27647  21120691.859    21120700.993
       236.000         195.000
  23442823.489     3389013.30249   2640443.42145  23442824.220    23442836.634
       215.000         153.000
  20684767.015    -2913904.22649  -2248481.37247  20684766.284    20684775.991
       236.000         194.000
  20306312.959     -934734.67149   -507145.34447  20306312.542    20306320.517
       233.000         202.000
  24325217.803     2701482.01248   2106919.41344  24325220.061    24325236.053
       192.000         122.000
  23390051.406    -3862497.75749  -2630341.41045  23390052.024    23390062.194
       213.000         147.000
 01  9 24 20 41 30.0000000  0  6G 1G25G22G20G29G13
  21113591.189    -3537084.15849  -2738997.09447  21113590.615    21113599.353
       236.000         195.000
  23458484.923     3471313.37849   2704573.13945  23458486.698    23458497.622
       214.000         153.000
  20682271.975    -2927015.85759  -2258698.28647  20682271.142    20682281.100
       235.000         195.000
  20310179.421     -914416.37949   -491313.17047  20310179.385    20310187.588
       233.000         202.000
  24338773.540     2772717.52659   2162427.22244  24338772.748    24338795.555
       198.000         124.000
  23375854.440    -3937102.83549  -2688475.36245  23375854.872    23375864.338
       212.000         147.000
 01  9 24 20 42  0.0000000  0  6G 1G25G22G20G29G13
  21106518.402    -3574251.42549  -2767958.56647  21106518.002    21106526.337
       235.000         195.000
  23474153.461     3553650.88049   2768732.06845  23474154.451    23474166.836
       215.000         153.000
  20679900.317    -2939478.75849  -2268409.69747  20679899.873    20679909.514
       234.000         195.000
  20314155.733     -893521.43349   -475031.43847  20314155.743    20314163.365
       233.000         202.000
  24352352.070     2844071.10049   2218027.01444  24352352.417    24352368.275
       197.000         124.000
  23361662.932    -4011679.51349  -2746586.91645  23361664.226    23361674.107
       215.000         147.000
 01  9 24 20 42 30.0000000  0  6G 1G25G22G20G29G13
  21099474.100    -3611269.39549  -2796803.70147  21099473.658    21099482.444
       236.000         195.000
  23489828.729     3636023.99249   2832918.71445  23489828.710    23489842.740
       213.000         153.000
  20677652.241    -2951292.52449  -2277615.19947  20677651.969    20677660.984
       234.000         194.000
  20318241.349     -872051.74149   -458301.85147  20318240.984    20318249.185
       233.000         202.000
  24365952.857     2915542.61748   2273718.94144  24365956.010    24365975.369
       189.000         122.000
  23347476.535    -4086229.19549  -2804677.47245  23347476.398    23347487.088
       212.000         147.000
 01  9 24 20 43  0.0000000  0  6G 1G25G22G20G29G13
  21092459.534    -3648131.89349  -2825528.13647  21092459.774    21092468.149
       236.000         195.000
  23505511.663     3718437.32249   2897136.27445  23505512.143    23505525.290
       214.000         151.000
  20675529.027    -2962450.50549  -2286309.91747  20675528.360    20675538.575
       234.000         194.000
  20322437.636     -850000.69949   -441119.48247  20322437.929    20322445.428
       234.000         202.000
  24379577.073     2987138.19748   2329507.19744  24379579.448    24379600.365
       194.000         117.000
  23333296.684    -4160744.65149  -2862741.61245  23333296.155    23333305.189
       212.000         146.000
 01  9 24 20 43 30.0000000  0  7G 1G27G25G22G20G29G13
  21085472.602    -3684848.63449  -2854138.55047  21085472.631    21085481.033
       237.000         195.000
  24840094.140    -1764442.85449  -1354256.97244  24840094.181    24840114.251
       204.000         130.000
  23521199.859     3800878.62149   2961376.04145  23521199.772    23521214.395
       212.000         153.000
  20673528.283    -2972964.51449  -2294502.62147  20673527.725    20673537.360
       235.000         195.000
  20326742.067     -827381.25649   -423493.98647  20326741.989    20326749.796
       233.000         202.000
  24393222.882     3058845.35849   2385382.64344  24393223.902    24393239.755
       199.000         123.000
  23319120.996    -4235238.11349  -2920788.32945  23319120.499    23319131.155
       213.000         147.000
 01  9 24 20 44  0.0000000  0  7G 1G27G25G22G20G29G13
  21078514.395    -3721414.42749  -2882631.34947  21078513.908    21078522.712
       235.000         195.000
  24824975.050    -1843895.45749  -1416168.12144  24824974.808    24824995.051
       200.000         128.000
  23536893.822     3883350.32049   3025639.29145  23536895.167    23536911.123
       213.000         151.000
  20671651.039    -2982829.66549  -2302189.94847  20671650.634    20671659.847
       235.000         194.000
  20331155.485     -804189.18049   -405422.49847  20331155.654    20331163.264
       234.000         202.000
  24406890.709     3130668.57948   2441348.55144  24406892.310    24406913.229
       193.000         119.000
  23304950.425    -4309704.47649  -2978814.16445  23304950.568    23304966.186
       214.000         146.000
 01  9 24 20 44 30.0000000  0  7G 1G27G25G22G20G29G13
  21071585.523    -3757825.79749  -2911003.80647  21071585.435    21071593.996
       236.000         195.000
  24809880.539    -1923211.97449  -1477973.07644  24809880.437    24809894.376
       198.000         123.000
  23552594.307     3965855.79349   3089929.08345  23552595.088    23552609.471
       212.000         152.000
  20669898.252    -2992040.93749  -2309367.52747  20669897.748    20669907.337
       234.000         194.000
  20335678.652     -780420.30949   -386901.34147  20335678.683    20335686.310
       233.000         201.000
  24420581.327     3202612.55348   2497408.32844  24420583.772    24420599.132
       194.000         115.000
  23290786.160    -4384138.73549  -3036814.80845  23290786.394    23290797.635
       212.000         147.000
 01  9 24 20 45  0.0000000  0  7G 1G27G25G22G20G29G13
  21064685.845    -3794083.82849  -2939256.78647  21064685.592    21064694.069
       237.000         195.000
  24794812.313    -2002394.66449  -1539673.53544  24794811.699    24794831.116
       201.000         129.000
  23568300.409     4048390.54249   3154241.67845  23568301.125    23568315.459
       213.000         152.000
  20668269.396    -3000600.54449  -2316037.32447  20668268.885    20668278.866
       235.000         195.000
  20340310.979     -756077.65649   -367933.08147  20340310.836    20340318.735
       234.000         201.000
  24434294.543     3274674.49649   2553560.31444  24434297.118    24434311.933
       199.000         123.000
  23276627.395    -4458542.98349  -3094792.05145  23276627.706    23276638.763
       214.000         147.000
 01  9 24 20 45 30.0000000  0  7G 1G27G25G22G20G29G13
  21057815.990    -3830185.52649  -2967387.94547  21057815.787    21057824.623
       237.000         196.000
  24779770.483    -2081440.68249  -1601267.59644  24779772.161    24779788.471
       200.000         129.000
  23584012.286     4130956.23149   3218578.36845  23584012.858    23584027.251
       210.000         152.000
  20666765.219    -3008505.71049  -2322197.16847  20666764.467    20666774.124
       234.000         195.000
  20345052.880     -731159.31849   -348516.23847  20345052.743    20345060.667
       233.000         201.000
  24448030.679     3346856.70648   2609806.00344  24448032.769    24448053.431
       191.000         125.000
  23262474.969    -4532914.69349  -3152743.93945  23262475.014    23262485.116
       212.000         146.000
 01  9 24 20 46  0.0000000  0  7G 1G27G25G22G20G29G13
  21050975.964    -3866130.21449  -2995396.75947  21050975.783    21050983.990
       237.000         196.000
  24764754.154    -2160350.10649  -1662755.20344  24764753.068    24764770.718
       199.000         128.000
  23599729.873     4213551.30849   3282937.97445  23599730.736    23599743.996
       214.000         151.000
  20665385.531    -3015756.19249  -2327846.86847  20665384.822    20665394.008
       235.000         195.000
  20349904.166     -705665.88849   -328651.27347  20349903.775    20349911.585
       233.000         201.000
  24461789.570     3419159.34549   2666145.39644  24461788.956    24461810.081
       196.000         124.000
  23248328.585    -4607253.55749  -3210670.22245  23248329.636    23248339.189
       213.000         148.000
 01  9 24 20 46 30.0000000  0  7G 1G27G25G22G20G29G13
  21044166.041    -3901916.42149  -3023282.08047  21044166.027    21044174.482
       237.000         196.000
  24749764.296    -2239121.73649  -1724135.32644  24749764.674    24749785.088
       203.000         131.000
  23615452.946     4296174.90649   3347319.80545  23615453.592    23615467.618
       212.000         151.000
  20664130.562    -3022351.04549  -2332985.68347  20664130.070    20664139.311
       235.000         195.000
  20354864.970     -679597.04049   -308337.92547  20354864.980    20354872.643
       234.000         202.000
  24475571.490     3491582.80649   2722578.99144  24475572.214    24475590.641
       196.000         127.000
  23234189.037    -4681558.12949  -3268569.77945  23234189.206    23234199.321
       215.000         148.000
 01  9 24 20 47  0.0000000  0  6G 1G27G25G22G20G13
  21037386.594    -3937542.54949  -3051042.66547  21037386.610    21037395.047
       238.000         196.000
  24734800.894    -2317754.36849  -1785407.19544  24734800.534    24734818.762
       201.000         129.000
  23631181.271     4378827.00749   3411723.83745  23631181.633    23631194.420
       213.000         150.000
  20663000.670    -3028288.86749  -2337612.53147  20663000.363    20663009.682
       235.000         196.000
  20359935.363     -652952.25649   -287575.80447  20359935.190    20359942.662
       234.000         202.000
  23220056.095    -4755827.22049  -3326441.69945  23220056.330    23220066.418
       215.000         149.000
 01  9 24 20 47 30.0000000  0  6G 1G27G25G22G20G13
  21030637.658    -3973008.45249  -3078678.39847  21030637.593    21030645.788
       237.000         196.000
  24719863.680    -2396248.29949  -1846571.05544  24719860.167    24719880.454
       199.000         125.000
  23646914.632     4461505.60149   3476148.52045  23646914.861    23646928.478
       212.000         149.000
  20661995.670    -3033570.34549  -2341727.93847  20661994.829    20662004.154
       234.000         195.000
  20365115.107     -625732.93749   -266365.98947  20365114.794    20365123.043
       234.000         202.000
  23205929.674    -4830061.10249  -3384286.19745  23205929.929    23205940.161
       214.000         149.000
 01  9 24 20 48  0.0000000  0  6G 1G27G25G22G20G13
  21023918.884    -4008315.69349  -3106190.49947  21023918.644    21023927.512
       238.000         196.000
  24704952.875    -2474605.42149  -1907628.21544  24704952.987    24704969.535
       201.000         130.000
  23662652.297     4544207.35649   3540591.22345  23662652.976    23662665.909
       212.000         149.000
  20661115.108    -3038197.42449  -2345333.44147  20661114.728    20661123.934
       235.000         195.000
  20370403.658     -597941.86449   -244710.66047  20370403.463    20370411.246
       234.000         202.000
  23191809.741    -4904261.39249  -3442104.49645  23191809.434    23191819.713
       214.000         151.000
 01  9 24 20 48 30.0000000  0  6G 1G27G25G22G20G13
  21017230.504    -4043463.42549  -3133578.31047  21017230.244    21017238.639
       237.000         196.000
  24690067.978    -2552825.32949  -1968578.44045  24690067.722    24690086.545
       204.000         135.000
  23678394.153     4626930.78749   3605050.85645  23678395.858    23678408.184
       211.000         148.000
  20660359.213    -3042169.78149  -2348428.76547  20660358.651    20660367.816
       234.000         195.000
  20375800.906     -569579.35449   -222610.05147  20375800.627    20375808.600
       234.000         202.000
  23177696.331    -4978427.68149  -3499896.29545  23177696.854    23177705.715
       215.000         151.000
 01  9 24 20 49  0.0000000  0  6G 1G27G25G22G20G13
  21010572.790    -4078450.17449  -3160840.68047  21010572.244    21010580.902
       237.000         196.000
  24675209.469    -2630907.13849  -2029421.06545  24675208.958    24675225.416
       203.000         133.000
  23694140.151     4709675.56949   3669527.09845  23694140.208    23694153.293
       211.000         148.000
  20659727.979    -3045486.83149  -2351013.45547  20659727.109    20659736.733
       234.000         195.000
  20381306.858     -540645.57949   -200064.30147  20381306.135    20381314.668
       234.000         202.000
  23163589.598    -5052558.74349  -3557660.65745  23163589.251    23163599.911
       214.000         151.000
 01  9 24 20 49 30.0000000  0  6G 1G27G25G22G20G13
  21003945.794    -4113274.97749  -3187976.85747  21003945.601    21003954.125
       237.000         196.000
  24660377.108    -2708850.34549  -2090155.83944  24660378.195    24660391.102
       202.000         126.000
  23709890.090     4792440.50749   3734019.06345  23709890.854    23709904.327
       208.000         147.000
  20659221.558    -3048147.94749  -2353087.03047  20659221.389    20659230.421
       236.000         195.000
  20386921.445     -511140.89449   -177073.69047  20386920.978    20386929.412
       235.000         202.000
  23149489.702    -5126654.01449  -3615397.13245  23149490.341    23149500.752
       215.000         150.000
 01  9 24 20 50  0.0000000  0  6G 1G27G25G22G20G13
  20997349.830    -4147936.86049  -3214986.08347  20997349.358    20997358.015
       237.000         196.000
  24645571.457    -2786654.38249  -2150782.05444  24645571.326    24645589.276
       204.000         131.000
  23725643.537     4875224.68049   3798526.00645  23725644.018    23725657.702
       208.000         147.000
  20658840.122    -3050152.89949  -2354649.31747  20658839.423    20658848.427
       235.000         195.000
  20392644.636     -481065.57549   -153638.42147  20392644.646    20392652.160
       234.000         202.000
  23135396.727    -5200712.68649  -3673105.07445  23135396.468    23135406.612
       215.000         152.000
 01  9 24 20 50 30.0000000  0  6G 1G27G25G22G20G13
  20990784.884    -4182435.89949  -3241868.42647  20990784.322    20990792.498
       238.000         196.000
  24630792.310    -2864319.83149  -2211300.28145  24630791.228    24630809.464
       204.000         139.000
  23741400.165     4958026.05949   3863046.35845  23741400.331    23741415.085
       209.000         146.000
  20658583.287    -3051502.37449  -2355700.83347  20658582.801    20658592.057
       236.000         195.000
  20398476.109     -450421.05749   -129759.63047  20398475.729    20398483.554
       234.000         202.000
  23121310.754    -5274734.91149  -3730784.62345  23121311.049    23121321.642
       216.000         152.000
 01  9 24 20 51  0.0000000  0  6G 1G27G25G22G20G13
  20984251.381    -4216769.55749  -3268621.90047  20984251.095    20984259.525
       238.000         196.000
  24616039.355    -2941844.82949  -2271709.07245  24616036.463    24616053.691
       199.000         135.000
  23757160.269     5040845.08949   3927580.43345  23757159.791    23757174.647
       210.000         146.000
  20658451.561    -3052194.74049  -2356240.31947  20658451.222    20658460.439
       236.000         196.000
  20404416.098     -419206.49049   -105436.63847  20404415.997    20404423.573
       235.000         202.000
  23107232.018    -5348718.54349  -3788434.10545  23107231.956    23107243.131
       215.000         153.000
 01  9 24 20 51 30.0000000  0  6G 1G27G25G22G20G13
  20977749.549    -4250937.25449  -3295246.04747  20977748.927    20977757.581
       238.000         196.000
  24601312.775    -3019229.37149  -2332008.47944  24601312.186    24601330.235
       203.000         127.000
  23772923.486     5123680.38949   3992127.21045  23772924.137    23772938.392
       211.000         146.000
  20658444.820    -3052230.10849  -2356267.86147  20658444.237    20658453.652
       235.000         196.000
  20410464.398     -387422.84849    -80670.21747  20410464.160    20410471.878
       235.000         202.000
  23093160.743    -5422663.39849  -3846053.36545  23093160.628    23093171.215
       216.000         154.000
 01  9 24 20 52  0.0000000  0  6G 1G27G25G22G20G13
  20971279.133    -4284939.06449  -3321740.93947  20971278.656    20971287.527
       237.000         196.000
  24586613.839    -3096473.72149  -2392198.68245  24586613.841    24586632.062
       203.000         136.000
  23788689.498     5206529.94549   4056685.09545  23788690.762    23788704.228
       211.000         146.000
  20658562.871    -3051609.50849  -2355784.24647  20658562.115    20658571.756
       235.000         196.000
  20416620.677     -355071.81649    -55461.67047  20416620.578    20416628.408
       235.000         202.000
  23079096.676    -5496570.12949  -3903642.91445  23079096.584    23079106.962
       215.000         154.000
 01  9 24 20 52 30.0000000  0  6G 1G27G25G22G20G13
  20964840.814    -4318772.85949  -3348104.90747  20964840.103    20964848.395
       236.000         196.000
  24571941.616    -3173576.44749  -2452278.46245  24571940.050    24571958.504
       200.000         137.000
  23804458.231     5289393.98649   4121254.26445  23804459.096    23804472.908
       210.000         145.000
  20658806.057    -3050331.58249  -2354788.44247  20658805.427    20658814.472
       235.000         196.000
  20422885.122     -322152.51449    -29810.31947  20422884.831    20422892.652
       235.000         202.000
  23065040.306    -5570436.33049  -3961200.86545  23065040.755    23065050.492
       217.000         153.000
 01  9 24 20 53  0.0000000  0  6G 1G27G25G22G20G13
  20958434.107    -4352439.99549  -3374339.02147  20958433.688    20958442.322
       237.000         196.000
  24557295.385    -3250539.31549  -2512249.26145  24557294.529    24557311.906
       202.000         133.000
  23820228.893     5372269.20449   4185832.12445  23820228.989    23820243.357
       209.000         145.000
  20659173.907    -3048398.46049  -2353282.08447  20659173.152    20659182.527
       235.000         195.000
  20429257.110     -288667.81949     -3718.39947  20429256.950    20429264.978
       235.000         202.000
  23050991.390    -5644263.61749  -4018728.50145  23050991.641    23051001.297
       214.000         154.000
 01  9 24 20 53 30.0000000  0  6G 1G27G25G22G20G13
  20952059.823    -4385937.01849  -3400440.58247  20952059.501    20952067.937
       236.000         197.000
  24542676.965    -3327359.48949  -2572108.95645  24542676.708    24542691.438
       205.000         132.000
  23836001.927     5455156.91149   4250419.73445  23836003.258    23836014.820
       209.000         144.000
  20659666.912    -3045807.63849  -2351263.23847  20659666.041    20659675.823
       235.000         195.000
  20435737.014     -254616.04749     22815.39747  20435736.754    20435744.622
       236.000         203.000
  23036950.313    -5718048.86349  -4076223.36845  23036949.092    23036961.376
       215.000         153.000
 01  9 24 20 54  0.0000000  0  6G 1G27G25G22G20G13
  20945717.828    -4419264.14149  -3426409.75147  20945717.452    20945725.760
       236.000         197.000
  24528085.710    -3404037.80349  -2631858.13545  24528084.880    24528100.899
       205.000         137.000
  23851777.101     5538054.77349   4315015.26445  23851777.558    23851791.955
       210.000         144.000
  20660284.844    -3042560.33449  -2348732.85247  20660284.543    20660293.577
       234.000         196.000
  20442324.397     -219999.21249     49789.50147  20442324.123    20442332.145
       235.000         202.000
  23022917.343    -5791792.62749  -4133685.92445  23022918.235    23022928.408
       216.000         153.000
 01  9 24 20 54 30.0000000  0  6G 1G27G25G22G20G13
  20939408.345    -4452420.63249  -3452245.95647  20939408.019    20939416.310
       237.000         197.000
  24513520.890    -3480574.24649  -2691496.66345  24513520.723    24513537.804
       202.000         135.000
  23867553.864     5620961.43349   4379617.63945  23867554.646    23867569.480
       211.000         145.000
  20661027.598    -3038656.88949  -2345691.18047  20661026.919    20661036.323
       234.000         195.000
  20449019.120     -184818.30849     77203.14847  20449018.969    20449026.907
       235.000         202.000
  23008892.189    -5865494.52249  -4191115.87545  23008892.505    23008902.909
       217.000         154.000
 01  9 24 20 55  0.0000000  0  6G 1G27G25G22G20G13
  20933131.741    -4485404.45449  -3477947.61547  20933131.235    20933139.660
       236.000         197.000
  24498983.525    -3556967.21949  -2751023.44645  24498983.097    24498999.304
       205.000         135.000
  23883332.587     5703877.58649   4444227.40445  23883333.562    23883347.678
       209.000         144.000
  20661895.499    -3034096.27549  -2342137.44647  20661894.908    20661903.932
       235.000         195.000
  20455821.321     -149072.78749    105056.73947  20455820.750    20455829.052
       235.000         202.000
  22994875.303    -5939152.77949  -4248511.79445  22994875.529    22994885.629
       218.000         154.000
 01  9 24 20 55 30.0000000  0  6G 1G27G25G22G20G13
  20926887.873    -4518216.14749  -3503515.14247  20926887.667    20926895.842
       237.000         197.000
  24484473.663    -3633217.87349  -2810439.41045  24484473.382    24484490.629
       202.000         136.000
  23899112.352     5786800.44049   4508842.38045  23899113.018    23899127.617
       211.000         145.000
  20662888.055    -3028880.17349  -2338072.92447  20662887.581    20662896.890
       234.000         195.000
  20462730.530     -112764.87349    133348.56747  20462730.127    20462737.918
       235.000         202.000
  22980866.805    -6012767.94649  -4305874.13545  22980866.527    22980877.074
       218.000         154.000
 01  9 24 20 56  0.0000000  0  6G 1G27G25G22G20G13
  20920677.106    -4550853.91449  -3528947.14747  20920677.316    20920685.183
       237.000         197.000
  24469990.568    -3709325.07349  -2869743.48545  24469990.288    24470007.526
       202.000         135.000
  23914893.536     5869729.62849   4573462.31045  23914895.382    23914908.459
       212.000         143.000
  20664005.561    -3023007.71349  -2333496.96347  20664005.177    20664014.161
       234.000         195.000
  20469746.764      -75894.55649    162078.62347  20469746.469    20469754.415
       235.000         202.000
  22966866.717    -6086338.63749  -4363201.84045  22966867.059    22966876.953
       219.000         155.000
 01  9 24 20 56 30.0000000  0  6G 1G27G25G22G20G13
  20914499.545    -4583317.13849  -3554243.14647  20914499.613    20914507.748
       237.000         197.000
  24455534.975    -3785288.60349  -2928935.59345  24455534.356    24455551.796
       206.000         137.000
  23930675.772     5952664.24649   4638086.45445  23930677.117    23930690.411
       212.000         144.000
  20665247.870    -3016479.46349  -2328409.99947  20665247.127    20665256.503
       234.000         195.000
  20476869.799      -38462.98849    191246.02847  20476869.628    20476877.493
       235.000         202.000
  22952875.228    -6159864.41849  -4420494.54045  22952874.636    22952884.605
       216.000         155.000
 01  9 24 20 57  0.0000000  0  6G 1G27G25G22G20G13
  20908355.359    -4615604.96449  -3579402.46847  20908355.097    20908363.417
       237.000         197.000
  24441107.095    -3861108.52449  -2988015.85645  24441107.323    24441123.485
       203.000         137.000
  23946458.730     6035602.66749   4702713.57445  23946459.811    23946473.573
       211.000         143.000
  20666614.803    -3009295.81149  -2322812.33347  20666614.361    20666623.241
       234.000         195.000
  20484099.383        -471.43949    220849.77347  20484099.483    20484106.847
       236.000         202.000
  22938892.290    -6233344.85749  -4477751.92045  22938893.035    22938902.935
       218.000         155.000
 01  9 24 20 57 30.0000000  0  6G 1G27G25G22G20G13
  20902244.760    -4647716.47949  -3604424.40147  20902244.487    20902252.678
       237.000         198.000
  24426706.227    -3936784.72249  -3046984.10345  24426704.664    24426723.156
       197.000         136.000
  23962242.246     6118544.05349   4767343.01445  23962242.894    23962256.532
       210.000         144.000
  20668106.459    -3001457.15249  -2316704.28647  20668105.828    20668114.978
       234.000         194.000
  20491435.428       38079.16649    250889.15247  20491434.985    20491442.971
       235.000         202.000
  22924918.204    -6306779.07449  -4534973.27345  22924918.389    22924927.482
       218.000         155.000
 01  9 24 20 58  0.0000000  0  6G 1G27G25G22G20G13
  20896168.045    -4679649.69549  -3629307.40747  20896168.204    20896175.881
       237.000         198.000
  24412332.822    -4012315.73649  -3105839.16245  24412331.385    24412349.129
       204.000         136.000
  23978026.223     6201488.45449   4831974.80645  23978025.378    23978040.865
       209.000         142.000
  20669722.837    -2992962.76849  -2310085.27447  20669722.369    20669731.938
       234.000         195.000
  20498877.854       77189.27049    281364.50347  20498877.512    20498885.526
       235.000         201.000
  22910952.926    -6380165.54749  -4592157.43445  22910953.187    22910963.135
       219.000         156.000
 01  9 24 20 58 30.0000000  0  6G 1G27G25G22G20G13
  20890125.391    -4711404.13749  -3654051.10047  20890124.957    20890133.254
       236.000         198.000
  24397987.320    -4087701.71849  -3164581.25345  24397985.206    24398003.874
       206.000         138.000
  23993810.389     6284434.48549   4896607.85745  23993810.051    23993825.302
       208.000         142.000
  20671463.874    -2983813.39549  -2302955.88547  20671463.204    20671472.664
       235.000         194.000
  20506426.501      116857.32949    312274.62547  20506426.137    20506434.365
       235.000         202.000
  22896997.235    -6453503.98449  -4649304.16345  22896996.919    22897006.558
       220.000         157.000
 01  9 24 20 59  0.0000000  0  6G 1G27G25G22G20G13
  20884116.861    -4742979.24249  -3678655.05647  20884116.547    20884124.984
       237.000         198.000
  24383669.129    -4162943.04549  -3223210.58345  24383666.699    24383685.052
       203.000         137.000
  24009594.704     6367380.76649   4961241.11445  24009594.933    24009610.415
       210.000         141.000
  20673329.498    -2974009.73349  -2295316.67947  20673328.782    20673338.406
       235.000         194.000
  20514080.984      157081.63649    343618.18147  20514080.618    20514088.646
       235.000         201.000
  22883050.567    -6526793.99049  -4706413.16945  22883051.653    22883059.807
       219.000         157.000
 01  9 24 20 59 30.0000000  0  6G 1G27G25G22G20G13
  20878142.703    -4774373.32349  -3703117.95247  20878142.583    20878151.085
       237.000         198.000
  24369378.653    -4238038.55649  -3281726.29645  24369376.402    24369394.233
       203.000         136.000
  24025378.916     6450326.71649   5025874.11945  24025379.906    24025394.270
       210.000         141.000
  20675319.611    -2963551.51849  -2287167.41947  20675318.925    20675328.313
       234.000         194.000
  20521841.311      197862.13749    375395.14047  20521841.195    20521849.211
       236.000         201.000
  22869113.288    -6600034.17049  -4763483.35245  22869113.462    22869123.016
       221.000         157.000
 01  9 24 21  0  0.0000000  0  6G 1G27G25G22G20G13
  20872203.130    -4805585.81349  -3727439.35047  20872202.945    20872211.023
       237.000         198.000
  24355115.859    -4312988.40249  -3340128.48945  24355115.724    24355131.064
       205.000         137.000
  24041162.821     6533271.32749   5090506.06545  24041162.420    24041176.605
       210.000         140.000
  20677434.132    -2952439.59049  -2278508.77447  20677433.451    20677442.888
       234.000         195.000
  20529707.220      239197.48149    407604.43447  20529706.880    20529715.273
       235.000         201.000
  22855185.605    -6673224.18849  -4820514.45745  22855185.374    22855195.498
       219.000         156.000
 01  9 24 21  0 30.0000000  0  6G 1G27G25G22G20G13
  20866298.299    -4836615.91249  -3751618.62947  20866298.202    20866306.315
       237.000         198.000
  24340880.965    -4387792.53249  -3398417.09845  24340879.929    24340897.180
       205.000         139.000
  24056946.376     6616213.57349   5155136.16645  24056948.621    24056960.344
       209.000         140.000
  20679672.964    -2940674.58649  -2269341.23947  20679672.451    20679681.889
       234.000         194.000
  20537678.406      281086.24049    440244.96747  20537678.121    20537686.052
       235.000         201.000
  22841267.703    -6746363.36049  -4877505.92145  22841268.829    22841276.682
       220.000         157.000
 01  9 24 21  1  0.0000000  0  6G 1G27G25G22G20G13
  20860428.380    -4867462.58149  -3775654.97747  20860428.086    20860436.534
       237.000         198.000
  24326673.735    -4462450.63649  -3456591.93145  24326672.225    24326689.591
       204.000         138.000
  24072729.193     6699152.21149   5219763.49045  24072729.726    24072745.549
       207.000         140.000
  20682035.965    -2928257.05049  -2259665.23347  20682035.115    20682044.369
       234.000         194.000
  20545754.778      323527.60949    473316.10847  20545754.260    20545762.819
       235.000         201.000
  22827359.496    -6819451.13749  -4934457.33645  22827359.748    22827370.928
       220.000         157.000
 01  9 24 21  1 30.0000000  0  6G 1G27G25G22G20G13
  20854593.579    -4898124.61149  -3799547.45447  20854593.256    20854601.605
       238.000         199.000
  24312494.563    -4536962.34649  -3514652.71845  24312494.470    24312510.173
       207.000         138.000
  24088511.155     6782086.40149   5284387.31745  24088512.660    24088526.900
       209.000         140.000
  20684523.064    -2915187.32349  -2249481.03447  20684522.583    20684531.732
       235.000         194.000
  20553936.067      366520.49749    506816.98847  20553935.776    20553944.269
       235.000         201.000
  22813461.359    -6892486.28949  -4991367.77345  22813460.920    22813471.468
       220.000         157.000
 01  9 24 21  2  0.0000000  0  6G 1G27G25G22G20G13
  20848794.090    -4928601.21649  -3823295.43847  20848793.680    20848802.011
       237.000         199.000
  24298343.091    -4611327.69449  -3572599.42345  24298341.718    24298357.268
       207.000         140.000
  24104292.383     6865015.21349   5349006.99445  24104292.835    24104307.090
       206.000         139.000
  20687134.130    -2901466.03049  -2238789.11847  20687133.416    20687142.864
       234.000         194.000
  20562222.061      410063.42049    540746.47847  20562221.710    20562229.963
       235.000         201.000
  22799573.127    -6965468.49849  -5048236.94245  22799574.113    22799582.606
       221.000         158.000
 01  9 24 21  2 30.0000000  0  6G 1G27G25G22G20G13
  20843030.090    -4958891.30449  -3846898.08447  20843030.021    20843038.200
       238.000         199.000
  24284219.602    -4685546.14849  -3630431.65045  24284218.196    24284234.848
       208.000         139.000
  24120072.129     6947937.76549   5413621.76245  24120071.842    24120088.278
       207.000         140.000
  20689869.056    -2887093.72849  -2227589.91747  20689868.512    20689877.875
       234.000         194.000
  20570612.577      454155.56649    575103.92647  20570612.391    20570620.505
       236.000         201.000
  22785695.358    -7038396.94849  -5105064.21445  22785696.241    22785705.515
       220.000         159.000
 01  9 24 21  3  0.0000000  0  6G 1G27G25G22G20G13
  20837301.848    -4988993.53749  -3870354.35447  20837301.346    20837309.918
       238.000         199.000
  24270124.362    -4759617.12149  -3688149.00145  24270122.944    24270140.488
       205.000         140.000
  24135850.430     7030853.45949   5478231.16745  24135850.428    24135866.647
       206.000         138.000
  20692727.854    -2872070.63549  -2215883.60447  20692727.333    20692736.663
       234.000         194.000
  20579107.482      498796.12149    609888.70447  20579107.520    20579115.204
       236.000         201.000
  22771827.881    -7111270.20449  -5161848.49045  22771828.531    22771837.751
       220.000         159.000
 01  9 24 21  3 30.0000000  0  6G 1G27G25G22G20G13
  20831609.255    -5018908.27449  -3893664.52247  20831608.857    20831617.462
       238.000         199.000
  24256056.714    -4833542.03249  -3745752.52745  24256055.242    24256071.733
       203.000         141.000
  24151627.254     7113759.94849   5542833.41245  24151628.745    24151642.681
       207.000         140.000
  20695710.168    -2856398.70949  -2203671.70847  20695709.518    20695718.794
       234.000         194.000
  20587706.219      543982.55049    645098.84947  20587706.168    20587714.226
       236.000         201.000
  22757970.886    -7184089.06149  -5218590.36245  22757970.445    22757980.622
       221.000         160.000
 01  9 24 21  4  0.0000000  0  6G 1G27G25G22G20G13
  20825952.816    -5048632.79249  -3916826.46547  20825952.493    20825960.979
       237.000         199.000
  24242016.860    -4907318.96749  -3803240.69945  24242015.812    24242032.471
       206.000         139.000
  24167402.551     7196657.98749   5607429.08745  24167403.075    24167416.427
       208.000         139.000
  20698816.071    -2840076.95649  -2190953.44447  20698815.248    20698825.009
       234.000         194.000
  20596408.942      589715.20649    680734.61747  20596408.573    20596417.014
       236.000         201.000
  22744124.575    -7256850.87949  -5275287.80045  22744124.740    22744134.531
       219.000         160.000
 01  9 24 21  4 30.0000000  0  7G 1G27G 4G25G22G20G13
  20820332.281    -5078168.79649  -3939841.51547  20820332.194    20820340.245
       238.000         200.000
  24228005.208    -4980950.49049  -3860615.62345  24228004.561    24228018.718
       209.000         140.000
  24670776.498    -7393761.11349  -5746781.29844  24670776.467    24670791.809
       195.000         127.000
  24183175.499     7279544.03449   5672015.43245  24183177.435    24183192.206
       205.000         140.000
  20702044.982    -2823108.92849  -2177731.60247  20702044.733    20702053.726
       234.000         194.000
  20605214.798      635990.16749    716792.95847  20605214.197    20605222.845
       235.000         201.000
  22730288.944    -7329557.53749  -5331942.23945  22730289.558    22730298.566
       221.000         159.000
 01  9 24 21  5  0.0000000  0  7G 1G27G 4G25G22G20G13
  20814748.302    -5107512.77549  -3962706.93847  20814747.870    20814756.391
       237.000         200.000
  24214021.820    -5054433.76649  -3917875.03545  24214021.072    24214035.691
       205.000         141.000
  24670134.846    -7397133.69049  -5749409.27944  24670133.352    24670150.393
       199.000         125.000
  24198946.258     7362419.67149   5736593.61645  24198945.918    24198961.735
       206.000         139.000
  20705397.288    -2805492.65149  -2164004.61847  20705396.412    20705406.321
       233.000         194.000
  20614124.108      682808.68449    753274.85447  20614123.759    20614131.927
       236.000         201.000
  22716464.365    -7402205.61949  -5388551.04145  22716464.899    22716473.971
       221.000         160.000
 01  9 24 21  5 30.0000000  0  7G 1G27G 4G25G22G20G13
  20809201.249    -5136662.61649  -3985421.08547  20809201.050    20809209.189
       238.000         200.000
  24200066.337    -5127767.56149  -3975017.94945  24200065.733    24200081.479
       207.000         141.000
  24669586.672    -7400013.46949  -5751653.17744  24669585.931    24669600.501
       196.000         125.000
  24214715.157     7445285.17649   5801163.97945  24214715.062    24214731.715
       204.000         137.000
  20708872.933    -2787227.77049  -2149772.23847  20708872.506    20708881.186
       235.000         194.000
  20623136.792      730170.63049    790180.18847  20623136.720    20623144.958
       235.000         201.000
  22702651.362    -7474793.53949  -5445112.94645  22702652.381    22702661.447
       222.000         160.000
 01  9 24 21  6  0.0000000  0  7G 1G27G 4G25G22G20G13
  20803691.272    -5165617.57849  -4007983.37647  20803691.014    20803699.459
       238.000         200.000
  24186139.574    -5200952.12249  -4032044.62745  24186139.324    24186154.520
       207.000         141.000
  24669132.034    -7402401.50449  -5753513.95244  24669131.775    24669147.451
       196.000         125.000
  24230481.807     7528139.30149   5865725.39345  24230482.466    24230497.057
       205.000         138.000
  20712471.831    -2768315.45549  -2135035.35847  20712471.005    20712481.032
       233.000         194.000
  20632252.646      778074.45549    827507.77647  20632252.569    20632260.877
       236.000         201.000
  22688849.858    -7547320.63849  -5501627.47245  22688850.026    22688860.265
       221.000         161.000
 01  9 24 21  6 30.0000000  0  7G 1G27G 4G25G22G20G13
  20798218.471    -5194377.55449  -4030393.72447  20798218.003    20798226.478
       237.000         200.000
  24172241.146    -5273988.02349  -4088955.45145  24172240.316    24172256.582
       207.000         142.000
  24668770.926    -7404299.08548  -5754992.56244  24668769.236    24668783.942
       194.000         125.000
  24246246.085     7610980.49449   5930276.79045  24246246.543    24246261.456
       201.000         135.000
  20716193.589    -2748757.36849  -2119795.27347  20716192.988    20716202.347
       234.000         194.000
  20641471.156      826517.79749    865255.76547  20641470.707    20641479.297
       235.000         200.000
  22675060.014    -7619786.69549  -5558094.41745  22675060.053    22675069.730
       220.000         161.000
 01  9 24 21  7  0.0000000  0  7G 1G27G 4G25G22G20G13
  20792782.948    -5222941.19649  -4052651.09147  20792782.706    20792790.854
       238.000         200.000
  24158370.994    -5346874.86949  -4145750.14145  24158370.658    24158386.038
       205.000         142.000
  24668503.059    -7405706.70749  -5756089.40444  24668505.539    24668518.192
       202.000         123.000
  24262007.597     7693808.03849   5994817.50545  24262008.311    24262023.991
       206.000         137.000
  20720038.126    -2728554.14849  -2104052.50047  20720037.527    20720047.059
       234.000         194.000
  20650792.190      875499.81249    903423.48947  20650792.364    20650800.177
       236.000         200.000
  22661281.825    -7692190.95349  -5614513.21845  22661280.932    22661291.093
       220.000         161.000
 01  9 24 21  7 30.0000000  0  7G 1G27G 4G25G22G20G13
  20787384.968    -5251307.63049  -4074754.78647  20787384.973    20787393.241
       238.000         200.000
  24144529.061    -5419612.66249  -4202428.65545  24144529.150    24144543.182
       208.000         143.000
  24668328.563    -7406625.29949  -5756805.13144  24668327.582    24668344.201
       200.000         125.000
  24277766.275     7776620.62249   6059346.56745  24277766.482    24277784.237
       202.000         134.000
  20724005.277    -2707706.71149  -2087807.72947  20724004.830    20724013.861
       234.000         194.000
  20660215.433      925018.79749    942009.63547  20660215.231    20660223.589
       236.000         200.000
  22647515.637    -7764532.68249  -5670883.25745  22647515.961    22647525.740
       220.000         161.000
 01  9 24 21  8  0.0000000  0  7G 1G27G 4G25G22G20G13
  20782024.730    -5279475.90149  -4096704.07247  20782024.564    20782032.999
       238.000         200.000
  24130715.748    -5492201.51549  -4258991.20745  24130715.523    24130729.619
       206.000         142.000
  24668246.665    -7407055.57849  -5757140.36344  24668245.829    24668262.771
       199.000         127.000
  24293522.368     7859417.51049   6123863.43045  24293524.953    24293538.138
       202.000         135.000
  20728094.794    -2686216.24649  -2071061.91247  20728094.179    20728103.230
       235.000         194.000
  20669740.499      975073.11949    981012.92447  20669740.476    20669748.761
       236.000         200.000
  22633761.352    -7836811.09349  -5727203.98645  22633762.083    22633769.470
       220.000         161.000
 01  9 24 21  8 30.0000000  0  7G 1G27G 4G25G22G20G13
  20776702.280    -5307445.41049  -4118498.47447  20776702.078    20776710.191
       238.000         200.000
  24116930.665    -5564641.71149  -4315437.84445  24116929.537    24116945.745
       203.000         143.000
  24668257.392    -7406999.04249  -5757096.30144  24668258.030    24668272.256
       202.000         128.000
  24309275.132     7942197.47649   6188367.09945  24309275.689    24309292.162
       201.000         135.000
  20732306.385    -2664084.18249  -2053816.13147  20732305.544    20732315.435
       234.000         194.000
  20679367.102     1025660.96049   1020431.94047  20679366.962    20679375.549
       235.000         200.000
  22620019.383    -7909025.65349  -5783474.95145  22620018.937    22620027.639
       221.000         161.000
 01  9 24 21  9  0.0000000  0  7G 1G27G 4G25G22G20G13
  20771418.036    -5335214.37749  -4140136.60947  20771417.787    20771426.183
       238.000         200.000
  24103173.982    -5636932.30449  -4371767.91045  24103174.070    24103189.650
       208.000         144.000
  24668360.838    -7406455.20049  -5756672.53344  24668361.729    24668376.416
       199.000         128.000
  24325024.481     8024960.32049   6252857.42145  24325026.125    24325039.521
       203.000         134.000
  20736640.081    -2641310.47749  -2036070.38647  20736639.553    20736648.584
       234.000         194.000
  20689095.110     1076781.73349   1060266.22947  20689095.078    20689103.363
       236.000         199.000
  22606289.684    -7981174.81249  -5839694.97045  22606289.461    22606299.059
       221.000         162.000
 01  9 24 21  9 30.0000000  0  7G 1G27G 4G25G22G20G13
  20766172.040    -5362782.14249  -4161617.96347  20766171.868    20766180.076
       238.000         201.000
  24089445.691    -5709073.49849  -4427981.61845  24089443.755    24089460.201
       205.000         142.000
  24668556.958    -7405425.27949  -5755869.95844  24668557.523    24668572.624
       201.000         130.000
  24340770.316     8107704.91449   6317333.54245  24340768.676    24340787.919
       197.000         133.000
  20741095.603    -2617896.65549  -2017825.84947  20741095.219    20741104.063
       233.000         194.000
  20698924.184     1128433.53349   1100514.30047  20698923.953    20698932.345
       235.000         199.000
  22592572.665    -8053258.05149  -5895863.59945  22592573.297    22592582.185
       222.000         162.000
 01  9 24 21 10  0.0000000  0  7G 1G27G 4G25G22G20G13
  20760964.708    -5390146.85249  -4182941.09347  20760964.443    20760972.817
       238.000         201.000
  24075745.968    -5781064.44949  -4484078.25245  24075744.979    24075761.214
       205.000         142.000
  24668845.319    -7403909.68449  -5754688.95144  24668847.212    24668859.386
       205.000         131.000
  24356512.836     8190431.04649   6381795.19345  24356516.894    24356528.060
       203.000         136.000
  20745672.843    -2593842.99849  -1999082.73547  20745672.330    20745681.535
       234.000         193.000
  20708854.189     1180615.93749   1141175.83647  20708854.159    20708862.680
       236.000         199.000
  22578868.442    -8125273.59449  -5951979.49745  22578868.225    22578877.679
       221.000         162.000
 01  9 24 21 10 30.0000000  0  7G 1G27G 4G25G22G20G13
  20755796.058    -5417308.47949  -4204105.97547  20755796.051    20755804.098
       239.000         201.000
  24062074.779    -5852906.07949  -4540058.51045  24062074.682    24062090.295
       207.000         144.000
  24669226.062    -7401910.08849  -5753130.86245  24669226.180    24669239.818
       207.000         134.000
  24372251.393     8273137.25249   6446241.41645  24372252.221    24372268.212
       204.000         133.000
  20750371.516    -2569151.57549  -1979842.66747  20750370.707    20750380.149
       234.000         194.000
  20718884.662     1233326.01949   1182248.54047  20718884.315    20718892.835
       236.000         199.000
  22565177.102    -8197221.83149  -6008042.93146  22565176.553    22565186.831
       221.000         163.000
 01  9 24 21 11  0.0000000  0  7G 1G27G 4G25G22G20G13
  20750666.292    -5444265.60449  -4225111.50947  20750666.123    20750674.156
       238.000         201.000
  24048432.180    -5924598.03649  -4595922.14845  24048430.318    24048445.883
       203.000         143.000
  24669698.717    -7399426.98849  -5751196.01545  24669699.852    24669714.419
       205.000         135.000
  24387986.472     8355822.80249   6510671.49145  24387987.218    24388003.756
       204.000         136.000
  20755191.321    -2543823.11249  -1960106.20247  20755191.010    20755200.050
       234.000         194.000
  20729015.293     1286562.53249   1223731.45447  20729015.081    20729023.602
       235.000         199.000
  22551498.702    -8269101.62049  -6064053.03246  22551498.882    22551507.039
       222.000         163.000
 01  9 24 21 11 30.0000000  0  7G 1G27G 4G25G22G20G13
  20745575.598    -5471017.28149  -4245956.94947  20745575.077    20745583.793
       239.000         201.000
  24034818.105    -5996140.01849  -4651668.94645  24034817.612    24034832.683
       211.000         142.000
  24670263.260    -7396461.30749  -5748885.14445  24670263.822    24670277.580
       207.000         135.000
  24403716.729     8438487.04749   6575084.96244  24403716.099    24403731.714
       203.000         130.000
  20760132.229    -2517858.86849  -1939874.33347  20760131.590    20760141.314
       234.000         194.000
  20739245.859     1340324.17949   1265623.55547  20739245.919    20739254.631
       236.000         199.000
  22537833.482    -8340911.97049  -6120009.04146  22537833.832    22537843.260
       222.000         163.000
 01  9 24 21 12  0.0000000  0  7G 1G27G 4G25G22G20G13
  20740524.297    -5497561.93849  -4266641.07847  20740523.964    20740532.304
       239.000         201.000
  24021232.747    -6067531.67449  -4707298.61045  24021231.587    24021247.870
       207.000         145.000
  24670919.622    -7393013.39149  -5746198.49645  24670919.498    24670932.685
       205.000         135.000
  24419443.322     8521129.21749   6639481.30445  24419445.729    24419461.521
       203.000         137.000
  20765193.878    -2491259.41949  -1919147.49247  20765193.616    20765202.746
       234.000         193.000
  20749576.183     1394609.65049   1307923.83747  20749576.077    20749584.520
       236.000         199.000
  22524181.921    -8412651.34349  -6175909.73446  22524181.823    22524190.850
       224.000         164.000
 01  9 24 21 12 30.0000000  0  7G 1G27G 4G25G22G20G13
  20735512.627    -5523898.23549  -4287162.85147  20735512.483    20735520.514
       238.000         201.000
  24007675.671    -6138772.79049  -4762810.91545  24007674.553    24007688.874
       209.000         144.000
  24671667.378    -7389083.93349  -5743136.58545  24671667.510    24671682.168
       204.000         136.000
  24435165.180     8603748.89249   6703860.00245  24435167.236    24435180.271
       207.000         133.000
  20770376.281    -2464025.75249  -1897926.47047  20770375.618    20770384.610
       234.000         193.000
  20760005.833     1449417.63649   1350631.26647  20760005.887    20760014.347
       236.000         199.000
  22510543.970    -8484318.74449  -6231754.35946  22510544.205    22510553.281
       223.000         164.000
 01  9 24 21 13  0.0000000  0  7G 1G27G 4G25G22G20G13
  20730540.773    -5550025.59649  -4307521.81647  20730540.605    20730548.621
       237.000         201.000
  23994147.627    -6209863.48149  -4818206.09645  23994146.988    23994161.449
       207.000         144.000
  24672506.446    -7384674.19449  -5739700.48145  24672506.029    24672520.215
       204.000         135.000
  24450883.016     8686344.90949   6768220.40245  24450882.117    24450900.354
       197.000         133.000
  20775679.080    -2436159.42849  -1876212.46447  20775678.617    20775688.265
       234.000         193.000
  20770534.555     1504746.01349   1393744.20047  20770534.688    20770543.257
       236.000         199.000
  22496919.923    -8555913.47149  -6287542.35046  22496919.777    22496929.280
       223.000         164.000
 01  9 24 21 13 30.0000000  0  7G 1G27G 4G25G22G20G13
  20725608.672    -5575943.86949  -4327717.85647  20725608.330    20725616.665
       238.000         201.000
  23980647.778    -6280804.68649  -4873484.71845  23980645.954    23980661.783
       207.000         145.000
  24673436.718    -7379786.16049  -5735891.62945  24673437.934    24673450.722
       206.000         135.000
  24466595.794     8768915.69549   6832560.99745  24466598.976    24466611.581
       207.000         134.000
  20781101.901    -2407662.46249  -1854007.04747  20781101.533    20781110.651
       233.000         193.000
  20781161.865     1560592.34949   1437260.73547  20781161.791    20781170.209
       235.000         199.000
  22483309.642    -8627435.68449  -6343273.86146  22483309.769    22483318.297
       222.000         164.000
 01  9 24 21 14  0.0000000  0  7G 1G27G 4G25G22G20G13
  20720716.744    -5601650.83749  -4347749.24547  20720716.526    20720724.891
       239.000         201.000
  23967176.757    -6351595.00549  -4928645.75345  23967176.369    23967191.023
       212.000         148.000
  24674458.088    -7374419.74249  -5731710.03545  24674457.708    24674471.281
       208.000         134.000
  24482304.316     8851461.79649   6896882.48445  24482304.713    24482321.330
       203.000         133.000
  20786644.653    -2378535.10149  -1831310.42947  20786644.036    20786653.209
       234.000         193.000
  20791887.565     1616956.14149   1481180.47647  20791887.286    20791896.130
       236.000         199.000
  22469713.576    -8698883.38949  -6398947.29546  22469714.270    22469722.457
       222.000         164.000
 01  9 24 21 14 30.0000000  0  7G 1G27G 4G25G22G20G13
  20715865.199    -5627145.95749  -4367615.55647  20715865.105    20715873.100
       239.000         201.000
  23953734.499    -6422235.19449  -4983689.88945  23953733.765    23953747.059
       204.000         145.000
  24675570.166    -7368576.25649  -5727156.72945  24675570.868    24675583.502
       204.000         133.000
  24498007.655     8933981.43749   6961183.28245  24498009.221    24498025.336
       203.000         136.000
  20792307.052    -2348779.16549  -1808124.00547  20792306.246    20792316.170
       233.000         193.000
  20802711.332     1673835.19749   1525501.71347  20802711.143    20802720.263
       236.000         198.000
  22456131.610    -8770255.99849  -6454562.22146  22456131.334    22456140.204
       222.000         164.000
 01  9 24 21 15  0.0000000  0  7G 1G27G 4G25G22G20G13
  20711054.460    -5652426.41149  -4387314.59847  20711054.305    20711062.475
       238.000         201.000
  23940320.372    -6492723.67149  -5038615.72445  23940319.492    23940335.463
       209.000         147.000
  24676772.933    -7362255.10349  -5722231.20845  24676772.736    24676787.374
       202.000         132.000
  24513705.756     9016475.47249   7025464.15244  24513707.164    24513719.574
       202.000         131.000
  20798089.045    -2318394.44249  -1784447.61447  20798088.913    20798097.743
       234.000         193.000
  20813633.096     1731229.10349   1570224.13947  20813633.002    20813641.658
       235.000         198.000
  22442564.595    -8841551.02649  -6510116.68046  22442565.695    22442574.984
       223.000         165.000
 01  9 24 21 15 30.0000000  0  6G 1G27G25G22G20G13
  20706284.972    -5677490.27349  -4406844.86347  20706284.907    20706292.816
       239.000         201.000
  23926935.849    -6563059.39149  -5093422.56645  23926935.497    23926950.321
       207.000         149.000
  24529399.260     9098944.37749   7089725.44345  24529398.301    24529415.046
       202.000         136.000
  20803990.624    -2287381.31249  -1760281.55947  20803990.147    20803999.635
       234.000         193.000
  20824652.779     1789137.25249   1615347.27647  20824652.653    20824661.240
       236.000         198.000
  22429012.615    -8912766.70849  -6565609.32046  22429012.318    22429021.082
       223.000         165.000
 01  9 24 21 16  0.0000000  0  6G 1G27G25G22G20G13
  20701557.073    -5702335.60149  -4426204.84547  20701556.940    20701565.100
       238.000         202.000
  23913580.339    -6633241.51249  -5148109.72445  23913578.544    23913593.177
       208.000         144.000
  24545087.847     9181388.19249   7153967.16145  24545090.457    24545102.978
       208.000         132.000
  20810011.768    -2255740.36249  -1735626.30047  20810011.269    20810020.893
       234.000         193.000
  20835770.054     1847558.86149   1660870.50647  20835770.007    20835778.758
       235.000         197.000
  22415476.160    -8983900.96849  -6621038.52746  22415476.509    22415484.742
       223.000         165.000
 01  9 24 21 16 30.0000000  0  6G 1G27G25G22G20G13
  20696870.093    -5726965.86949  -4445397.24747  20696869.955    20696878.090
       238.000         201.000
  23900253.587    -6703274.61449  -5202680.76845  23900254.628    23900268.907
       211.000         148.000
  24560771.057     9263801.52749   7218185.23245  24560770.562    24560789.699
       201.000         134.000
  20816151.220    -2223477.57449  -1710486.49547  20816150.809    20816160.206
       233.000         193.000
  20846983.864     1906487.53249   1706788.85447  20846983.923    20846992.754
       236.000         198.000
  22401954.417    -9054957.63849  -6676407.28146  22401954.819    22401963.674
       223.000         165.000
 01  9 24 21 17  0.0000000  0  6G 1G27G25G22G20G13
  20692224.392    -5751379.03649  -4464420.47647  20692224.251    20692232.287
       238.000         202.000
  23886955.071    -6773157.69549  -5257134.84845  23886952.897    23886969.251
       206.000         148.000
  24576448.079     9346184.77849   7282379.67945  24576450.367    24576461.458
       207.000         132.000
  20822408.901    -2190593.24049  -1684862.35647  20822408.107    20822417.626
       233.000         193.000
  20858294.053     1965922.42449   1753101.65847  20858293.894    20858302.941
       235.000         197.000
  22388447.847    -9125934.83649  -6731714.10246  22388448.420    22388457.691
       222.000         165.000
 01  9 24 21 17 30.0000000  0  6G 1G27G25G22G20G13
  20687620.467    -5775572.80849  -4483272.75447  20687620.458    20687628.378
       239.000         202.000
  23873685.150    -6842889.38349  -5311471.00845  23873684.052    23873698.584
       211.000         147.000
  24592119.790     9428538.44449   7346551.26445  24592118.181    24592138.352
       199.000         133.000
  20828784.800    -2157087.69749  -1658754.17447  20828784.483    20828793.776
       234.000         193.000
  20869700.364     2025862.69449   1799808.26347  20869700.097    20869709.651
       235.000         197.000
  22374956.833    -9196830.00649  -6786956.99946  22374956.320    22374965.731
       223.000         165.000
 01  9 24 21 18  0.0000000  0  6G 1G27G25G22G20G13
  20683058.484    -5799546.54149  -4501953.57347  20683057.827    20683066.269
       238.000         202.000
  23860444.421    -6912470.09049  -5365689.56445  23860443.778    23860457.193
       207.000         148.000
  24607785.202     9510861.10349   7410698.51645  24607785.545    24607802.169
       208.000         134.000
  20835278.659    -2122962.61049  -1632163.22747  20835277.687    20835287.587
       233.000         192.000
  20881202.443     2086306.32549   1846907.09747  20881202.264    20881211.022
       235.000         197.000
  22361481.550    -9267642.72549  -6842135.64746  22361481.039    22361491.039
       222.000         165.000
 01  9 24 21 18 30.0000000  0  6G 1G27G25G22G20G13
  20678538.646    -5823298.34249  -4520461.46047  20678538.306    20678546.576
       238.000         202.000
  23847232.156    -6981899.13849  -5419789.86745  23847232.225    23847246.866
       210.000         148.000
  24623444.620     9593153.09449   7474821.99944  24623444.694    24623458.534
       204.000         129.000
  20841890.175    -2088218.94249  -1605090.27247  20841889.700    20841899.546
       233.000         192.000
  20892800.170     2147252.30349   1894397.37347  20892800.245    20892809.330
       235.000         197.000
  22348022.219    -9338371.18249  -6897248.64046  22348022.336    22348032.370
       224.000         166.000
 01  9 24 21 19  0.0000000  0  6G 1G27G25G22G20G13
  20674061.136    -5846827.58249  -4538795.92447  20674060.995    20674069.267
       238.000         202.000
  23834049.026    -7051177.17449  -5473772.55945  23834049.271    23834061.972
       211.000         148.000
  24639098.452     9675413.01549   7538920.47545  24639101.415    24639116.662
       208.000         133.000
  20848619.021    -2052858.71749  -1577536.87647  20848618.422    20848628.069
       233.000         192.000
  20904493.030     2208698.15049   1942277.16147  20904493.230    20904501.456
       236.000         197.000
  22334579.117    -9409014.92149  -6952295.62246  22334579.402    22334588.176
       224.000         167.000
 01  9 24 21 19 30.0000000  0  6G 1G27G25G22G20G13
  20669626.062    -5870133.98649  -4556956.75147  20669625.716    20669633.798
       238.000         202.000
  23820894.439    -7120304.84849  -5527638.10345  23820893.239    23820907.166
       209.000         147.000
  24654745.992     9757639.31249   7602992.67944  24654746.654    24654761.394
       209.000         131.000
  20855464.740    -2016884.34849  -1549504.93547  20855464.362    20855473.535
       233.000         192.000
  20916280.503     2270641.16249   1990544.34647  20916280.350    20916289.106
       236.000         197.000
  22321152.197    -9479573.92349  -7007276.58046  22321152.358    22321161.726
       224.000         168.000
 01  9 24 21 20  0.0000000  0  6G 1G27G25G22G20G13
  20665233.806    -5893215.29249  -4574942.17647  20665233.846    20665241.534
       238.000         202.000
  23807768.287    -7189281.06449  -5581385.55845  23807767.516    23807782.128
       213.000         150.000
  24670387.276     9839832.92249   7667039.54544  24670386.677    24670404.778
       202.000         131.000
  20862427.239    -1980296.16749  -1520994.69147  20862426.383    20862436.176
       233.000         191.000
  20928162.449     2333080.58849   2039198.34747  20928162.355    20928171.200
       236.000         197.000
  22307741.861    -9550045.74549  -7062189.61146  22307741.712    22307751.386
       224.000         168.000
 01  9 24 21 20 30.0000000  0  6G 1G27G25G22G20G13
  20660884.741    -5916069.76849  -4592750.84847  20660884.307    20660892.649
       238.000         202.000
  23794671.469    -7258105.21849  -5635014.57845  23794670.692    23794684.338
       209.000         150.000
  24686021.558     9921993.35349   7731060.43144  24686021.873    24686039.622
       206.000         126.000
  20869506.394    -1943095.08849  -1492006.87047  20869506.192    20869515.062
       233.000         191.000
  20940138.531     2396015.09949   2088238.12847  20940138.464    20940147.362
       235.000         196.000
  22294348.241    -9620429.19449  -7117033.76946  22294348.544    22294357.354
       223.000         167.000
 01  9 24 21 21  0.0000000  0  6G 1G27G25G22G20G13
  20656579.063    -5938696.09449  -4610381.74747  20656578.898    20656586.979
       238.000         202.000
  23781603.202    -7326777.22249  -5688525.03345  23781602.259    23781616.288
       210.000         149.000
  24701649.878    10004119.78549   7795054.94844  24701649.844    24701667.408
       196.000         129.000
  20876701.841    -1905282.74849  -1462542.73647  20876700.971    20876710.953
       232.000         191.000
  20952208.509     2459442.88349   2137662.27347  20952208.288    20952217.834
       235.000         196.000
  22280971.795    -9690722.55849  -7171807.73346  22280971.594    22280980.566
       223.000         167.000
 01  9 24 21 21 30.0000000  0  6G 1G27G25G22G20G13
  20652316.853    -5961094.14149  -4627834.75447  20652316.719    20652324.898
       239.000         202.000
  23768564.159    -7395298.01449  -5741917.66245  23768564.285    23768577.940
       211.000         151.000
  24717271.606    10086211.13449   7859021.96344  24717271.729    24717282.889
       202.000         127.000
  20884013.132    -1866861.60049  -1432604.20947  20884012.969    20884021.892
       232.000         191.000
  20964371.830     2523361.16749   2187468.62747  20964371.797    20964380.533
       236.000         196.000
  22267612.337    -9760926.03149  -7226511.66546  22267612.273    22267620.532
       223.000         167.000
 01  9 24 21 22  0.0000000  0  6G 1G27G25G22G20G13
  20648098.250    -5983263.05749  -4645109.22247  20648098.129    20648105.946
       239.000         202.000
  23755553.766    -7463667.87549  -5795192.66545  23755553.652    23755566.863
       210.000         150.000
  24732886.221    10168265.88749   7922960.70144  24732885.610    24732904.737
       196.000         124.000
  20891439.918    -1827833.67849  -1402192.87147  20891439.397    20891448.739
       232.000         190.000
  20976628.075     2587767.66949   2237655.41347  20976628.003    20976636.998
       235.000         196.000
  22254270.331    -9831038.61049  -7281144.73746  22254271.568    22254279.661
       225.000         168.000
 01  9 24 21 22 30.0000000  0  6G 1G27G25G22G20G13
  20643923.771    -6005200.16049  -4662203.05647  20643923.489    20643931.950
       240.000         202.000
  23742572.150    -7531885.41049  -5848348.95845  23742571.620    23742585.435
       211.000         150.000
  24748494.006    10250285.20549   7986871.56344  24748495.533    24748511.003
       205.000         130.000
  20898982.173    -1788199.26749  -1371308.94747  20898981.366    20898990.881
       232.000         190.000
  20988977.077     2652661.67149   2288222.06747  20988977.054    20988985.833
       235.000         195.000
  22240946.140    -9901057.74549  -7335705.01446  22240945.734    22240955.521
       226.000         169.000
 01  9 24 21 23  0.0000000  0  6G 1G27G25G22G20G13
  20639793.399    -6026905.18549  -4679116.05447  20639793.189    20639801.299
       240.000         202.000
  23729619.459    -7599951.32749  -5901387.11345  23729618.367    23729633.002
       209.000         151.000
  24764094.650    10332267.83449   8050753.98844  24764094.034    24764109.622
       201.000         120.000
  20906639.238    -1747960.82149  -1339954.34347  20906639.235    20906648.065
       232.000         190.000
  21001418.321     2718040.61949   2339166.59447  21001418.081    21001427.359
       235.000         195.000
  22227639.796    -9970983.14049  -7390192.25246  22227639.116    22227649.104
       225.000         169.000
 01  9 24 21 23 30.0000000  0  6G 1G27G25G22G20G13
  20635707.597    -6048376.38949  -4695846.84847  20635707.587    20635715.653
       240.000         202.000
  23716695.584    -7667865.19049  -5954306.79245  23716695.184    23716707.765
       210.000         150.000
  24779688.974    10414213.51049   8114607.63444  24779690.527    24779706.897
       197.000         129.000
  20914411.127    -1707119.49649  -1308129.96647  20914410.815    20914419.945
       231.000         190.000
  21013951.594     2783902.91949   2390487.74947  21013951.174    21013960.545
       235.000         195.000
  22214351.452   -10040813.07049  -7444605.09346  22214351.834    22214360.626
       225.000         170.000
 01  9 24 21 24  0.0000000  0  6G 1G27G25G22G20G13
  20631666.126    -6069614.47649  -4712395.99447  20631665.905    20631674.149
       240.000         202.000
  23703800.477    -7735628.96049  -6007109.56445  23703799.881    23703814.032
       213.000         151.000
  24795275.064    10496119.95049   8178430.63244  24795277.427    24795288.381
       204.000         122.000
  20922297.040    -1665678.72249  -1275838.49147  20922296.945    20922305.988
       232.000         190.000
  21026576.182     2850245.13249   2442182.87747  21026576.094    21026585.106
       235.000         195.000
  22201081.168   -10110548.43749  -7498944.24746  22201081.401    22201090.627
       226.000         169.000
 01  9 24 21 24 30.0000000  0  5G 1G27G22G20G13
  20627669.942    -6090614.74849  -4728759.82947  20627669.701    20627678.141
       240.000         202.000
  23690934.501    -7803239.18149  -6059792.68045  23690934.168    23690948.276
       212.000         151.000
  20930297.458    -1623636.85749  -1243078.63247  20930296.967    20930306.327
       232.000         190.000
  21039292.325     2917068.33949   2494252.80147  21039291.821    21039301.699
       235.000         195.000
  22187829.833   -10180184.55149  -7553206.07246  22187829.825    22187838.360
       227.000         170.000
 01  9 24 21 25  0.0000000  0  5G 1G27G22G20G13
  20623721.095    -6111366.04349  -4744929.65547  20623720.835    20623729.136
       240.000         202.000
  23678099.801    -7870685.86549  -6112348.37845  23678099.573    23678111.617
       210.000         150.000
  20938413.632    -1580985.79049  -1209844.05847  20938412.858    20938423.158
       232.000         190.000
  21052101.435     2984380.27649   2546703.55347  21052101.294    21052110.760
       236.000         194.000
  22174599.540   -10249710.32149  -7607381.90646  22174600.374    22174607.853
       226.000         170.000
 01  9 24 21 25 30.0000000  0  5G 1G27G22G20G13
  20619816.568    -6131884.55649  -4760918.09647  20619816.518    20619824.418
       240.000         202.000
  23665292.631    -7937986.42349  -6164790.19145  23665293.278    23665306.333
       212.000         150.000
  20946642.258    -1537744.60249  -1176149.66347  20946641.892    20946651.048
       232.000         190.000
  21064999.936     3052161.68349   2599520.13547  21064999.624    21065009.082
       235.000         194.000
  22161387.028   -10319142.09449  -7661484.49546  22161388.190    22161395.289
       227.000         171.000
 01  9 24 21 26  0.0000000  0  5G 1G27G22G20G13
  20615956.935    -6152166.95049  -4776722.54847  20615956.960    20615964.730
       240.000         202.000
  23652513.871    -8005138.72149  -6217116.50645  23652513.785    23652526.353
       212.000         151.000
  20954983.228    -1493913.09649  -1141995.27147  20954982.747    20954991.879
       232.000         189.000
  21077987.711     3120412.63349   2652702.58147  21077987.503    21077996.722
       235.000         194.000
  22148193.101   -10388476.22549  -7715510.99146  22148193.185    22148201.616
       226.000         171.000
 01  9 24 21 26 30.0000000  0  5G 1G27G22G20G13
  20612142.917    -6172209.96249  -4792340.46747  20612142.551    20612150.725
       240.000         202.000
  23639763.531    -8072140.77249  -6269325.72345  23639763.432    23639776.580
       213.000         150.000
  20963436.481    -1449490.98149  -1107380.66147  20963435.815    20963445.418
       232.000         190.000
  21091064.891     3189133.01849   2706250.82447  21091064.450    21091073.960
       234.000         194.000
  22135018.311   -10457709.64249  -7769459.01246  22135018.536    22135027.189
       226.000         170.000
 01  9 24 21 27  0.0000000  0  5G 1G27G22G20G13
  20608374.578    -6192012.47949  -4807770.99047  20608374.279    20608382.492
       240.000         202.000
  23627042.047    -8138992.51649  -6321417.81245  23627041.380    23627054.147
       213.000         151.000
  20972001.863    -1404479.99849  -1072307.20747  20972001.096    20972010.581
       232.000         189.000
  21104230.887     3258320.93649   2760163.36247  21104230.855    21104240.578
       235.000         193.000
  22121862.928   -10526841.12449  -7823327.60746  22121862.563    22121870.690
       226.000         171.000
 01  9 24 21 27 30.0000000  0  5G 1G27G22G20G13
  20604652.334    -6211572.90049  -4823012.87047  20604652.056    20604660.346
       240.000         202.000
  23614349.281    -8205693.77049  -6373392.62445  23614349.246    23614363.412
       214.000         152.000
  20980678.847    -1358881.72949  -1036776.11347  20980678.469    20980688.186
       232.000         188.000
  21117485.647     3327974.55049   2814438.79747  21117485.639    21117494.988
       235.000         194.000
  22108727.267   -10595869.12949  -7877115.56146  22108727.337    22108735.403
       227.000         171.000
 01  9 24 21 28  0.0000000  0  5G 1G27G22G20G13
  20600976.519    -6230889.35349  -4838064.64547  20600976.061    20600984.626
       240.000         202.000
  23601685.067    -8272243.99149  -6425249.75945  23601684.274    23601697.748
       214.000         151.000
  20989467.527    -1312697.48249  -1000788.42747  20989467.364    20989476.452
       232.000         189.000
  21130828.693     3398092.26649   2869075.85947  21130828.712    21130838.096
       234.000         194.000
  22095611.630   -10664791.77349  -7930821.43046  22095612.436    22095620.563
       227.000         172.000
 01  9 24 21 28 30.0000000  0  5G 1G27G22G20G13
  20597347.385    -6249960.51049  -4852925.27847  20597347.163    20597355.161
       240.000         202.000
  23589049.698    -8338642.97349  -6476989.07645  23589049.491    23589062.630
       215.000         152.000
  20998367.245    -1265929.01749   -964345.49247  20998367.033    20998376.662
       231.000         189.000
  21144259.659     3468672.17149   2924073.06647  21144259.564    21144268.828
       234.000         193.000
  22082516.302   -10733607.87949  -7984444.26446  22082516.242    22082524.943
       228.000         172.000
 01  9 24 21 29  0.0000000  0  5G 1G27G22G20G13
  20593765.256    -6268784.64749  -4867593.42947  20593765.273    20593772.984
       240.000         202.000
  23576443.053    -8404890.27049  -6528610.19245  23576442.049    23576456.372
       213.000         153.000
  21007377.962    -1218577.75849   -927448.44547  21007377.895    21007386.648
       232.000         189.000
  21157778.368     3539712.67349   2979429.18847  21157778.345    21157787.639
       235.000         192.000
  22069441.614   -10802315.50049  -8037982.58246  22069441.633    22069449.885
       228.000         172.000
 01  9 24 21 29 30.0000000  0  5G 1G27G22G20G13
  20590230.350    -6287360.80049  -4882068.35047  20590230.270    20590238.455
       240.000         202.000
  23563865.194    -8470986.24449  -6580113.42645  23563865.335    23563877.700
       214.000         153.000
  21016499.131    -1170645.86849   -890098.94847  21016498.091    21016508.252
       231.000         188.000
  21171384.213     3611211.10949   3035142.13047  21171383.886    21171393.420
       233.000         192.000
  22056387.782   -10870913.70249  -8091435.64746  22056387.591    22056396.921
       227.000         172.000
 01  9 24 21 30  0.0000000  0  5G 1G27G22G20G13
  20586742.835    -6305687.75349  -4896349.08247  20586742.515    20586750.781
       240.000         202.000
  23551316.251    -8536930.87849  -6631498.72945  23551316.383    23551328.018
       214.000         153.000
  21025730.352    -1122135.47749   -852298.67647  21025729.600    21025739.734
       231.000         188.000
  21185076.704     3683165.50649   3091210.36047  21185076.487    21185086.178
       234.000         192.000
  22043354.932   -10939401.23949  -8144802.45946  22043355.283    22043363.804
       227.000         173.000
 01  9 24 21 30 30.0000000  0  5G 1G27G22G20G13
  20583302.993    -6323764.13849  -4910434.56947  20583302.666    20583310.614
       239.000         202.000
  23538796.075    -8602724.07849  -6682765.98945  23538796.061    23538808.997
       215.000         154.000
  21035071.313    -1073048.44149   -814049.08047  21035070.744    21035080.709
       231.000         188.000
  21198855.582     3755573.74449   3147632.22947  21198855.398    21198865.211
       234.000         192.000
  22030343.453   -11007776.80049  -8198082.03346  22030343.241    22030351.922
       228.000         174.000
 01  9 24 21 31  0.0000000  0  5G 1G27G22G20G13
  20579911.077    -6341588.69949  -4924323.82547  20579910.784    20579918.971
       238.000         202.000
  23526304.791    -8668366.02549  -6733915.40945  23526303.259    23526316.625
       212.000         154.000
  21044521.545    -1023386.84849   -775351.76347  21044520.592    21044530.713
       231.000         188.000
  21212720.465     3828433.43549   3204405.89347  21212720.199    21212730.014
       234.000         191.000
  22017353.542   -11076039.06949  -8251273.32046  22017354.043    22017361.382
       228.000         174.000
 01  9 24 21 31 30.0000000  0  5G 1G27G22G20G13
  20576567.370    -6359160.07449  -4938015.79547  20576567.079    20576575.058
       238.000         202.000
  23513842.057    -8733856.58949  -6784946.87145  23513842.685    23513854.532
       213.000         153.000
  21054080.927     -973152.34649   -736208.03947  21054080.523    21054089.830
       232.000         188.000
  21226670.825     3901742.56449   3261529.76647  21226670.742    21226680.164
       233.000         191.000
  22004385.442   -11144186.87649  -8304375.42146  22004386.041    22004393.605
       227.000         174.000
 01  9 24 21 32  0.0000000  0  5G 1G27G22G20G13
  20573271.973    -6376477.43949  -4951509.83947  20573271.880    20573280.254
       238.000         202.000
  23501408.187    -8799196.23549  -6835860.75545  23501408.314    23501420.894
       214.000         154.000
  21063748.854     -922347.46849   -696619.86047  21063748.171    21063757.843
       231.000         188.000
  21240706.233     3975498.46749   3319001.77047  21240706.245    21240716.100
       233.000         191.000
  21991439.319   -11212218.98749  -8357387.36746  21991439.473    21991447.809
       228.000         174.000
 01  9 24 21 32 30.0000000  0  5G 1G27G22G20G13
  20570025.196    -6393539.44249  -4964804.89547  20570025.038    20570033.117
       238.000         202.000
  23489002.951    -8864385.07749  -6886657.11445  23489002.182    23489015.470
       214.000         154.000
  21073524.925     -870974.18349   -656588.76147  21073524.822    21073533.441
       232.000         188.000
  21254826.298     4049699.23749   3376820.42647  21254826.260    21254835.684
       234.000         191.000
  21978515.398   -11280134.23249  -8410308.25146  21978515.660    21978522.732
       227.000         174.000
 01  9 24 21 33  0.0000000  0  5G 1G27G22G20G13
  20566827.266    -6410344.74949  -4977899.93747  20566827.002    20566834.999
       238.000         203.000
  23476626.694    -8929422.92149  -6937335.83245  23476626.240    23476639.545
       213.000         155.000
  21083408.723     -819034.56349   -616116.36647  21083408.530    21083417.982
       231.000         188.000
  21269030.565     4124342.68449   3434984.02447  21269030.067    21269040.040
       233.000         190.000
  21965614.087   -11347930.85249  -8463136.69946  21965613.672    21965622.555
       228.000         174.000
 01  9 24 21 33 30.0000000  0  5G 1G27G22G20G13
  20563678.339    -6426892.55949  -4990794.33147  20563677.952    20563686.159
       238.000         203.000
  23464278.956    -8994310.26849  -6987897.24145  23464278.688    23464292.827
       213.000         155.000
  21093399.925     -766530.95149   -575204.50147  21093399.264    21093408.989
       231.000         188.000
  21283318.474     4199425.99349   3493490.36247  21283318.655    21283328.088
       233.000         190.000
  21952735.436   -11415608.03149  -8515872.09346  21952735.368    21952744.030
       229.000         175.000
 01  9 24 21 34  0.0000000  0  5G 1G27G22G20G13
  20560578.755    -6443180.97549  -5003486.60047  20560578.488    20560586.567
       239.000         203.000
  23451959.866    -9059046.70249  -7038341.07845  23451960.396    23451972.089
       215.000         155.000
  21103498.102     -713464.88749   -533854.35847  21103497.653    21103506.938
       231.000         188.000
  21297689.795     4274947.42649   3552338.09947  21297690.016    21297699.304
       234.000         189.000
  21939879.908   -11483163.96649  -8568513.00046  21939879.787    21939888.679
       228.000         175.000
 01  9 24 21 34 30.0000000  0  5G 1G27G22G20G13
  20557528.491    -6459210.06649  -5015976.80447  20557527.950    20557536.330
       238.000         203.000
  23439669.393    -9123633.52749  -7088668.34845  23439669.055    23439681.932
       214.000         155.000
  21113702.629     -659839.95949   -492068.75446  21113701.688    21113711.315
       230.000         187.000
  21312143.846     4350903.40349   3611524.43547  21312143.460    21312153.200
       234.000         189.000
  21927047.433   -11550598.64849  -8621059.44646  21927047.051    21927056.276
       229.000         175.000
 01  9 24 21 35  0.0000000  0  5G 1G27G22G20G13
  20554528.145    -6474977.08349  -5028262.79147  20554527.777    20554535.935
       238.000         203.000
  23427407.540    -9188069.21949  -7138877.83145  23427407.064    23427420.379
       215.000         156.000
  21124013.308     -605656.64949   -449848.02546  21124012.660    21124022.699
       231.000         187.000
  21326680.373     4427293.15549   3671048.78147  21326680.606    21326690.626
       234.000         189.000
  21914238.564   -11617909.08849  -8673509.07046  21914238.958    21914246.927
       228.000         175.000
 01  9 24 21 35 30.0000000  0  5G 1G27G22G20G13
  20551577.869    -6490480.89249  -5040343.68347  20551577.639    20551586.047
       238.000         203.000
  23415174.585    -9252354.04249  -7188969.79245  23415174.632    23415186.092
       215.000         156.000
  21134429.925     -550917.24149   -407193.98946  21134429.369    21134439.155
       231.000         187.000
  21341299.058     4504114.18349   3730909.18647  21341298.966    21341308.940
       234.000         189.000
  21901453.588   -11685094.05149  -8725860.91946  21901454.758    21901461.863
       229.000         176.000
 01  9 24 21 36  0.0000000  0  5G 1G27G22G20G13
  20548677.741    -6505721.03849  -5052219.11947  20548677.327    20548685.781
       239.000         203.000
  23402970.076    -9316488.95449  -7238944.90745  23402970.021    23402982.601
       215.000         156.000
  21144951.742     -495624.83349   -364109.04146  21144951.035    21144960.844
       230.000         187.000
  21355999.273     4581363.54849   3791103.36847  21355998.960    21356009.260
       233.000         188.000
  21888692.599   -11752153.24549  -8778114.75446  21888692.803    21888700.928
       229.000         176.000
 01  9 24 21 36 30.0000000  0  5G 1G27G22G20G13
  20545828.178    -6520695.60249  -5063887.61247  20545828.069    20545836.101
       239.000         203.000
  23390794.220    -9380473.03149  -7288802.49945  23390794.490    23390806.405
       216.000         156.000
  21155578.488     -439780.82249   -320594.26946  21155577.628    21155587.705
       229.000         186.000
  21370780.647     4659039.50249   3851629.95247  21370780.916    21370790.349
       234.000         188.000
  21875955.898   -11819084.35349  -8830268.79946  21875956.031    21875963.971
       229.000         176.000
 01  9 24 21 37  0.0000000  0  5G 1G27G22G20G13
  20543029.321    -6535403.82749  -5075348.56547  20543028.817    20543037.225
       238.000         203.000
  23378647.091    -9444306.94149  -7338543.05645  23378646.210    23378659.020
       216.000         156.000
  21166309.695     -383387.95449   -276651.81246  21166309.239    21166319.240
       231.000         186.000
  21385642.594     4737139.10049   3912486.65347  21385642.378    21385652.008
       232.000         188.000
  21863243.891   -11885886.35249  -8882322.22746  21863244.261    21863252.399
       229.000         177.000
 01  9 24 21 37 30.0000000  0  5G 1G27G22G20G13
  20540281.263    -6549844.87849  -5086601.32747  20540281.069    20540289.052
       238.000         203.000
  23366528.194    -9507991.31849  -7388167.10545  23366527.759    23366539.677
       215.000         157.000
  21177144.944     -326448.80249   -232283.69346  21177144.668    21177154.414
       230.000         186.000
  21400584.665     4815659.53849   3973671.26447  21400584.813    21400594.580
       233.000         188.000
  21850556.567   -11952558.57649  -8934274.53446  21850556.924    21850565.393
       229.000         177.000
 01  9 24 21 38  0.0000000  0  5G 1G27G22G20G13
  20537584.345    -6564017.18949  -5097644.68647  20537584.226    20537592.343
       239.000         203.000
  23354437.831    -9571525.90649  -7437674.44345  23354437.369    23354449.989
       214.000         157.000
  21188083.661     -268965.36649   -187491.44846  21188083.165    21188092.822
       231.000         186.000
  21415606.374     4894598.67049   4035182.13946  21415606.304    21415616.118
       232.000         187.000
  21837894.325   -12019098.95449  -8986124.10946  21837895.190    21837902.935
       230.000         177.000
 01  9 24 21 38 30.0000000  0  5G 1G27G22G20G13
  20534938.875    -6577919.16949  -5108477.39947  20534938.708    20534946.786
       239.000         203.000
  23342375.879    -9634910.68349  -7487065.04645  23342374.800    23342388.245
       213.000         157.000
  21199125.636     -210939.75849   -142276.73546  21199125.241    21199134.900
       230.000         186.000
  21430707.405     4973954.56749   4097017.76946  21430707.240    21430717.152
       232.000         187.000
  21825257.545   -12085505.95749  -9037869.74346  21825257.259    21825266.141
       230.000         178.000
 01  9 24 21 39  0.0000000  0  5G 1G27G22G20G13
  20532345.090    -6591549.57449  -5119098.49747  20532344.963    20532352.929
       238.000         203.000
  23330342.593    -9698145.70749  -7536338.95745  23330342.780    23330354.960
       217.000         158.000
  21210270.247     -152374.26549    -96641.32846  21210270.056    21210279.677
       231.000         186.000
  21445887.198     5053724.66149   4159176.13946  21445886.572    21445897.251
       232.000         186.000
  21812646.299   -12151778.16249  -9089510.35946  21812645.830    21812654.112
       230.000         178.000
 01  9 24 21 39 30.0000000  0  5G 1G27G22G20G13
  20529803.023    -6604908.26749  -5129507.87247  20529802.963    20529810.995
       238.000         203.000
  23318337.682    -9761232.03849  -7585497.02545  23318337.561    23318350.530
       216.000         158.000
  21221517.200      -93272.06849    -50587.74046  21221517.129    21221526.242
       230.000         185.000
  21461145.217     5133905.68749   4221654.71046  21461145.468    21461155.419
       233.000         186.000
  21800060.731   -12217915.36449  -9141045.77646  21800060.722    21800069.340
       231.000         178.000
 01  9 24 21 40  0.0000000  0  5G 1G27G22G20G13
  20527313.082    -6617993.07549  -5139703.82547  20527313.307    20527321.327
       239.000         203.000
  23306360.991    -9824168.87749  -7634538.55345  23306360.702    23306373.401
       216.000         159.000
  21232865.763      -33634.85549     -4117.22646  21232864.874    21232875.579
       230.000         185.000
  21476481.168     5214495.93349   4284452.16046  21476481.141    21476491.162
       233.000         186.000
  21787501.384   -12283915.14649  -9192474.10546  21787502.176    21787509.714
       230.000         179.000
 01  9 24 21 40 30.0000000  0  5G 1G27G22G20G13
  20524875.502    -6630802.55149  -5149685.23547  20524875.275    20524883.666
       239.000         203.000
  23294412.874    -9886956.28349  -7683463.65645  23294412.444    23294424.012
       215.000         159.000
  21244315.872       26535.32749     42768.57946  21244315.656    21244325.399
       230.000         185.000
  21491894.513     5295492.93149   4347566.56246  21491894.341    21491904.541
       232.000         186.000
  21774968.454   -12349775.84549  -9243794.05746  21774968.453    21774976.429
       230.000         179.000
 01  9 24 21 41  0.0000000  0  5G 1G27G22G20G13
  20522490.498    -6643336.03349  -5159451.58047  20522490.156    20522498.583
       239.000         203.000
  23282493.025    -9949594.85349  -7732272.77445  23282492.396    23282504.921
       216.000         159.000
  21255866.811       87235.55749     90067.40646  21255866.300    21255875.929
       230.000         184.000
  21507384.779     5376893.80049   4410995.67046  21507385.187    21507395.258
       232.000         186.000
  21762462.090   -12415496.63249  -9295004.98546  21762461.891    21762470.327
       230.000         178.000
 01  9 24 21 41 30.0000000  0  5G 1G27G22G20G13
  20520158.320    -6655591.73049  -5169001.47347  20520158.340    20520166.463
       239.000         203.000
  23270601.610   -10012084.38949  -7780965.77145  23270600.768    23270613.722
       217.000         160.000
  21267518.184      148463.98249    137777.81546  21267517.344    21267527.142
       229.000         183.000
  21522951.469     5458696.57049   4474737.94546  21522951.311    21522961.701
       232.000         186.000
  21749982.789   -12481075.64249  -9346105.42946  21749982.940    21749990.966
       231.000         179.000
 01  9 24 21 42  0.0000000  0  5G 1G27G22G20G13
  20517879.207    -6667568.56549  -5178334.06947  20517879.138    20517887.474
       238.000         203.000
  23258738.554   -10074425.12549  -7829542.80445  23258738.161    23258750.793
       217.000         160.000
  21279269.594      210217.87549    185897.68546  21279268.999    21279279.021
       228.000         183.000
  21538594.078     5540898.59149   4538791.32346  21538594.541    21538604.595
       233.000         186.000
  21737530.606   -12546511.79049  -9397094.55646  21737530.761    21737538.988
       230.000         179.000
 01  9 24 21 42 30.0000000  0  5G 1G27G22G20G13
  20515653.473    -6679265.00949  -5187448.18447  20515653.179    20515661.363
       239.000         203.000
  23246903.732   -10136616.83949  -7878003.72345  23246903.194    23246914.625
       216.000         160.000
  21291120.535      272495.25149    234425.44446  21291119.525    21291129.345
       229.000         182.000
  21554312.350     5623497.69849   4603154.11546  21554312.780    21554322.741
       233.000         185.000
  21725106.073   -12611802.87149  -9447970.66146  21725106.312    21725113.867
       231.000         179.000
 01  9 24 21 43  0.0000000  0  5G 1G27G22G20G13
  20513481.183    -6690680.42949  -5196343.30947  20513480.613    20513488.882
       238.000         203.000
  23235097.253   -10198660.40249  -7926349.20645  23235096.827    23235108.712
       218.000         161.000
  21303070.622      335293.00849    283358.69646  21303070.691    21303079.752
       228.000         182.000
  21570105.537     5706490.75349   4667823.88046  21570104.587    21570116.143
       232.000         185.000
  21712709.308   -12676948.01149  -9498733.03146  21712709.084    21712717.146
       231.000         180.000
 01  9 24 21 43 30.0000000  0  5G 1G27G22G20G13
  20511362.629    -6701813.33149  -5205018.29747  20511362.489    20511370.700
       239.000         203.000
  23223318.700   -10260555.73549  -7974579.17545  23223317.592    23223329.501
       218.000         161.000
  21315119.263      398609.04849    332695.79646  21315119.080    21315129.356
       228.000         182.000
  21585973.187     5789875.33349   4732798.71646  21585973.232    21585983.286
       231.000         185.000
  21700340.660   -12741945.65949  -9549380.47546  21700340.817    21700348.756
       231.000         180.000
 01  9 24 21 44  0.0000000  0  5G 1G27G22G20G13
  20509298.117    -6712662.14349  -5213471.90747  20509298.118    20509306.019
       238.000         203.000
  23211568.697   -10322302.40349  -8022693.27445  23211568.306    23211580.287
       217.000         161.000
  21327266.112      462441.24949    382435.11746  21327266.191    21327275.799
       229.000         182.000
  21601914.964     5873649.30449   4798076.98246  21601915.145    21601925.458
       232.000         184.000
  21688000.406   -12806793.92849  -9599911.51346  21688000.520    21688008.414
       231.000         181.000
 01  9 24 21 44 30.0000000  0  5G 1G27G22G20G13
  20507287.542    -6723227.75849  -5221704.84647  20507287.171    20507295.268
       239.000         203.000
  23199846.410   -10383902.97649  -8070693.54645  23199844.922    23199858.111
       217.000         161.000
  21339510.373      526785.12549    432573.14246  21339510.494    21339519.897
       228.000         182.000
  21617929.918     5957808.05049   4863655.07146  21617929.879    21617940.395
       232.000         184.000
  21675688.291   -12871493.71349  -9650326.85946  21675688.703    21675696.379
       232.000         181.000
 01  9 24 21 45  0.0000000  0  5G 1G27G22G20G13
  20505331.600    -6733506.29149  -5229714.07447  20505331.325    20505339.626
       239.000         203.000
  23188152.260   -10445355.14449  -8118578.22345  23188150.977    23188163.714
       218.000         162.000
  21351852.064      591640.52349    483109.75446  21351851.481    21351861.985
       228.000         182.000
  21634018.104     6042351.38149   4929532.84346  21634017.671    21634028.317
       231.000         183.000
  21663405.410   -12936040.92649  -9700623.30746  21663405.546    21663413.826
       232.000         181.000
 01  9 24 21 45 30.0000000  0  5G 1G27G22G20G13
  20503430.435    -6743497.00249  -5237499.03047  20503430.311    20503438.504
       239.000         203.000
  23176486.164   -10506659.34449  -8166347.59045  23176485.513    23176497.414
       216.000         161.000
  21364290.458      657004.44549    534042.62546  21364289.630    21364300.730
       228.000         182.000
  21650178.852     6127276.27449   4995707.92746  21650178.763    21650189.220
       230.000         182.000
  21651151.625   -13000434.52249  -9750800.05246  21651152.099    21651159.234
       231.000         181.000
 01  9 24 21 46  0.0000000  0  5G 1G27G22G20G13
  20501584.281    -6753198.52049  -5245058.64947  20501583.889    20501592.392
       239.000         203.000
  23164848.294   -10567815.59449  -8214001.68145  23164848.109    23164860.362
       217.000         162.000
  21376825.260      722874.73049    585370.04746  21376825.152    21376834.811
       228.000         182.000
  21666411.741     6212580.52449   5062178.60746  21666411.775    21666421.933
       231.000         182.000
  21638927.423   -13064672.49849  -9800855.54946  21638927.672    21638935.328
       231.000         182.000
 01  9 24 21 46 30.0000000  0  5G 1G27G22G20G13
  20499793.287    -6762610.30449  -5252392.49447  20499793.348    20499801.304
       238.000         203.000
  23153238.555   -10628824.70049  -8261541.11545  23153238.227    23153250.033
       218.000         162.000
  21389455.698      789248.13949    637089.52946  21389454.719    21389465.318
       227.000         181.000
  21682716.329     6298260.79449   5128942.30246  21682716.588    21682726.803
       231.000         182.000
  21626733.148   -13128754.24949  -9850789.29746  21626733.164    21626740.570
       231.000         182.000
 01  9 24 21 47  0.0000000  0  5G 1G27G22G20G13
  20498057.733    -6771730.76449  -5259499.34347  20498057.670    20498065.683
       239.000         203.000
  23141656.905   -10689686.38849  -8308965.68145  23141656.465    23141668.267
       219.000         162.000
  21402181.537      856122.56649    689199.41146  21402181.118    21402191.288
       227.000         181.000
  21699092.067     6384314.75749   5195997.17346  21699092.871    21699102.204
       230.000         182.000
  21614568.808   -13192677.75449  -9900599.76546  21614568.995    21614576.496
       231.000         182.000
 01  9 24 21 47 30.0000000  0  6G 1G27G22G20G 3G13
  20496377.704    -6780559.35049  -5266378.75747  20496377.273    20496385.407
       238.000         203.000
  23130103.175   -10750401.80249  -8356276.25246  23130102.493    23130114.694
       218.000         163.000
  21415001.997      923494.48049    741696.94246  21415001.563    21415012.178
       227.000         180.000
  21715538.161     6470738.98049   5263340.56546  21715538.016    21715548.531
       230.000         181.000
                  -1061572.13049   -800657.70943
       208.000          74.000
  21602434.730   -13256442.52749  -9950286.52646  21602435.045    21602442.701
       232.000         182.000
 01  9 24 21 48  0.0000000  0  6G 1G27G22G20G 3G13
  20494753.596    -6789094.16849  -5273029.25747  20494753.268    20494761.405
       239.000         203.000
  23118577.322   -10810970.34149  -8403472.40546  23118577.032    23118588.917
       219.000         163.000
  21427916.835      991362.20749    794580.82646  21427916.802    21427926.544
       227.000         180.000
  21732054.312     6557531.58149   5330971.00046  21732054.362    21732065.301
       230.000         180.000
                  -1127181.80849   -851782.34943
       209.000          74.000
  21590331.284   -13320046.10849  -9999847.69246  21590331.914    21590339.059
       232.000         182.000
 01  9 24 21 48 30.0000000  0  6G 1G27G22G20G 3G13
  20493185.489    -6797334.45649  -5279450.25447  20493185.383    20493193.473
       238.000         203.000
  23107079.337   -10871392.45649  -8450554.44845  23107077.353    23107091.089
       218.000         162.000
  21440925.460     1059722.77349    847848.73546  21440925.306    21440935.169
       227.000         180.000
  21748640.050     6644689.45749   5398886.06446  21748640.350    21748650.202
       231.000         181.000
                  -1192598.76349   -902756.42543
       209.000          74.000
  21578258.815   -13383487.25349 -10049282.28246  21578258.732    21578266.727
       232.000         182.000
 01  9 24 21 49  0.0000000  0  6G 1G27G22G20G 3G13
  20491673.767    -6805278.77949  -5285640.63247  20491673.829    20491681.606
       239.000         204.000
  23095609.015   -10931668.26349  -8497522.51946  23095607.893    23095619.973
       218.000         163.000
  21454027.462     1128573.61149    901498.68346  21454026.686    21454037.255
       227.000         180.000
  21765294.846     6732210.29649   5467083.95646  21765295.170    21765305.025
       230.000         181.000
                  -1257820.04349   -953577.82944                  24038402.006
       208.000         124.000
  21566217.521   -13446764.50149 -10098589.15746  21566217.898    21566224.976
       233.000         183.000
 01  9 24 21 49 30.0000000  0  6G 1G27G22G20G 3G13
  20490217.631    -6812930.94749  -5291603.35847  20490217.408    20490225.474
       239.000         204.000
  23084165.688   -10991802.79949  -8544380.45045  23084164.396    23084177.590
       217.000         162.000
  21467221.215     1197907.13149    955524.74946  21467220.522    21467231.165
       227.000         179.000
  21782017.265     6820086.39449   5535558.67746  21782017.383    21782027.760
       229.000         180.000
  24026010.392    -1322847.43549  -1004248.36045  24026009.140    24026027.460
       207.000         133.000
  21554206.667   -13509881.60849 -10147771.24646  21554207.073    21554214.132
       232.000         183.000
 01  9 24 21 50  0.0000000  0  6G 1G27G22G20G 3G13
  20488817.850    -6820286.89349  -5297335.26047  20488817.647    20488825.441
       238.000         204.000
  23072749.610   -11051793.58649  -8591126.35146  23072749.078    23072761.350
       219.000         163.000
  21480506.917     1267723.68449   1009927.20046  21480506.785    21480516.668
       227.000         179.000
  21798807.260     6908317.78149   5604310.24646  21798807.440    21798817.741
       230.000         180.000
  24013673.546    -1387675.34249  -1054763.42845  24013672.171    24013689.418
       204.000         134.000
  21542227.205   -13572833.88549 -10196824.89346  21542227.126    21542234.886
       233.000         184.000
 01  9 24 21 50 30.0000000  0  6G 1G27G22G20G 3G13
  20487475.434    -6827341.25149  -5302832.15847  20487475.356    20487483.371
       239.000         204.000
  23061361.743   -11111636.72149  -8637757.21446  23061361.042    23061373.768
       217.000         163.000
  21493884.787     1338024.66549   1064707.12746  21493883.674    21493894.573
       227.000         179.000
  21815665.183     6996906.29749   5673340.09346  21815664.919    21815676.368
       229.000         179.000
  24001376.238    -1452296.70849  -1105117.46545  24001376.063    24001394.771
       203.000         133.000
  21530280.381   -13635614.94849 -10245745.12146  21530280.367    21530288.104
       233.000         184.000
 01  9 24 21 51  0.0000000  0  6G 1G27G22G20G 3G13
  20486190.769    -6834092.23449  -5308092.67247  20486190.475    20486198.543
       239.000         204.000
  23050001.932   -11171332.01849  -8684272.90446  23050002.236    23050012.842
       218.000         163.000
  21507354.414     1408808.02349   1119862.93046  21507353.439    21507363.983
       226.000         179.000
  21832590.592     7085849.41949   5742646.25146  21832590.842    21832601.235
       229.000         179.000
  23989119.077    -1516707.77349  -1155307.66045  23989118.149    23989135.351
       203.000         133.000
  21518366.323   -13698223.27349 -10294530.75146  21518366.975    21518374.620
       233.000         184.000
 01  9 24 21 51 30.0000000  0  6G 1G27G22G20G 3G13
  20484963.900    -6840539.36849  -5313116.42047  20484963.695    20484971.926
       239.000         204.000
  23038670.207   -11230880.26149  -8730674.01046  23038669.031    23038681.745
       216.000         163.000
  21520915.256     1480070.41249   1175391.99546  21520914.881    21520925.201
       226.000         178.000
  21849582.868     7175143.80449   5812226.12646  21849582.988    21849593.532
       229.000         179.000
  23976902.230    -1580906.42849  -1205332.32845  23976901.157    23976920.443
       204.000         134.000
  21506485.391   -13760658.08649 -10343181.17746  21506485.630    21506493.207
       234.000         184.000
 01  9 24 21 52  0.0000000  0  6G 1G27G22G20G 3G13
  20483794.930    -6846682.23749  -5317903.07947  20483794.714    20483802.665
       239.000         204.000
  23027366.244   -11290282.38949  -8776961.23746  23027365.806    23027377.679
       217.000         163.000
  21534566.569     1551808.17849   1231291.49146  21534565.570    21534576.222
       225.000         178.000
  21866641.355     7264785.91449   5882076.95346  21866642.139    21866652.561
       229.000         179.000
  23964726.220    -1644890.47249  -1255189.78545  23964726.285    23964743.329
       205.000         135.000
  21494637.518   -13822918.45149 -10391695.68246  21494637.172    21494645.256
       233.000         184.000
 01  9 24 21 52 30.0000000  0  6G 1G27G22G20G 3G13
  20482684.130    -6852519.68149  -5322451.74247  20482683.833    20482692.110
       239.000         204.000
  23016090.086   -11349538.69249  -8823134.81846  23016089.023    23016101.213
       219.000         163.000
  21548307.760     1624018.62849   1287559.31246  21548307.067    21548317.424
       225.000         177.000
  21883765.433     7354772.87849   5952196.49946  21883766.044    21883776.343
       230.000         178.000
  23952591.488    -1708657.29949  -1304877.97145  23952591.466    23952607.814
       206.000         136.000
  21482823.083   -13885003.36349 -10440073.45246  21482822.981    21482831.300
       234.000         184.000
 01  9 24 21 53  0.0000000  0  6G 1G27G22G20G 3G13
  20481631.627    -6858050.77949  -5326761.69047  20481631.502    20481639.460
       238.000         204.000
  23004841.542   -11408649.63149  -8869195.18646  23004841.440    23004853.207
       219.000         163.000
  21562138.336     1696698.89049   1344193.22246  21562138.262    21562148.661
       226.000         177.000
  21900954.596     7445101.89049   6022582.58446  21900954.675    21900965.872
       229.000         178.000
  23940498.799    -1772203.90649  -1354394.56045  23940498.138    23940515.664
       211.000         140.000
  21471042.444   -13946910.90749 -10488313.02646  21471042.337    21471049.846
       235.000         184.000
 01  9 24 21 53 30.0000000  0  6G 1G27G22G20G 3G13
  20480637.514    -6863274.86749  -5330832.41447  20480637.120    20480645.382
       238.000         204.000
  22993620.493   -11467616.08749  -8915142.97046  22993619.848    22993632.109
       219.000         163.000
  21576057.829     1769845.77949   1401190.72146  21576057.596    21576067.380
       225.000         178.000
  21918208.206     7535769.58949   6093232.57546  21918208.480    21918219.921
       227.000         177.000
  23928448.496    -1835528.02049  -1403737.77845  23928447.800    23928465.782
       208.000         139.000
  21459295.693   -14008640.13649 -10536413.65946  21459295.239    21459303.385
       234.000         184.000
 01  9 24 21 54  0.0000000  0  6G 1G27G22G20G 3G13
  20479702.013    -6868190.71249  -5334662.94947  20479701.977    20479709.934
       239.000         204.000
  22982426.766   -11526438.09049  -8960978.14846  22982425.958    22982438.010
       219.000         164.000
  21590065.435     1843456.46249   1458549.63246  21590064.829    21590074.837
       225.000         177.000
  21935525.671     7626773.08849   6164144.22246  21935525.871    21935537.162
       228.000         177.000
  23916441.022    -1898626.73449  -1452905.43245  23916439.943    23916458.427
       209.000         135.000
  21447583.142   -14070189.42349 -10584374.07546  21447583.067    21447590.154
       234.000         185.000
 01  9 24 21 54 30.0000000  0  6G 1G27G22G20G 3G13
  20478825.428    -6872797.12149  -5338252.36447  20478825.264    20478833.612
       238.000         204.000
  22971260.684   -11585115.93549  -9006700.97046  22971260.068    22971271.649
       219.000         164.000
  21604160.894     1917528.29949   1516267.86746  21604161.220    21604171.252
       226.000         177.000
  21952906.652     7718109.93849   6235315.61846  21952906.939    21952918.030
       228.000         177.000
  23904477.003    -1961497.06549  -1501895.09445  23904476.126    23904493.262
       206.000         137.000
  21435905.219   -14131557.21149 -10632193.06746  21435905.342    21435912.626
       234.000         185.000
 01  9 24 21 55  0.0000000  0  6G 1G27G22G20G 3G13
  20478007.720    -6877094.09949  -5341600.65247  20478007.520    20478015.715
       239.000         203.000
  22960121.732   -11643651.05049  -9052312.58346  22960121.369    22960133.385
       219.000         165.000
  21618343.413     1992057.30249   1574342.35246  21618342.783    21618352.849
       225.000         176.000
  21970350.272     7809775.85149   6306743.44646  21970349.943    21970361.528
       228.000         177.000
  23892556.729    -2024137.26749  -1550705.37745  23892556.317    23892574.210
       209.000         138.000
  21424261.858   -14192743.15449 -10679870.35046  21424262.152    21424269.420
       234.000         185.000
 01  9 24 21 55 30.0000000  0  6G 1G27G22G20G 3G13
  20477249.477    -6881078.72149  -5344705.55747  20477249.435    20477257.486
       238.000         203.000
  22949010.210   -11702042.05049  -9097811.91046  22949010.131    22949021.287
       221.000         166.000
  21632612.595     2067042.40149   1632772.22446  21632611.255    21632622.221
       225.000         176.000
  21987856.330     7901770.09949   6378427.11146  21987856.624    21987868.008
       228.000         177.000
  23880681.212    -2086542.77649  -1599332.83145  23880680.039    23880696.889
       208.000         139.000
  21412653.733   -14253743.92249 -10727403.35046  21412653.708    21412661.679
       234.000         185.000
 01  9 24 21 56  0.0000000  0  6G 1G27G22G20G 3G13
  20476550.906    -6884749.81949  -5347566.15447  20476550.499    20476558.726
       238.000         203.000
  22937926.033   -11760289.02549  -9143198.99946  22937925.724    22937936.964
       220.000         166.000
  21646968.108     2142481.09449   1691555.52946  21646968.526    21646978.438
       225.000         176.000
  22005424.289     7994089.69349   6450364.28346  22005424.012    22005435.521
       227.000         176.000
  23868850.916    -2148710.73049  -1647775.15845  23868850.079    23868867.909
       209.000         143.000
  21401081.181   -14314557.78349 -10774790.70546  21401081.330    21401088.523
       235.000         186.000
 01  9 24 21 56 30.0000000  0  6G 1G27G22G20G 3G13
  20475912.159    -6888106.48649  -5350181.74247  20475911.821    20475919.978
       239.000         203.000
  22926869.127   -11818392.54049  -9188474.28646  22926868.779    22926880.558
       220.000         167.000
  21661409.453     2218370.03049   1750689.68346  21661409.168    21661419.134
       225.000         176.000
  22023053.535     8086731.57249   6522552.58346  22023053.008    22023064.802
       226.000         175.000
  23857066.286    -2210638.59449  -1696030.41245  23857066.077    23857081.736
       204.000         141.000
  21389544.458   -14375183.50949 -10822031.46946  21389544.476    21389552.010
       233.000         186.000
 01  9 24 21 57  0.0000000  0  6G 1G27G22G20G 3G13
  20475333.468    -6891147.47549  -5352551.34347  20475333.492    20475341.572
       239.000         203.000
  22915839.566   -11876352.76149  -9233637.94646  22915838.335    22915851.039
       221.000         167.000
  21675935.897     2294706.79849   1810172.79046  21675935.372    21675946.402
       226.000         176.000
  22040743.699     8179693.35449   6594990.16946  22040743.161    22040754.994
       227.000         175.000
  23845327.952    -2272323.08549  -1744095.98945  23845327.193    23845345.020
       205.000         139.000
  21378043.808   -14435619.40049 -10869124.30046  21378044.438    21378051.660
       234.000         186.000
 01  9 24 21 57 30.0000000  0  6G 1G27G22G20G 3G13
  20474815.019    -6893871.99249  -5354674.34447  20474814.851    20474822.825
       239.000         203.000
  22904837.235   -11934170.23749  -9278690.38946  22904837.001    22904848.074
       222.000         168.000
  21690546.898     2371488.12949   1870002.32446  21690547.496    21690556.776
       225.000         176.000
  22058493.960     8272971.60549   6667674.34046  22058494.172    22058505.888
       226.000         174.000
  23833636.373    -2333761.83049  -1791970.11145  23833636.127    23833651.321
       206.000         135.000
  21366579.606   -14495863.80149 -10916067.91746  21366579.565    21366587.566
       233.000         186.000
 01  9 24 21 58  0.0000000  0  6G 1G27G22G20G 3G13
  20474357.125    -6896278.42649  -5356549.49247  20474357.038    20474365.279
       238.000         204.000
  22893862.040   -11991844.69849  -9323631.36646  22893861.479    22893873.388
       220.000         168.000
  21705242.060     2448711.85349   1930176.57546  21705241.074    21705252.165
       225.000         175.000
  22076304.036     8366564.04849   6740603.32646  22076304.303    22076315.629
       225.000         173.000
  23821992.197    -2394951.28749  -1839649.98245  23821991.678    23822008.313
       208.000         139.000
  21355152.234   -14555914.75649 -10962860.79746  21355152.106    21355159.714
       233.000         186.000
 01  9 24 21 58 30.0000000  0  6G 1G27G22G20G 3G13
  20473959.736    -6898366.50749  -5358176.57547  20473959.483    20473967.590
       238.000         204.000
  22882913.886   -12049377.34749  -9368461.87446  22882913.838    22882924.757
       221.000         168.000
  21720020.937     2526374.31949   1990692.68146  21720020.812    21720031.085
       225.000         175.000
  22094173.382     8460467.21749   6813774.44946  22094173.192    22094184.402
       225.000         172.000
  23810395.949    -2455889.31149  -1887133.94345  23810394.687    23810412.917
       212.000         142.000
  21343761.760   -14615771.47349 -11009502.32646  21343762.361    21343769.056
       234.000         186.000
 01  9 24 21 59  0.0000000  0  6G 1G27G22G20G 3G13
  20473623.274    -6900134.77749  -5359554.45347  20473622.816    20473631.189
       238.000         204.000
  22871992.656   -12106768.14349  -9413181.84346  22871992.369    22872003.472
       221.000         168.000
  21734882.705     2604472.96549   2051548.67546  21734882.064    21734892.468
       224.000         175.000
  22112101.259     8554678.40349   6887185.58046  22112101.471    22112112.397
       225.000         172.000
  23798848.086    -2516572.99749  -1934419.71445  23798847.521    23798864.101
       210.000         143.000
  21332408.702   -14675432.10749 -11055991.05446  21332408.891    21332416.532
       234.000         187.000
 01  9 24 21 59 30.0000000  0  6G 1G27G22G20G 3G13
  20473347.931    -6901581.74049  -5360681.96747  20473347.726    20473355.971
       239.000         204.000
  22861098.430   -12164016.91849  -9457791.13546  22861097.971    22861108.785
       221.000         169.000
  21749826.964     2683005.36749   2112742.65946  21749826.898    21749837.176
       225.000         174.000
  22130087.315     8649195.06249   6960834.73346  22130087.249    22130099.335
       226.000         172.000
  23787349.319    -2576998.86849  -1981504.56845  23787348.441    23787365.856
       209.000         146.000
  21321093.314   -14734894.61349 -11102325.39946  21321093.644    21321100.686
       234.000         187.000
 01  9 24 22  0  0.0000000  0  6G 1G27G22G20G 3G13
  20473133.876    -6902706.61249  -5361558.49647  20473133.794    20473142.000
       239.000         204.000
  22850231.234   -12221124.29449  -9502290.25346  22850231.094    22850242.114
       220.000         169.000
  21764853.138     2761968.12949   2174272.00446  21764852.736    21764863.249
       225.000         174.000
  22148130.956     8744014.21549   7034719.60446  22148131.368    22148142.951
       225.000         172.000
  23775899.997    -2637164.67949  -2028386.79145  23775898.408    23775914.723
       209.000         143.000
  21309815.946   -14794157.61649 -11148504.28346  21309816.141    21309823.088
       234.000         187.000
 01  9 24 22  0 30.0000000  0  6G 1G27G22G20G 3G13
  20472981.371    -6903508.05849  -5362183.01347  20472981.230    20472989.199
       239.000         204.000
  22839390.998   -12278090.42849  -9546679.31146  22839390.479    22839402.107
       221.000         169.000
  21779960.819     2841358.79049   2236134.75146  21779960.537    21779971.020
       225.000         173.000
  22166231.535     8839133.05749   7108837.99046  22166231.337    22166244.344
       224.000         172.000
  23764500.709    -2697067.20749  -2075063.87745  23764500.539    23764516.935
       208.000         143.000
  21298576.792   -14853219.28349 -11194526.28246  21298576.922    21298584.396
       235.000         187.000
 01  9 24 22  1  0.0000000  0  6G 1G27G22G20G 3G13
  20472890.659    -6903985.12549  -5362554.75747  20472890.603    20472898.365
       239.000         204.000
  22828577.285   -12334915.95249  -9590958.80846  22828576.246    22828587.084
       222.000         169.000
  21795149.311     2921174.14749   2298328.45646  21795148.263    21795159.516
       225.000         173.000
  22184388.594     8934548.20449   7183187.25646  22184388.657    22184400.591
       224.000         171.000
  23753152.061    -2756704.00049  -2121533.85345  23753151.236    23753167.868
       209.000         140.000
  21287376.212   -14912078.53849 -11240390.55347  21287376.346    21287383.906
       234.000         188.000
 01  9 24 22  1 30.0000000  0  6G 1G27G22G20G 3G13
  20472862.004    -6904135.77349  -5362672.15547  20472862.063    20472869.845
       239.000         204.000
  22817790.729   -12391600.07449  -9635128.14046  22817789.773    22817801.380
       220.000         169.000
  21810418.278     3001412.26249   2360851.57946  21810418.252    21810428.862
       224.000         173.000
  22202601.677     9030257.96649   7257766.09846  22202601.919    22202613.227
       225.000         170.000
  23741854.672    -2816071.38949  -2167793.99045  23741853.347    23741870.304
       207.000         138.000
  21276214.664   -14970732.54949 -11286094.89747  21276214.803    21276221.857
       235.000         188.000
 01  9 24 22  2  0.0000000  0  6G 1G27G22G20G 3G13
  20472895.547    -6903959.45149  -5362534.76647  20472895.339    20472903.643
       239.000         203.000
  22807030.690   -12448143.55949  -9679187.88746  22807029.112    22807041.515
       220.000         169.000
  21825766.976     3082069.96749   2423701.64346  21825765.557    21825777.163
       224.000         172.000
  22220870.235     9126259.08649   7332571.97646  22220870.491    22220881.565
       225.000         171.000
  23730609.037    -2875166.88449  -2213842.18145  23730607.982    23730624.414
       207.000         139.000
  21265092.498   -15029179.86849 -11331638.17647  21265092.593    21265099.795
       235.000         189.000
 01  9 24 22  2 30.0000000  0  6G 1G27G22G20G 3G13
  20472991.608    -6903454.88149  -5362141.59547  20472991.123    20472999.279
       238.000         203.000
  22796297.485   -12504546.32549  -9723137.96646  22796297.352    22796308.363
       221.000         169.000
  21841195.040     3163144.43349   2486876.46746  21841194.765    21841205.070
       224.000         172.000
  22239193.791     9222548.89849   7407602.78946  22239192.787    22239205.357
       225.000         170.000
  23719415.653    -2933987.25049  -2259675.98445  23719414.421    23719431.620
       207.000         141.000
  21254009.955   -15087418.81949 -11377019.10147  21254010.225    21254017.395
       234.000         189.000
 01  9 24 22  3  0.0000000  0  6G 1G27G22G20G 3G13
  20473150.249    -6902620.98149  -5361491.80747  20473150.133    20473158.351
       238.000         203.000
  22785590.917   -12560808.89349  -9766978.76646  22785590.204    22785600.879
       220.000         169.000
  21856701.811     3244632.78049   2550373.80346  21856700.661    21856711.747
       223.000         172.000
  22257571.638     9319124.30449   7482856.16246  22257571.954    22257583.422
       225.000         169.000
  23708275.187    -2992529.87249  -2305293.38045  23708274.433    23708290.568
       208.000         145.000
  21242967.363   -15145447.84949 -11422236.44647  21242967.250    21242974.427
       235.000         189.000
 01  9 24 22  3 30.0000000  0  6G 1G27G22G20G 3G13
  20473371.875    -6901456.52849  -5360584.45247  20473371.470    20473379.762
       238.000         203.000
  22774910.975   -12616931.14749  -9810710.25346  22774910.577    22774922.055
       222.000         169.000
  21872286.850     3326532.31249   2614191.53446  21872286.991    21872295.815
       223.000         172.000
  22276003.377     9415982.62249   7558329.96746  22276003.973    22276015.483
       226.000         169.000
  23697188.166    -3050791.81049  -2350692.03445  23697186.939    23697203.747
       210.000         146.000
  21231965.108   -15203264.66649 -11467288.45147  21231965.136    21231972.259
       234.000         189.000
 01  9 24 22  4  0.0000000  0  6G 1G27G22G20G 3G13
  20473656.490    -6899960.76249  -5359418.92847  20473656.333    20473664.616
       239.000         204.000
  22764257.676   -12672913.80149  -9854332.95746  22764257.093    22764268.453
       222.000         170.000
  21887949.531     3408839.67649   2678327.04746  21887949.018    21887959.031
       223.000         171.000
  22294488.325     9513120.38749   7634021.54446  22294489.176    22294499.838
       226.000         170.000
  23686154.977    -3108770.71349  -2395870.17045  23686154.816    23686170.610
       207.000         144.000
  21221003.302   -15260868.71549 -11512174.65747  21221003.525    21221010.424
       235.000         189.000
 01  9 24 22  4 30.0000000  0  7G 1G27G22G20G 3G13G 8
  20474004.490    -6898132.11549  -5357994.01847  20474004.332    20474012.403
       239.000         204.000
  22753630.922   -12728756.82849  -9897846.86546  22753629.930    22753641.352
       221.000         170.000
  21903689.210     3491552.41249   2742778.44246  21903688.452    21903699.479
       223.000         171.000
  22313025.947     9610535.36949   7709929.10346  22313025.944    22313037.305
       226.000         170.000
  23675176.327    -3166463.15349  -2440825.08445  23675175.697    23675191.685
       208.000         144.000
  21210082.465   -15318257.93449 -11556893.46147  21210082.685    21210089.967
       235.000         189.000
  24621929.264    -2969230.21059  -1497473.34544  24621929.903    24621944.197
       207.000         124.000
 01  9 24 22  5  0.0000000  0  7G 1G27G22G20G 3G13G 8
  20474413.607    -6895982.30049  -5356318.84947  20474413.608    20474421.686
       238.000         204.000
  22743028.351   -12784473.25549  -9941262.12646  22743027.680    22743039.201
       222.000         170.000
  21919503.197     3574654.91349   2807533.54346  21919501.755    21919513.325
       222.000         171.000
  22331613.312     9708211.93649   7786040.51046  22331614.005    22331625.050
       224.000         169.000
  23664250.234    -3223879.28549  -2485564.70745  23664248.981    23664266.367
       207.000         142.000
  21199200.524   -15375442.43449 -11601452.75247  21199200.459    21199207.723
       234.000         190.000
  24606136.154    -3052226.18149  -1562145.47845  24606136.566    24606155.303
       201.000         132.000
 01  9 24 22  5 30.0000000  0  7G 1G27G22G20G 3G13G 8
  20474887.534    -6893491.90249  -5354378.29047  20474887.460    20474895.206
       238.000         204.000
  22732453.417   -12840044.93749  -9984564.61446  22732452.471    22732463.893
       222.000         170.000
  21935394.189     3658162.62649   2872604.38646  21935393.663    21935404.284
       223.000         170.000
  22350253.433     9806165.41849   7862367.68946  22350254.231    22350265.294
       224.000         168.000
  23653380.785    -3280997.82449  -2530072.45745  23653379.646    23653396.090
       206.000         143.000
  21188361.308   -15432402.76449 -11645837.36747  21188361.373    21188368.393
       236.000         190.000
  24590362.678    -3135114.41949  -1626733.47844  24590360.558    24590379.902
       195.000         127.000
 01  9 24 22  6  0.0000000  0  8G 1G27G22G20G 3G31G13G 8
  20475425.961    -6890662.42349  -5352173.51147  20475425.738    20475434.038
       238.000         203.000
  22721905.305   -12895474.78749 -10027756.60346  22721905.622    22721915.639
       222.000         171.000
  21951361.407     3742070.29549   2937986.89646  21951360.999    21951371.769
       222.000         170.000
  22368945.221     9904390.65349   7938906.62146  22368946.051    22368957.897
       224.000         167.000
  23642567.957    -3337818.69549  -2574348.22645  23642566.312    23642583.434
       209.000         140.000
                  -1576961.54849  -1166528.78943
       205.000          74.000
  21177564.593   -15489139.52249 -11690047.76847  21177565.037    21177572.248
       236.000         191.000
  24574609.214    -3217897.11649  -1691239.21344  24574608.922    24574628.338
       205.000         127.000
 01  9 24 22  6 30.0000000  0  7G 1G27G22G20G 3G13G 8
  20476028.825    -6887494.51649  -5349705.02347  20476028.680    20476036.563
       238.000         204.000
  22711384.017   -12950764.80649 -10070839.63546  22711382.817    22711394.273
       221.000         171.000
  21967403.873     3826373.16449   3003677.34546  21967403.733    21967413.679
       223.000         170.000
  22387687.793    10002882.75549   8015653.51346  22387688.116    22387699.043
       223.000         166.000
  23631811.989    -3394340.80149  -2618391.20745  23631809.908    23631826.034
       205.000         141.000
  21166810.488   -15545652.81749 -11734084.04847  21166810.942    21166817.602
       236.000         191.000
  24558876.317    -3300575.54949  -1755663.93344  24558874.915    24558893.693
       198.000         119.000
 01  9 24 22  7  0.0000000  0  7G 1G27G22G20G 3G13G 8
  20476696.165    -6883987.52349  -5346972.30547  20476695.749    20476704.407
       238.000         204.000
  22700888.975   -13005915.79549 -10113814.31646  22700889.391    22700899.204
       223.000         171.000
  21983520.771     3911067.72049   3069673.00946  21983519.676    21983531.182
       222.000         170.000
  22406480.373    10101638.34849   8092605.70746  22406479.647    22406491.648
       220.000         165.000
  23621113.234    -3450561.71049  -2662199.46545  23621112.384    23621128.413
       210.000         143.000
  21156099.066   -15601941.62349 -11777945.39447  21156099.567    21156106.497
       235.000         191.000
  24543162.767    -3383150.52849  -1820007.96144  24543161.983    24543179.409
       195.000         123.000
 01  9 24 22  7 30.0000000  0  7G 1G27G22G20G 3G13G 8
  20477428.209    -6880140.60649  -5343974.71747  20477428.052    20477436.204
       240.000         204.000
  22690420.390   -13060928.13849 -10156680.93846  22690419.529    22690430.936
       223.000         171.000
  21999711.647     3996150.91149   3135971.48946  21999711.856    21999722.530
       222.000         170.000
  22425322.581    10200654.35949   8169760.81346  22425323.911    22425334.754
       222.000         165.000
  23610472.324    -3506478.96549  -2705771.14245  23610471.281    23610487.731
       210.000         143.000
  21145430.632   -15658004.24249 -11821630.50047  21145431.273    21145438.117
       236.000         192.000
  24527469.113    -3465621.73649  -1884270.93744  24527467.608    24527487.356
       202.000         131.000
 01  9 24 22  8  0.0000000  0  8G 1G27G22G20G 3G31G13G 8
  20478224.981    -6875953.29449  -5340711.88547  20478224.660    20478232.748
       240.000         204.000
  22679978.095   -13115802.78149 -10199440.26746  22679977.698    22679987.849
       224.000         171.000
  22015975.813     4081619.25949   3202570.10146  22015975.687    22015985.093
       221.000         170.000
  22444213.765    10299927.11949   8247115.99246  22444214.314    22444226.160
       222.000         165.000
  23599889.742    -3562090.24749  -2749104.39545  23599888.337    23599904.536
       205.000         144.000
                  -1354354.78049  -1029554.59944                  24276509.037
       198.000         112.000
  21134805.498   -15713839.81949 -11865138.68547  21134805.639    21134812.749
       235.000         192.000
  24511794.993    -3547989.65249  -1948453.59344  24511794.907    24511811.646
       206.000         128.000
 01  9 24 22  8 30.0000000  0  8G 1G27G22G20G 3G31G13G 8
  20479086.866    -6871424.19449  -5337182.73047  20479086.503    20479095.007
       241.000         204.000
  22669561.931   -13170539.82249 -10242092.37846  22669561.529    22669571.753
       223.000         172.000
  22032312.637     4167470.11449   3269466.76446  22032312.008    22032323.430
       222.000         170.000
  22463153.321    10399454.11849   8324669.26546  22463153.552    22463166.353
       222.000         165.000
  23589365.844    -3617392.63149  -2792196.95645  23589365.772    23589381.204
       208.000         143.000
  24259401.166    -1444113.02149  -1099495.92544  24259400.836    24259421.165
       203.000         128.000
  21124223.982   -15769445.50449 -11908467.74047  21124224.044    21124231.408
       236.000         192.000
  24496140.603    -3630253.82248  -2012555.51144  24496137.797    24496157.286
       187.000         123.000
 01  9 24 22  9  0.0000000  0  8G 1G27G22G20G 3G31G13G 8
  20480014.000    -6866552.11349  -5333386.31647  20480013.761    20480022.116
       240.000         204.000
  22659172.034   -13225139.09849 -10284637.14546  22659170.932    22659181.505
       223.000         172.000
  22048721.973     4253700.90249   3336659.47446  22048721.088    22048732.332
       221.000         169.000
  22482140.767    10499232.89049   8402418.72746  22482141.178    22482153.614
       221.000         165.000
  23578901.274    -3672383.31049  -2835046.60445  23578900.377    23578915.922
       208.000         143.000
  24242321.991    -1533867.40749  -1169434.20745  24242323.429    24242340.943
       206.000         132.000
  21113686.513   -15824819.69249 -11951616.40047  21113686.669    21113693.579
       236.000         192.000
  24480505.447    -3712413.70249  -2076575.90244  24480505.059    24480523.334
       204.000         127.000
 01  9 24 22  9 30.0000000  0  8G 1G27G22G20G 3G31G13G 8
  20481006.454    -6861336.80049  -5329322.44747  20481005.955    20481014.448
       240.000         203.000
  22648807.942   -13279601.77049 -10327075.47746  22648807.467    22648817.740
       223.000         172.000
  22065202.763     4340307.74149   3404145.20846  22065202.508    22065213.377
       222.000         169.000
  22501175.369    10599259.44849   8480361.26346  22501174.731    22501188.609
       220.000         165.000
  23568496.543    -3727059.87249  -2877651.54245  23568496.439    23568512.026
       213.000         145.000
  24225243.722    -1623615.51249  -1239367.57045  24225241.944    24225262.995
       198.000         135.000
  21103193.328   -15879961.54849 -11994584.02747  21103193.633    21103200.595
       237.000         192.000
  24464890.694    -3794469.88849  -2140515.62944  24464891.598    24464910.218
       206.000         131.000
 01  9 24 22 10  0.0000000  0  8G 1G27G22G20G 3G31G13G 8
  20482064.517    -6855776.74349  -5324989.95047  20482064.282    20482072.451
       240.000         203.000
  22638469.802   -13333927.66049 -10369407.21546  22638469.094    22638479.894
       224.000         172.000
  22081754.651     4427288.33749   3471922.18246  22081753.870    22081765.060
       222.000         169.000
  22520256.588    10699531.38949   8558494.99846  22520256.911    22520269.137
       220.000         163.000
  23558152.239    -3781419.29549  -2920009.32145  23558151.501    23558166.709
       207.000         144.000
  24208166.635    -1713354.00549  -1309293.34044  24208166.635    24208185.468
       198.000         131.000
  21092744.764   -15934869.09349 -12037369.08347  21092745.026    21092751.572
       236.000         193.000
  24449295.710    -3876421.97549  -2204374.31544  24449294.626    24449312.217
       200.000         127.000
 01  9 24 22 10 30.0000000  0  8G 1G27G22G20G 3G31G13G 8
  20483188.439    -6849870.42349  -5320387.63447  20483188.414    20483196.099
       241.000         203.000
  22628157.952   -13388116.55249 -10411632.19146  22628157.313    22628168.085
       224.000         173.000
  22098377.216     4514640.21149   3539988.47346  22098377.092    22098388.119
       220.000         169.000
  22539384.014    10800046.39049   8636818.15945  22539382.980    22539396.921
       220.000         162.000
  23547868.833    -3835458.42449  -2962117.54745  23547867.720    23547883.340
       211.000         143.000
  24191092.250    -1803079.40049  -1379208.90244  24191092.765    24191110.632
       209.000         130.000
  21082341.274   -15989539.78849 -12079969.56247  21082341.449    21082348.613
       237.000         193.000
  24433720.282    -3958269.41349  -2268151.27144  24433717.110    24433732.957
       201.000         126.000
 01  9 24 22 11  0.0000000  0  8G 1G27G22G20G 3G31G13G 8
  20484378.333    -6843617.61849  -5315515.32847  20484378.410    20484386.467
       240.000         203.000
  22617871.976   -13442169.34649 -10453751.11746  22617870.984    22617881.838
       223.000         173.000
  22115069.685     4602359.47849   3608341.04546  22115069.386    22115080.674
       222.000         168.000
  22558557.034    10900800.54349   8715327.64745  22558556.566    22558569.297
       220.000         161.000
  23537646.504    -3889175.40049  -3003974.65645  23537645.907    23537662.154
       211.000         144.000
  24174021.211    -1892789.34849  -1449112.59444  24174020.664    24174039.703
       205.000         130.000
  21071983.034   -16043972.48049 -12122384.58347  21071983.230    21071989.733
       236.000         193.000
  24418164.972    -4040012.28749  -2331846.83744  24418163.607    24418183.392
       204.000         131.000
 01  9 24 22 11 30.0000000  0  8G 1G27G22G20G 3G31G13G 8
  20485634.372    -6837017.33849  -5310372.26347  20485634.241    20485642.450
       239.000         203.000
  22607611.771   -13496086.54449 -10495764.41846  22607611.726    22607621.705
       225.000         173.000
  22131831.555     4690443.31549   3676977.68846  22131831.292    22131842.059
       221.000         168.000
  22577774.909    11001790.90249   8794021.19645  22577774.852    22577787.686
       219.000         161.000
  23527486.218    -3942567.45049  -3045578.64845  23527484.891    23527500.867
       211.000         145.000
  24156953.133    -1982481.12049  -1519001.95745  24156950.931    24156971.951
       202.000         134.000
  21061670.322   -16098165.73649 -12164613.04447  21061670.399    21061677.340
       237.000         193.000
  24402629.718    -4121650.95049  -2395461.24244  24402629.801    24402645.290
       200.000         131.000
 01  9 24 22 12  0.0000000  0  8G 1G27G22G20G 3G31G13G 8
  20486956.742    -6830068.27949  -5304957.42347  20486956.745    20486964.385
       240.000         204.000
  22597377.467   -13549868.21849 -10537672.09646  22597376.632    22597387.900
       224.000         173.000
  22148662.357     4778888.97749   3745896.27846  22148662.540    22148673.343
       220.000         168.000
  22597037.316    11103014.85349   8872896.77345  22597037.566    22597049.771
       220.000         160.000
  23517388.337    -3995631.68949  -3086927.15945  23517387.611    23517403.558
       213.000         148.000
  24139889.344    -2072151.08749  -1588874.24945  24139889.262    24139909.748
       210.000         140.000
  21051403.645   -16152117.48149 -12206653.29647  21051403.796    21051411.005
       237.000         193.000
  24387114.033    -4203184.79449  -2458993.86744  24387112.843    24387128.621
       203.000         128.000
 01  9 24 22 12 30.0000000  0  8G 1G27G22G20G 3G31G13G 8
  20488345.774    -6822769.01149  -5299269.69047  20488345.683    20488353.562
       241.000         203.000
  22587168.859   -13603514.27149 -10579474.10646  22587167.140    22587178.833
       224.000         173.000
  22165561.391     4867694.09049   3815094.96246  22165561.151    22165572.136
       220.000         167.000
  22616343.768    11204469.96249   8951952.46845  22616344.111    22616356.596
       219.000         160.000
  23507353.325    -4048365.03049  -3128017.89745  23507352.898    23507368.121
       212.000         145.000
  24122830.664    -2161795.66449  -1658726.89945  24122828.793    24122849.365
       207.000         136.000
  21041183.317   -16205825.54949 -12248503.67847  21041183.302    21041190.149
       237.000         194.000
  24371618.574    -4284613.23349  -2522444.43844  24371618.580    24371638.107
       204.000         131.000
 01  9 24 22 13  0.0000000  0  8G 1G27G22G20G 3G31G13G 8
  20489801.455    -6815119.20549  -5293308.81747  20489801.386    20489809.420
       239.000         203.000
  22576985.955   -13657025.57349 -10621171.10446  22576985.858    22576995.561
       222.000         173.000
  22182528.156     4956854.82949   3884570.75646  22182527.666    22182538.334
       220.000         167.000
  22635693.443    11306152.52149   9031185.39445  22635694.245    22635707.615
       219.000         160.000
  23497381.614    -4100765.36149  -3168849.07145  23497380.392    23497395.581
       210.000         143.000
  24105776.815    -2251412.47049  -1728557.97544  24105774.769    24105793.554
       201.000         131.000
  21031009.532   -16259288.86149 -12290163.34047  21031009.695    21031016.848
       236.000         194.000
  24356143.267    -4365936.87549  -2585813.28245  24356142.723    24356158.013
       205.000         134.000
 01  9 24 22 13 30.0000000  0  8G 1G27G22G20G 3G31G13G 8
  20491324.239    -6807117.00949  -5287073.35147  20491324.002    20491332.097
       240.000         203.000
  22566828.800   -13710401.62349 -10662762.71946  22566828.200    22566838.422
       223.000         174.000
  22199562.271     5046369.19349   3954322.10846  22199562.173    22199572.374
       220.000         166.000
  22655086.003    11408060.18549   9110593.72745  22655085.661    22655099.158
       219.000         160.000
  23487473.909    -4152829.38849  -3209418.22745  23487473.690    23487488.911
       215.000         146.000
  24088728.981    -2340997.84149  -1798364.33045  24088728.121    24088747.639
       206.000         137.000
  21020882.915   -16312504.58449 -12331630.07347  21020883.155    21020889.805
       236.000         194.000
  24340688.101    -4447154.64149  -2649099.66344  24340686.473    24340705.104
       200.000         130.000
 01  9 24 22 14  0.0000000  0  8G 1G27G22G20G 3G31G13G 8
  20492914.032    -6798762.50649  -5280563.36447  20492913.921    20492921.882
       239.000         203.000
  22556697.103   -13763643.60749 -10704249.86646  22556696.774    22556706.055
       225.000         174.000
  22216663.057     5136233.29349   4024345.97346  22216663.054    22216673.509
       220.000         166.000
  22674520.717    11510189.28849   9190174.61145  22674520.636    22674534.086
       219.000         160.000
  23477630.848    -4204555.13349  -3249723.79445  23477629.735    23477646.033
       206.000         146.000
  24071687.875    -2430549.57149  -1868144.50145  24071686.478    24071706.849
       207.000         139.000
  21010803.484   -16365472.07549 -12372903.37647  21010803.923    21010810.496
       237.000         193.000
  24325252.627    -4528267.34349  -2712304.22544  24325250.729    24325268.154
       205.000         127.000
 01  9 24 22 14 30.0000000  0  8G 1G27G22G20G 3G31G13G 8
  20494571.291    -6790053.68949  -5273777.29047  20494571.114    20494579.416
       239.000         203.000
  22546591.098   -13816750.79949 -10745631.98746  22546590.800    22546600.329
       224.000         174.000
  22233829.919     5226445.16749   4094640.83646  22233829.620    22233840.012
       219.000         165.000
  22693997.287    11612538.03449   9269926.64345  22693997.582    22694011.248
       218.000         159.000
  23467852.484    -4255939.24349  -3289763.12745  23467852.124    23467866.403
       211.000         141.000
  24054653.689    -2520063.55249  -1937895.35144  24054654.189    24054670.760
       204.000         131.000
  21000771.845   -16418188.61449 -12413981.13947  21000771.998    21000778.835
       236.000         194.000
  24309837.335    -4609274.00749  -2775426.15044  24309837.590    24309853.529
       207.000         131.000
 01  9 24 22 15  0.0000000  0  8G 1G27G22G20G 3G31G13G 8
  20496295.823    -6780991.12449  -5266715.56447  20496295.790    20496303.960
       240.000         203.000
  22536510.299   -13869724.96449 -10786910.43546  22536509.589    22536519.976
       224.000         174.000
  22251062.047     5317000.38649   4165203.24246  22251061.421    22251072.379
       219.000         165.000
  22713514.723    11715101.73949   9349846.16745  22713515.510    22713526.438
       219.000         159.000
  23458139.408    -4306980.54549  -3329535.39745  23458138.219    23458153.514
       217.000         142.000
  24037626.934    -2609538.09849  -2007615.51944  24037625.558    24037643.987
       201.000         131.000
  20990787.966   -16470653.73249 -12454862.99147  20990788.160    20990794.910
       236.000         193.000
  24294441.855    -4690175.76149  -2838466.23045  24294440.279    24294459.387
       205.000         132.000
 01  9 24 22 15 30.0000000  0  8G 1G27G22G20G 3G31G13G 8
  20498088.243    -6771572.07549  -5259376.06847  20498087.859    20498096.237
       239.000         203.000
  22526455.210   -13922564.82549 -10828084.24246  22526454.700    22526465.059
       224.000         174.000
  22268359.300     5407897.63549   4236032.15546  22268359.086    22268370.298
       219.000         165.000
  22733072.858    11817879.24249   9429932.27945  22733073.641    22733086.057
       218.000         158.000
  23448492.731    -4357674.61849  -3369037.06845  23448492.037    23448507.320
       211.000         147.000
  24020608.522    -2698968.64149  -2077301.26045  24020607.989    24020626.370
       200.000         134.000
  20980852.608   -16522864.07549 -12495546.31847  20980852.798    20980859.476
       236.000         193.000
  24279066.973    -4770970.99749  -2901423.36345  24279066.952    24279084.094
       203.000         133.000
 01  9 24 22 16  0.0000000  0  8G 1G27G22G20G 3G31G13G 8
  20499948.628    -6761795.85149  -5251758.24647  20499948.311    20499956.716
       239.000         203.000
  22516425.497   -13975270.63449 -10869153.57546  22516424.334    22516435.341
       223.000         174.000
  22285721.171     5499133.94049   4307125.27646  22285721.566    22285731.718
       219.000         165.000
  22752671.088    11920867.33449   9510182.50445  22752671.763    22752684.279
       218.000         157.000
  23438912.146    -4408018.93549  -3408266.15845  23438912.319    23438927.492
       210.000         148.000
  24003599.017    -2788352.09249  -2146950.31845  24003597.705    24003616.870
       206.000         135.000
  20970966.116   -16574817.83449 -12536029.70747  20970966.002    20970972.463
       236.000         194.000
  24263712.130    -4851659.63849  -2964297.52444  24263706.516    24263727.479
       204.000         126.000
 01  9 24 22 16 30.0000000  0  8G 1G27G22G20G 3G31G13G 8
  20501877.066    -6751661.84949  -5243861.64647  20501877.026    20501885.155
       240.000         203.000
  22506421.147   -14027843.04349 -10910118.98046  22506421.249    22506431.092
       225.000         175.000
  22303146.840     5590705.95149   4378479.99246  22303146.553    22303157.643
       218.000         164.000
  22772308.892    12024062.78149   9590594.29545  22772309.548    22772322.351
       218.000         157.000
  23429398.830    -4458011.13949  -3447220.88745  23429397.506    23429412.050
       212.000         145.000
  23986599.461    -2877685.52749  -2216560.47145  23986598.094    23986616.489
       209.000         136.000
  20961128.678   -16626513.72549 -12576312.16847  20961128.673    20961135.511
       236.000         194.000
  24248377.829    -4932241.78349  -3027088.69744  24248376.418    24248393.304
       201.000         130.000
 01  9 24 22 17  0.0000000  0  8G 1G27G22G20G 3G31G13G 8
  20503873.788    -6741169.17449  -5235685.55047  20503873.674    20503881.671
       239.000         203.000
  22496442.144   -14080282.44849 -10950980.75146  22496442.327    22496450.634
       224.000         175.000
  22320635.696     5682610.55249   4450093.86546  22320634.676    22320646.164
       219.000         164.000
  22791985.407    12127462.39449   9671165.18045  22791985.107    22791998.326
       217.000         158.000
  23419953.088    -4507649.00049  -3485899.54245  23419951.945    23419965.841
       211.000         144.000
  23969609.621    -2966966.11049  -2286129.36445  23969607.506    23969626.736
       203.000         135.000
  20951340.651   -16677949.94549 -12616392.28247  20951340.689    20951347.554
       236.000         194.000
  24233063.727    -5012717.57349  -3089796.87845  24233062.810    24233080.361
       201.000         133.000
 01  9 24 22 17 30.0000000  0  8G 1G27G22G20G 3G31G13G 8
  20505938.958    -6730316.60749  -5227229.01947  20505938.674    20505947.009
       240.000         203.000
  22486488.459   -14132588.81949 -10991738.86446  22486488.078    22486498.374
       225.000         175.000
  22338187.406     5774845.14149   4521964.87046  22338187.315    22338198.732
       218.000         163.000
  22811700.217    12231063.64349   9751893.15745  22811700.928    22811713.015
       217.000         157.000
  23410575.151    -4556929.42749  -3524299.70845  23410574.227    23410589.318
       212.000         143.000
  23952630.485    -3056190.30849  -2355654.29445  23952630.649    23952646.907
       210.000         134.000
  20941602.394   -16729124.49549 -12656268.50847  20941602.410    20941609.158
       237.000         194.000
  24217769.900    -5093086.40849  -3152421.76845  24217768.358    24217785.785
       207.000         132.000
 01  9 24 22 18  0.0000000  0  8G 1G27G22G20G 3G31G13G 8
  20508072.793    -6719103.30949  -5218491.40347  20508072.777    20508080.645
       239.000         203.000
  22476559.979   -14184762.57949 -11032393.63346  22476560.211    22476569.828
       226.000         175.000
  22355801.269     5867406.77849   4594090.71846  22355801.171    22355812.334
       218.000         163.000
  22831452.915    12334863.48649   9832775.89745  22831452.245    22831465.595
       217.000         158.000
  23401265.669    -4605850.06249  -3562419.47845  23401264.742    23401278.982
       212.000         143.000
  23935662.966    -3145355.10649  -2425133.06845  23935661.257    23935680.140
       206.000         133.000
  20931914.279   -16780035.74549 -12695939.56047  20931914.767    20931921.006
       237.000         194.000
  24202496.489    -5173348.46749  -3214963.50944  24202495.281    24202510.608
       202.000         130.000
 01  9 24 22 18 30.0000000  0  8G 1G27G22G20G 3G31G13G 8
  20510275.464    -6707528.45849  -5209472.05747  20510275.442    20510283.574
       240.000         203.000
  22466656.649   -14236804.18749 -11072945.40846  22466655.968    22466666.401
       224.000         175.000
  22373476.867     5960292.22249   4666468.88146  22373476.934    22373486.924
       219.000         163.000
  22851242.866    12438858.83049   9913810.98845  22851242.744    22851256.591
       218.000         158.000
  23392025.166    -4654408.51049  -3600257.08945  23392023.249    23392038.565
       206.000         143.000
  23918706.881    -3234457.61049  -2494563.22045  23918704.216    23918721.795
       204.000         133.000
  20922276.654   -16830681.56949 -12735403.77747  20922276.679    20922283.685
       236.000         195.000
  24187243.340    -5253503.55449  -3277421.87444  24187242.800    24187257.121
       204.000         131.000
 01  9 24 22 19  0.0000000  0  8G 1G27G22G20G 3G31G13G 8
  20512547.155    -6695590.62849  -5200169.86447  20512546.849    20512555.158
       238.000         203.000
  22456778.536   -14288713.37549 -11113393.99246  22456778.915    22456787.854
       225.000         176.000
  22391213.633     6053499.08849   4739097.50346  22391213.735    22391225.003
       219.000         163.000
  22871069.498    12543047.28949   9994996.54645  22871070.208    22871083.466
       217.000         157.000
  23382854.149    -4702601.72849  -3637810.03745  23382854.277    23382868.682
       210.000         145.000
  23901763.541    -3323494.24849  -2563941.99345  23901763.154    23901782.423
       212.000         137.000
  20912689.886   -16881060.07149 -12774659.69347  20912690.186    20912697.069
       236.000         195.000
  24172010.464    -5333551.14549  -3339796.41245  24172009.986    24172026.596
       203.000         134.000
 01  9 24 22 19 30.0000000  0  8G 1G27G22G20G 3G31G13G 8
  20514888.013    -6683289.41149  -5190584.51047  20514887.809    20514896.207
       238.000         203.000
  22446925.593   -14340490.75549 -11153739.87946  22446925.187    22446935.273
       225.000         176.000
  22409010.903     6147024.05849   4811974.01146  22409010.465    22409022.645
       218.000         163.000
  22890932.120    12647425.30749  10076329.82045  22890933.107    22890946.099
       217.000         157.000
  23373753.035    -4750427.48749  -3675076.70545  23373752.638    23373767.185
       209.000         147.000
  23884833.437    -3412462.24949  -2633267.36545  23884832.554    23884848.838
       208.000         138.000
  20903154.283   -16931169.70049 -12813706.09447  20903154.627    20903161.195
       236.000         195.000
  24156797.854    -5413491.58049  -3402087.40945  24156796.808    24156815.003
       205.000         133.000
 01  9 24 22 20  0.0000000  0  8G 1G27G22G20G 3G31G13G 8
  20517298.202    -6670623.80549  -5180715.21747  20517297.960    20517306.193
       238.000         203.000
  22437097.656   -14392136.44649 -11193983.14246  22437096.971    22437107.090
       224.000         176.000
  22426868.152     6240864.23649   4885096.12446  22426867.633    22426879.417
       218.000         163.000
  22910830.366    12751990.14649  10157808.65945  22910829.613    22910844.646
       217.000         157.000
  23364722.302    -4797883.02549  -3712054.86745  23364722.139    23364736.694
       209.000         146.000
  23867916.632    -3501358.46849  -2702536.77245  23867913.557    23867933.702
       207.000         135.000
  20893670.265   -16981008.40449 -12852541.39447  20893670.603    20893677.340
       237.000         195.000
  24141606.322    -5493324.60449  -3464294.80045  24141607.643    24141620.879
       212.000         132.000
 01  9 24 22 20 30.0000000  0  8G 1G27G22G20G 3G31G13G 8
  20519777.814    -6657593.31749  -5170561.60247  20519777.753    20519785.763
       238.000         203.000
  22427294.701   -14443651.23149 -11234124.40746  22427294.237    22427304.156
       225.000         177.000
  22444784.725     6335016.25549   4958461.22645  22444785.149    22444794.947
       219.000         162.000
  22930763.488    12856738.22049  10239430.28445  22930764.672    22930776.620
       217.000         156.000
  23355762.560    -4844966.37849  -3748743.05245  23355762.152    23355776.804
       210.000         145.000
  23851014.244    -3590179.95149  -2771747.88845  23851013.807    23851030.674
       211.000         139.000
  20884238.012   -17030575.09049 -12891164.72647  20884237.993    20884245.085
       237.000         195.000
  24126435.160    -5573050.48749  -3526418.68145  24126433.348    24126448.320
       202.000         133.000
 01  9 24 22 21  0.0000000  0  8G 1G27G22G20G 3G31G13G 8
  20522327.123    -6644196.65049  -5160122.64547  20522326.679    20522335.014
       238.000         202.000
  22417516.509   -14495035.12249 -11274163.68846  22417515.967    22417525.853
       225.000         177.000
  22462760.270     6429477.64749   5032067.40445  22462760.075    22462770.891
       219.000         162.000
  22950731.094    12961667.42349  10321193.02745  22950732.319    22950745.634
       217.000         156.000
  23346874.120    -4891674.63449  -3785138.98245  23346873.576    23346887.227
       211.000         145.000
  23834126.765    -3678922.75449  -2840897.73245  23834124.009    23834142.123
       208.000         137.000
  20874857.935   -17079867.51749 -12929574.35147  20874858.236    20874864.839
       239.000         195.000
  24111283.959    -5652668.82049  -3588458.65645  24111282.137    24111299.769
       207.000         134.000
 01  9 24 22 21 30.0000000  0  8G 1G27G22G20G 3G31G13G 8
  20524946.311    -6630432.74949  -5149397.53747  20524946.175    20524954.332
       238.000         203.000
  22407763.318   -14546287.93449 -11314100.83546  22407762.669    22407773.171
       225.000         177.000
  22480794.186     6524245.70149   5105912.53145  22480794.240    22480805.165
       220.000         162.000
  22970732.659    13066774.78149  10403094.61145  22970733.152    22970747.095
       218.000         155.000
  23338057.562    -4938005.06149  -3821240.40445  23338057.249    23338071.917
       211.000         146.000
  23817254.743    -3767583.63049  -2909983.81845  23817252.889    23817270.642
       210.000         135.000
  20865530.458   -17128883.34149 -12967768.44847  20865530.674    20865537.182
       237.000         195.000
  24096153.550    -5732179.21449  -3650414.58045  24096152.031    24096169.128
       208.000         136.000
 01  9 24 22 22  0.0000000  0  8G 1G27G22G20G 3G31G13G 8
  20527635.389    -6616301.54749  -5138386.22447  20527635.194    20527643.292
       238.000         203.000
  22398034.840   -14597410.80449 -11353936.71546  22398034.673    22398043.570
       227.000         177.000
  22498885.806     6619316.67949   5179993.71345  22498886.115    22498896.712
       219.000         161.000
  22990767.317    13172056.62549  10485132.13445  22990768.042    22990782.049
       216.000         155.000
  23329313.426    -4983955.93949  -3857046.19645  23329312.483    23329327.835
       212.000         149.000
  23800398.913    -3856160.49749  -2979004.41345  23800397.837    23800413.911
       205.000         140.000
  20856255.813   -17177621.55149 -13005746.22147  20856255.875    20856262.423
       239.000         196.000
  24081043.749    -5811582.14049  -3712286.78645  24081041.412    24081057.948
       202.000         133.000
 01  9 24 22 22 30.0000000  0  8G 1G27G22G20G 3G31G13G 8
  20530394.705    -6601801.27149  -5127087.31447  20530394.634    20530402.993
       238.000         203.000
  22388331.269   -14648403.08549 -11393670.84146  22388330.661    22388341.018
       227.000         177.000
  22517034.453     6714688.54949   5254309.35245  22517034.142    22517044.523
       218.000         161.000
  23010834.807    13277510.89449  10567304.02445  23010835.520    23010849.370
       215.000         154.000
  23320642.002    -5029523.94049  -3892553.54445  23320641.736    23320654.846
       210.000         149.000
  23783559.442    -3944649.30649  -3047956.30345  23783557.266    23783575.546
       204.000         139.000
  20847034.531   -17226079.66049 -13043505.73947  20847034.888    20847041.296
       239.000         196.000
  24065954.004    -5890876.82549  -3774074.61245  24065952.558    24065969.419
       204.000         134.000
 01  9 24 22 23  0.0000000  0  8G 1G27G22G20G 3G31G13G 8
  20533224.453    -6586930.93749  -5115500.05447  20533224.195    20533232.165
       239.000         203.000
  22378652.531   -14699264.98649 -11433303.38446  22378652.701    22378662.053
       227.000         178.000
  22535240.058     6810358.45749   5328857.21345  22535238.919    22535251.297
       217.000         160.000
  23030934.376    13383134.72749  10649608.03045  23030933.816    23030947.636
       215.000         153.000
  23312043.967    -5074706.37949  -3927760.48445  23312044.737    23312057.724
       215.000         150.000
  23766737.710    -4033046.54849  -3116836.92645  23766736.601    23766754.726
       209.000         138.000
  20837866.899   -17274255.56549 -13081045.35147  20837867.175    20837873.880
       238.000         196.000
  24050885.190    -5970062.95449  -3835777.80345  24050884.239    24050901.473
       205.000         138.000
 01  9 24 22 23 30.0000000  0  8G 1G27G22G20G 3G31G13G 8
  20536124.615    -6571690.55049  -5103624.43247  20536124.417    20536132.724
       238.000         203.000
  22368998.361   -14749997.65349 -11472835.23046  22368998.215    22369007.799
       228.000         178.000
  22553501.577     6906322.64549   5403634.39745  22553501.046    22553512.482
       217.000         160.000
  23051065.423    13488924.17949  10732041.11045  23051064.610    23051080.413
       212.000         151.000
  23303519.647    -5119501.58749  -3962665.73645  23303518.970    23303533.598
       212.000         147.000
  23749933.953    -4121350.02049  -3185644.49645  23749933.323    23749948.942
       207.000         140.000
  20828753.134   -17322148.46249 -13118364.44147  20828753.454    20828759.631
       238.000         196.000
  24035836.989    -6049141.42649  -3897397.16945  24035835.048    24035852.438
       203.000         136.000
 01  9 24 22 24  0.0000000  0  8G 1G27G22G20G 3G31G13G 8
  20539095.493    -6556078.41949  -5091459.14947  20539095.300    20539103.672
       237.000         203.000
  22359368.944   -14800600.43449 -11512265.85946  22359369.091    22359378.266
       227.000         178.000
  22571818.554     7002578.99149   5478639.23045  22571818.845    22571828.421
       216.000         159.000
  23071227.840    13594877.01749  10814601.48845  23071226.342    23071241.759
       213.000         151.000
  23295069.336    -5163906.49549  -3997266.80145  23295068.720    23295083.539
       209.000         146.000
  23733148.619    -4209555.43749  -3254375.56045  23733147.974    23733164.772
       212.000         139.000
  20819693.806   -17369755.18149 -13155460.53347  20819694.026    20819700.375
       238.000         196.000
  24020809.175    -6128111.22649  -3958931.83645  24020807.081    24020824.119
       204.000         136.000
 01  9 24 22 24 30.0000000  0  8G 1G27G22G20G 3G31G13G 8
  20542137.232    -6540093.67249  -5079003.52047  20542137.144    20542145.117
       238.000         202.000
  22349764.080   -14851073.59149 -11551595.50946  22349763.681    22349773.058
       227.000         178.000
  22590190.726     7099124.72849   5553869.55645  22590189.977    22590202.813
       216.000         159.000
  23091420.683    13700990.57849  10897287.09745  23091420.332    23091435.972
       214.000         152.000
  23286693.772    -5207918.36749  -4031561.64945  23286694.377    23286708.592
       215.000         150.000
  23716382.970    -4297659.78249  -3323027.98645  23716381.541    23716397.578
       207.000         137.000
  20810689.286   -17417074.17049 -13192332.42847  20810689.549    20810696.051
       238.000         196.000
  24005802.319    -6206972.11349  -4020381.61145  24005801.779    24005818.829
       206.000         138.000
 01  9 24 22 25  0.0000000  0  8G 1G27G22G20G 3G31G13G 8
  20545249.937    -6523736.38249  -5066257.59347  20545249.650    20545258.157
       238.000         203.000
  22340183.684   -14901418.26349 -11590825.02146  22340183.543    22340193.075
       226.000         178.000
  22608617.102     7195955.95749   5629322.34645  22608617.260    22608628.700
       215.000         158.000
  23111643.380    13807261.15949  10980095.04445  23111643.252    23111659.079
       213.000         151.000
  23278393.932    -5251535.56349  -4065548.90945  23278394.473    23278408.279
       215.000         152.000
  23699636.494    -4385660.58749  -3391599.65745  23699634.594    23699651.680
       206.000         134.000
  20801739.674   -17464104.50849 -13228979.39147  20801739.965    20801746.536
       239.000         197.000
  23990816.215    -6285725.03749  -4081747.29745  23990814.645    23990831.014
       207.000         138.000
 01  9 24 22 25 30.0000000  0  8G 1G27G22G20G 3G31G13G 8
  20548433.610    -6507006.17149  -5053221.07847  20548433.356    20548441.218
       238.000         203.000
  22330627.512   -14951635.09849 -11629954.92846  22330627.328    22330637.187
       227.000         179.000
  22627097.072     7293069.31949   5704994.97445  22627096.947    22627109.034
       216.000         158.000
  23131895.466    13913685.20349  11063022.58645  23131895.552    23131911.789
       214.000         151.000
  23270168.960    -5294756.53349  -4099227.47645  23270168.647    23270183.467
       210.000         147.000
  23682910.536    -4473555.08449  -3460088.50045  23682910.103    23682927.656
       204.000         137.000
  20792845.237   -17510844.73849 -13265400.29547  20792845.303    20792852.107
       237.000         197.000
  23975850.297    -6364370.20549  -4143028.97445  23975849.275    23975866.054
       208.000         139.000
 01  9 24 22 26  0.0000000  0  8G 1G27G22G20G 3G31G13G 8
  20551688.739    -6489900.40449  -5039891.92247  20551688.592    20551697.297
       238.000         203.000
  22321096.110   -15001722.58149 -11668984.06346  22321095.757    22321105.497
       228.000         179.000
  22645630.750     7390463.84349   5780886.69445  22645630.686    22645643.095
       215.000         158.000
  23152176.476    14020261.49949  11146068.75245  23152176.482    23152190.852
       213.000         149.000
  23262020.449    -5337576.73949  -4132593.71145  23262020.049    23262033.400
       211.000         147.000
  23666205.604    -4561338.22049  -3528490.61645  23666203.508    23666220.204
       201.000         132.000
  20784006.745   -17557291.11149 -13301592.22447  20784006.851    20784013.626
       237.000         197.000
  23960905.162    -6442905.84649  -4204225.32145  23960904.801    23960919.970
       208.000         137.000
 01  9 24 22 26 30.0000000  0  8G 1G27G22G20G 3G31G13G 8
  20555015.335    -6472419.21349  -5026270.23447  20555015.479    20555023.318
       239.000         203.000
  22311589.121   -15051681.80749 -11707913.26146  22311588.888    22311599.066
       228.000         179.000
  22664217.327     7488135.76649   5856994.56445  22664217.189    22664227.717
       216.000         157.000
  23172485.674    14126986.54349  11229230.84045  23172485.622    23172500.822
       212.000         148.000
  23253948.614    -5379994.64249  -4165646.47445  23253948.436    23253961.608
       213.000         150.000
  23649522.463    -4649007.42949  -3596803.96145  23649521.587    23649539.875
       207.000         138.000
  20775224.355   -17603442.70249 -13337554.45547  20775224.461    20775231.393
       237.000         197.000
  23945981.040    -6521332.51349  -4265336.78445  23945980.443    23945995.081
       210.000         139.000
 01  9 24 22 27  0.0000000  0  8G 1G27G22G20G 3G31G13G 8
  20558413.502    -6454561.82049  -5012355.39347  20558413.327    20558421.661
       238.000         202.000
  22302106.476   -15101513.36049 -11746742.97346  22302106.123    22302116.414
       228.000         179.000
  22682855.921     7586081.80249   5933316.01445  22682855.316    22682867.352
       214.000         156.000
  23192822.584    14233857.07549  11312506.25845  23192822.403    23192838.932
       211.000         148.000
  23245953.629    -5422008.50849  -4198384.44345  23245953.002    23245966.357
       208.000         147.000
  23632861.517    -4736559.98849  -3665026.41845  23632859.182    23632876.493
       204.000         139.000
  20766498.361   -17649297.91449 -13373285.74247  20766498.402    20766505.151
       238.000         197.000
  23931077.451    -6599650.63249  -4326363.62445  23931077.250    23931091.359
       208.000         138.000
 01  9 24 22 27 30.0000000  0  8G 1G27G22G20G 3G31G13G 8
  20561883.566    -6436326.49949  -4998146.06647  20561883.214    20561891.580
       238.000         202.000
  22292648.280   -15151216.44249 -11785472.57846  22292648.601    22292657.296
       229.000         179.000
  22701546.223     7684300.12849   6009849.65445  22701545.427    22701558.969
       215.000         156.000
  23213186.917    14340870.97149  11395893.42845  23213187.904    23213202.496
       211.000         148.000
  23238035.918    -5463614.86049  -4230804.80245  23238035.333    23238051.060
       208.000         149.000
  23616223.450    -4823991.50149  -3733154.50345  23616222.469    23616238.900
       207.000         140.000
  20757829.292   -17694854.00449 -13408783.94447  20757829.304    20757836.138
       236.000         197.000
  23916194.634    -6677858.74749  -4387304.73345  23916193.963    23916209.244
       210.000         142.000
 01  9 24 22 28  0.0000000  0  8G 1G27G22G20G 3G31G13G 8
  20565425.606    -6417713.07249  -4983642.10747  20565425.262    20565433.891
       238.000         202.000
  22283214.392   -15200791.67649 -11824102.54046  22283214.072    22283223.652
       227.000         179.000
  22720287.828     7782787.32549   6086592.80945  22720287.912    22720299.116
       215.000         156.000
  23233577.871    14448024.86049  11479389.66745  23233577.119    23233594.043
       211.000         148.000
  23230196.359    -5504811.60849  -4262906.04345  23230195.730    23230209.525
       209.000         150.000
  23599609.255    -4911299.41049  -3801186.30945  23599608.181    23599624.882
       207.000         143.000
  20749217.397   -17740109.49949 -13444047.91747  20749217.466    20749224.390
       237.000         198.000
  23901332.707    -6755957.58749  -4448160.73445  23901331.183    23901347.463
       207.000         141.000
 01  9 24 22 28 30.0000000  0  8G 1G27G22G20G 3G31G13G 8
  20569039.648    -6398721.01049  -4968843.11447  20569039.440    20569047.833
       238.000         202.000
  22273804.682   -15250239.56349 -11862633.27146  22273804.636    22273814.021
       227.000         180.000
  22739080.028     7881540.37449   6163543.10545  22739079.923    22739090.897
       215.000         156.000
  23253994.808    14555315.48549  11562992.44745  23253995.474    23254011.386
       212.000         148.000
  23222434.929    -5545596.91249  -4294686.60845  23222435.333    23222449.656
       210.000         151.000
  23583018.880    -4998480.63549  -3869119.36145  23583017.367    23583034.249
       208.000         142.000
  20740663.118   -17785062.47849 -13479076.16747  20740663.427    20740669.700
       237.000         198.000
  23886491.396    -6833947.12249  -4508931.56645  23886490.467    23886505.876
       205.000         139.000
 01  9 24 22 29  0.0000000  0  8G 1G27G22G20G 3G31G13G 8
  20572726.002    -6379349.16249  -4953748.17647  20572725.808    20572734.450
       238.000         202.000
  22264419.225   -15299559.88649 -11901064.59746  22264419.483    22264428.298
       228.000         180.000
  22757922.279     7980556.78449   6240698.61345  22757921.369    22757933.604
       214.000         156.000
  23274437.432    14662740.52949  11646699.95545  23274437.842    23274452.843
       212.000         148.000
  23214752.367    -5585968.02949  -4326144.49245  23214752.701    23214766.896
       213.000         150.000
  23566453.623    -5085531.28749  -3936950.75645  23566453.114    23566468.985
       207.000         142.000
  20732166.751   -17829710.96249 -13513867.14047  20732167.189    20732173.438
       236.000         198.000
  23871671.078    -6911827.11349  -4569617.01445  23871671.336    23871686.223
       209.000         139.000
 01  9 24 22 29 30.0000000  0  8G 1G27G22G20G 3G31G13G 8
  20576484.658    -6359597.45549  -4938357.24847  20576484.396    20576492.803
       238.000         202.000
  22255057.879   -15348753.62849 -11939397.29046  22255057.384    22255067.330
       228.000         180.000
  22776813.956     8079832.90449   6318056.50845  22776814.529    22776825.425
       215.000         155.000
  23294904.964    14770296.35049  11730509.39045  23294905.123    23294920.745
       215.000         148.000
  23207149.148    -5625923.03749  -4357278.12945  23207149.095    23207162.471
       210.000         149.000
  23549913.218    -5172449.07949  -4004678.58645  23549910.656    23549928.092
       200.000         141.000
  20723728.531   -17874053.99149 -13548420.10147  20723728.721    20723735.356
       237.000         198.000
  23856871.739    -6989597.88549  -4630217.37745  23856870.252    23856886.611
       209.000         140.000
 01  9 24 22 30  0.0000000  0  8G 1G27G22G20G 3G31G13G 8
  20580315.810    -6339464.68049  -4922669.38047  20580315.774    20580323.864
       238.000         202.000
  22245720.808   -15397820.39249 -11977631.06946  22245720.828    22245729.772
       228.000         180.000
  22795754.657     8179366.33849   6395614.90245  22795753.918    22795766.264
       215.000         155.000
  23315396.942    14877980.48149  11814418.80145  23315398.156    23315412.015
       213.000         148.000
  23199625.456    -5665459.38549  -4388085.51545  23199625.983    23199638.796
       210.000         148.000
  23533399.019    -5259229.98449  -4072299.69845  23533398.897    23533415.311
       209.000         144.000
  20715348.910   -17918088.92949 -13582732.99247  20715349.132    20715355.536
       237.000         198.000
  23842093.017    -7067258.93649  -4690732.25845  23842091.114    23842108.246
       205.000         139.000
 01  9 24 22 30 30.0000000  0  8G 1G27G22G20G 3G31G13G 8
  20584219.514    -6318950.51149  -4906684.32647  20584219.461    20584227.617
       238.000         202.000
  22236407.645   -15446760.93149 -12015766.44446  22236407.535    22236416.821
       227.000         181.000
  22814743.692     8279154.01349   6473371.40145  22814744.061    22814755.207
       215.000         155.000
  23335912.642    14985789.70649  11898425.66745  23335912.984    23335929.102
       212.000         148.000
  23192182.065    -5704574.74349  -4418564.91145  23192181.927    23192195.989
       212.000         151.000
  23516911.602    -5345871.18049  -4139812.04245  23516909.982    23516925.060
       207.000         141.000
  20707028.204   -17961814.35449 -13616804.70347  20707028.153    20707034.624
       236.000         198.000
  23827335.171    -7144810.53549  -4751161.86445  23827334.550    23827350.687
       208.000         137.000
 01  9 24 22 31  0.0000000  0  8G 1G27G22G20G 3G31G13G 8
  20588195.935    -6298054.32349  -4890401.59547  20588195.789    20588204.289
       239.000         202.000
  22227118.441   -15495575.60949 -12053803.75546  22227118.016    22227127.319
       227.000         181.000
  22833780.536     8379192.70449   6551323.49445  22833780.313    22833792.998
       213.000         156.000
  23356451.618    15093720.88549  11982527.54545  23356453.234    23356466.830
       214.000         146.000
  23184818.990    -5743267.35049  -4448714.87845  23184818.544    23184832.867
       212.000         150.000
  23500451.208    -5432369.34349  -4207212.88245  23500450.956    23500467.161
       211.000         142.000
  20698766.706   -18005228.41149 -13650633.79347  20698767.072    20698773.528
       236.000         199.000
  23812598.458    -7222252.80149  -4811506.30845  23812596.572    23812614.344
       208.000         141.000
 01  9 24 22 31 30.0000000  0  8G 1G27G22G20G 3G31G13G 8
  20592245.206    -6276775.27749  -4873820.52847  20592245.385    20592253.210
       238.000         202.000
  22217853.193   -15544264.49349 -12091743.04746  22217852.751    22217862.385
       227.000         181.000
  22852864.478     8479479.81649   6629469.15845  22852863.272    22852876.140
       214.000         154.000
  23377013.389    15201771.31649  12066722.39045  23377014.050    23377029.243
       216.000         147.000
  23177536.827    -5781534.78049  -4478533.51645  23177536.945    23177550.678
       213.000         150.000
  23484018.839    -5518721.14649  -4274499.68145  23484016.604    23484033.016
       205.000         140.000
  20690564.900   -18048329.13149 -13684218.72347  20690564.990    20690571.638
       236.000         199.000
  23797882.382    -7299585.40849  -4871765.24945  23797880.960    23797896.626
       207.000         140.000
 01  9 24 22 32  0.0000000  0  8G 1G27G22G20G 3G31G13G 8
  20596367.534    -6255112.30849  -4856940.30547  20596367.501    20596376.113
       238.000         202.000
  22208611.938   -15592827.30049 -12129584.09746  22208611.768    22208621.318
       227.000         181.000
  22871995.450     8580013.05549   6707806.60845  22871995.547    22872006.235
       216.000         155.000
  23397597.390    15309938.53949  12151008.19445  23397597.800    23397612.550
       213.000         147.000
  23170336.102    -5819374.48349  -4508018.87445  23170336.710    23170349.802
       212.000         151.000
  23467614.666    -5604923.16949  -4341669.75445  23467613.519    23467631.155
       206.000         136.000
  20682423.112   -18091114.30549 -13717557.76847  20682423.406    20682429.751
       236.000         199.000
  23783187.423    -7376807.85249  -4931938.37045  23783188.042    23783201.526
       211.000         140.000
 01  9 24 22 32 30.0000000  0  8G 1G27G22G20G 3G31G13G 8
  20600562.907    -6233065.51449  -4839761.00247  20600562.677    20600570.634
       238.000         202.000
  22199394.435   -15641265.06649 -12167327.69946  22199393.060    22199403.087
       227.000         181.000
  22891172.638     8680788.54449   6786332.81445  22891172.401    22891184.765
       215.000         155.000
  23418202.829    15418218.64349  12235381.98945  23418202.566    23418217.727
       213.000         146.000
  23163217.067    -5856785.08149  -4537169.89145  23163217.088    23163231.014
       212.000         151.000
  23451240.051    -5690972.65249  -4408721.04045  23451240.804    23451255.539
       205.000         140.000
  20674341.578   -18133582.76549 -13750650.02547  20674342.201    20674348.286
       238.000         199.000
  23768513.334    -7453920.78949  -4992026.20845  23768511.072    23768526.103
       204.000         139.000
 01  9 24 22 33  0.0000000  0  8G 1G27G22G20G 3G31G13G 8
  20604831.590    -6210633.44949  -4822281.49047  20604831.392    20604839.775
       238.000         202.000
  22190200.687   -15689577.65649 -12204973.76546  22190200.464    22190210.144
       227.000         181.000
  22910395.329     8781804.19549   6865046.17945  22910394.824    22910406.591
       212.000         154.000
  23438829.021    15526609.45249  12319842.03945  23438828.796    23438845.491
       212.000         146.000
  23156180.230    -5893763.61949  -4565984.19145  23156179.820    23156193.863
       210.000         153.000
  23434894.731    -5776865.89449  -4475650.51045  23434891.802    23434909.015
       204.000         139.000
  20666320.713   -18175732.48649 -13783493.91947  20666321.343    20666327.284
       237.000         199.000
  23753859.872    -7530923.76549  -5052028.28045  23753858.116    23753874.165
       204.000         139.000
 01  9 24 22 33 30.0000000  0  8G 1G27G22G20G 3G31G13G 8
  20609173.850    -6187814.96049  -4804500.86247  20609173.556    20609182.199
       238.000         202.000
  22181030.952   -15737764.44249 -12242521.82446  22181030.052    22181040.285
       228.000         180.000
  22929663.359     8883057.79849   6943944.95045  22929662.605    22929674.761
       214.000         153.000
  23459475.832    15635108.89749  12404386.72445  23459475.533    23459490.902
       209.000         145.000
  23149226.043    -5930307.34149  -4594459.70045  23149225.565    23149239.238
       212.000         151.000
  23418580.184    -5862598.53849  -4542454.93445  23418580.514    23418595.616
       207.000         141.000
  20658361.161   -18217560.31249 -13816086.98747  20658361.254    20658367.960
       237.000         199.000
  23739227.497    -7607815.93749  -5111944.01145  23739226.086    23739243.645
       206.000         138.000
 01  9 24 22 34  0.0000000  0  8G 1G27G22G20G 3G31G13G 8
  20613589.515    -6164610.31149  -4786419.33547  20613589.529    20613597.496
       238.000         202.000
  22171884.830   -15785826.61449 -12279972.76146  22171884.734    22171894.363
       227.000         181.000
  22948976.026     8984545.51649   7023026.15345  22948976.194    22948988.470
       214.000         153.000
  23480142.549    15743712.96949  12489012.95145  23480142.446    23480159.789
       210.000         146.000
  23142354.877    -5966414.60849  -4622595.14345  23142355.581    23142368.372
       215.000         149.000
  23402296.533    -5948168.62249  -4609132.65045  23402294.978    23402311.510
       205.000         143.000
  20650462.938   -18259065.63749 -13848428.74947  20650463.312    20650469.831
       237.000         200.000
  23724616.033    -7684598.00949  -5171773.99045  23724615.071    23724629.961
       205.000         138.000
 01  9 24 22 34 30.0000000  0  8G 1G27G22G20G 3G31G13G 8
  20618078.944    -6141018.40249  -4768036.03947  20618078.711    20618086.934
       238.000         202.000
  22162762.582   -15833763.87149 -12317326.36746  22162762.559    22162771.519
       228.000         181.000
  22968332.715     9086264.96149   7102287.91145  22968332.264    22968344.228
       214.000         152.000
  23500828.792    15852419.07049  12573718.66345  23500829.894    23500844.611
       212.000         147.000
  23135567.525    -6002083.12949  -4650388.68545  23135566.541    23135580.631
       213.000         153.000
  23386044.452    -6033572.39049  -4675680.75645  23386044.069    23386059.984
       210.000         145.000
  20642626.502   -18300246.20549 -13880517.45747  20642626.707    20642632.880
       237.000         200.000
  23710025.527    -7761269.66349  -5231517.85845  23710024.472    23710040.558
       203.000         138.000
 01  9 24 22 35  0.0000000  0  8G 1G27G22G20G 3G31G13G 8
  20622642.093    -6117038.86649  -4749350.70747  20622641.792    20622650.052
       238.000         202.000
  22153664.157   -15881576.71349 -12354583.02346  22153664.547    22153673.688
       228.000         181.000
  22987732.821     9188212.97149   7181727.76345  22987731.984    22987744.377
       212.000         152.000
  23521533.950    15961224.13849  12658501.51645  23521533.261    23521551.604
       210.000         146.000
  23128863.863    -6037311.21649  -4677838.98945  23128862.042    23128877.371
       210.000         153.000
  23369824.809    -6118807.24149  -4742097.32045  23369823.318    23369839.089
       207.000         145.000
  20634852.130   -18341100.59849 -13912352.00247  20634852.519    20634858.645
       237.000         200.000
  23695456.176    -7837831.19749  -5291175.95945  23695456.477    23695470.604
       208.000         139.000
 01  9 24 22 35 30.0000000  0  8G 1G27G22G20G 3G31G13G 8
  20627278.914    -6092672.29849  -4730363.78047  20627278.772    20627287.217
       238.000         202.000
  22144589.101   -15929266.54849 -12391743.83346  22144589.260    22144597.881
       227.000         181.000
  23007175.550     9290385.41449   7261342.52445  23007175.684    23007188.486
       212.000         152.000
  23542257.038    16070123.94349  12743358.15545  23542256.955    23542274.982
       211.000         147.000
  23122243.912    -6072098.12149  -4704945.54445  23122244.783    23122256.482
       215.000         152.000
  23353637.358    -6203870.84049  -4808380.36445  23353637.014    23353652.770
       211.000         147.000
  20627140.009   -18381628.15249 -13943931.87047  20627140.058    20627146.534
       237.000         200.000
  23680907.522    -7914283.72849  -5350749.12645  23680904.911    23680922.181
       207.000         139.000
 01  9 24 22 36  0.0000000  0  8G 1G27G22G20G 3G31G13G 8
  20631989.887    -6067915.87549  -4711073.07747  20631989.801    20631998.066
       238.000         201.000
  22135537.721   -15976831.33249 -12428807.21146  22135537.057    22135546.660
       227.000         182.000
  23026661.132     9392781.96649   7341131.90345  23026660.425    23026672.973
       212.000         151.000
  23562998.256    16179118.11149  12828288.32845  23562998.725    23563014.342
       210.000         145.000
  23115708.876    -6106439.19949  -4731704.71545  23115709.188    23115721.773
       215.000         151.000
  23337483.911    -6288757.24649  -4874525.40245  23337482.337    23337497.975
       209.000         147.000
  20619490.880   -18421824.41849 -13975253.58947  20619491.153    20619497.379
       237.000         200.000
  23666380.058    -7990624.80549  -5410235.44045  23666378.497    23666393.350
       208.000         139.000
 01  9 24 22 36 30.0000000  0  8G 1G27G22G20G 3G31G13G 8
  20636775.023    -6042770.08449  -4691478.97247  20636774.938    20636783.081
       237.000         201.000
  22126509.888   -16024272.45649 -12465774.23746  22126509.706    22126518.768
       228.000         182.000
  23046188.654     9495398.60949   7421092.78445  23046188.845    23046200.125
       210.000         151.000
  23583756.592    16288202.45549  12913288.79145  23583757.105    23583772.546
       212.000         145.000
  23109258.883    -6140333.31949  -4758115.52745  23109257.894    23109272.954
       211.000         151.000
  23321364.414    -6373464.40749  -4940530.73745  23321363.366    23321378.861
       212.000         147.000
  20611904.887   -18461688.86749 -14006316.75447  20611905.115    20611911.430
       237.000         200.000
  23651873.743    -8066855.47749  -5469635.73345  23651872.649    23651888.596
       204.000         140.000
 01  9 24 22 37  0.0000000  0  8G 1G27G22G20G 3G31G13G 8
  20641634.364    -6017234.05049  -4671580.77647  20641634.244    20641642.527
       239.000         202.000
  22117505.637   -16071589.74649 -12502644.76946  22117505.739    22117514.655
       228.000         182.000
  23065757.359     9598232.81049   7501223.17945  23065757.588    23065768.750
       210.000         150.000
  23604531.353    16397374.44249  12998357.50845  23604532.152    23604546.428
       210.000         143.000
  23102894.506    -6173778.23649  -4784176.35945  23102894.109    23102907.100
       214.000         153.000
  23305279.961    -6457988.73649  -5006393.62945  23305279.291    23305294.511
       210.000         151.000
  20604382.444   -18501219.37049 -14037119.69747  20604382.723    20604389.259
       237.000         200.000
  23637388.494    -8142975.25749  -5528949.59045  23637387.127    23637401.710
       207.000         140.000
 01  9 24 22 37 30.0000000  0  8G 1G27G22G20G 3G31G13G 8
  20646568.054    -5991307.35249  -4651378.17447  20646567.749    20646576.291
       237.000         202.000
  22108524.865   -16118783.71149 -12539419.20846  22108524.557    22108533.493
       228.000         182.000
  23085366.909     9701281.72749   7581520.89145  23085365.964    23085378.206
       211.000         149.000
  23625322.406    16506630.99749  13083492.18145  23625322.520    23625339.925
       209.000         143.000
  23096615.939    -6206772.12149  -4809885.72845  23096615.376    23096630.194
       215.000         153.000
  23289230.484    -6542327.00049  -5072111.49745  23289229.182    23289244.791
       212.000         149.000
  20596923.895   -18540414.09249 -14067660.99247  20596924.006    20596930.433
       237.000         201.000
  23622924.084    -8218984.62649  -5588177.41845  23622923.221    23622937.591
       207.000         141.000
 01  9 24 22 38  0.0000000  0  8G 1G27G22G20G 3G31G13G 8
  20651576.273    -5964988.99149  -4630870.37647  20651576.051    20651584.522
       238.000         201.000
  22099567.617   -16165853.92649 -12576097.21546  22099567.388    22099576.675
       228.000         183.000
  23105016.810     9804542.87949   7661983.98945  23105017.090    23105029.680
       210.000         149.000
  23646128.934    16615969.79449  13168690.88045  23646129.585    23646146.193
       209.000         141.000
  23090423.515    -6239312.26949  -4835241.54145  23090422.563    23090435.760
       214.000         153.000
  23273217.509    -6626475.48449  -5137681.53345  23273216.997    23273231.922
       215.000         152.000
  20589529.699   -18579270.71249 -14097938.83347  20589530.195    20589536.332
       237.000         201.000
  23608480.988    -8294882.82249  -5647318.64845  23608480.149    23608494.572
       206.000         141.000
 01  9 24 22 38 30.0000000  0  8G 1G27G22G20G 3G31G13G 8
  20656659.106    -5938278.66349  -4610057.16347  20656658.943    20656667.531
       239.000         202.000
  22090633.809   -16212800.84749 -12612679.16046  22090634.322    22090642.589
       228.000         183.000
  23124706.671     9908013.28349   7742610.13945  23124705.929    23124720.350
       211.000         148.000
  23666950.473    16725387.46549  13253951.06045  23666950.351    23666967.498
       210.000         141.000
  23084317.948    -6271397.32849  -4860242.73145  23084317.410    23084332.534
       214.000         153.000
  23257241.037    -6710431.49349  -5203101.53145  23257239.888    23257255.740
       213.000         153.000
  20582200.072   -18617787.93449 -14127952.20847  20582200.419    20582206.443
       236.000         201.000
  23594058.987    -8370670.15349  -5706373.44845  23594057.884    23594073.439
       211.000         144.000
 01  9 24 22 39  0.0000000  0  8G 1G27G22G20G 3G31G13G 8
  20661816.490    -5911176.42349  -4588938.56347  20661816.122    20661824.893
       238.000         201.000
  22081723.365   -16259625.41249 -12649165.75946  22081723.351    22081732.407
       229.000         183.000
  23144435.825    10011689.49149   7823396.64545  23144435.960    23144448.777
       210.000         148.000
  23687786.575    16834880.84049  13339270.22545  23687787.426    23687802.989
       207.000         140.000
  23078299.045    -6303025.65149  -4884888.04845  23078299.016    23078312.465
       214.000         152.000
  23241301.765    -6794192.14549  -5268369.34045  23241301.332    23241316.048
       214.000         154.000
  20574935.265   -18655964.42049 -14157700.07147  20574935.309    20574941.868
       237.000         201.000
  23579657.911    -8446347.06449  -5765342.20445  23579657.803    23579671.820
       208.000         145.000
 01  9 24 22 39 30.0000000  0  8G 1G27G22G20G 3G31G13G 8
  20667048.569    -5883681.77049  -4567514.18347  20667048.460    20667056.739
       238.000         201.000
  22072836.246   -16306327.60949 -12685557.01046  22072835.944    22072845.663
       228.000         183.000
  23164203.607    10115568.84749   7904341.43845  23164203.466    23164215.062
       211.000         148.000
  23708636.752    16944446.97649  13424646.07145  23708638.231    23708653.129
       210.000         141.000
  23072367.575    -6334195.18949  -4909175.81045  23072366.843    23072381.894
       213.000         153.000
  23225400.275    -6877753.84649  -5333482.09045  23225398.931    23225414.940
       211.000         155.000
  20567735.696   -18693798.09049 -14187180.81047  20567735.823    20567742.476
       237.000         201.000
  23565278.076    -8521913.40049  -5824224.82145  23565277.328    23565291.727
       210.000         145.000
 01  9 24 22 40  0.0000000  0  8G 1G27G22G20G 3G31G13G 8
  20672355.489    -5855793.97549  -4545783.46547  20672355.416    20672363.963
       238.000         201.000
  22063972.356   -16352907.33649 -12721852.83046  22063971.740    22063981.109
       228.000         182.000
  23184009.500    10219648.81849   7985442.57545  23184008.505    23184022.688
       209.000         148.000
  23729500.407    17054083.19749  13510076.55845  23729501.508    23729518.895
       208.000         141.000
  23066523.754    -6364903.72649  -4933104.39345  23066523.258    23066537.352
       214.000         152.000
  23209537.385    -6961112.96249  -5398436.99545  23209536.522    23209551.295
       214.000         155.000
  20560601.804   -18731286.98049 -14216392.88947  20560602.111    20560608.449
       236.000         201.000
  23550919.336    -8597368.97249  -5883021.17545  23550918.798    23550933.139
       212.000         146.000
 01  9 24 22 40 30.0000000  0  8G 1G27G22G20G 3G31G13G 8
  20677737.258    -5827512.68849  -4523746.12947  20677737.110    20677745.353
       238.000         201.000
  22055131.631   -16399365.00349 -12758053.53646  22055131.670    22055140.630
       229.000         183.000
  23203852.969    10323926.51649   8066697.77745  23203851.348    23203865.887
       208.000         147.000
  23750376.649    17163786.48849  13595559.26645  23750377.226    23750393.419
       211.000         142.000
  23060768.069    -6395149.53249  -4956672.37945  23060767.813    23060780.862
       212.000         152.000
  23193713.660    -7044266.63449  -5463231.82445  23193712.637    23193727.440
       213.000         153.000
  20553533.756   -18768429.51949 -14245335.08447  20553533.815    20553540.165
       237.000         201.000
  23536581.589    -8672713.93649  -5941731.28145  23536579.485    23536594.755
       209.000         145.000
 01  9 24 22 41  0.0000000  0  8G 1G27G22G20G 3G31G13G 8
  20683194.058    -5798836.97349  -4501401.44947  20683193.753    20683202.626
       237.000         201.000
  22046314.350   -16445700.35049 -12794158.93546  22046314.354    22046323.727
       228.000         183.000
  23223733.378    10428399.59849   8148105.24145  23223732.505    23223746.004
       209.000         147.000
  23771265.268    17273554.49049  13681092.41745  23771267.124    23771281.834
       209.000         141.000
  23055100.883    -6424930.21449  -4979877.96745  23055100.236    23055113.449
       212.000         151.000
  23177929.658    -7127211.07949  -5527863.59245  23177928.894    23177943.076
       213.000         152.000
  20546532.073   -18805223.45649 -14274005.64047  20546532.611    20546538.754
       237.000         201.000
  23522265.069    -8747947.64949  -6000354.72745  23522265.175    23522278.112
       210.000         146.000
 01  9 24 22 41 30.0000000  0  8G 1G27G22G20G 3G31G13G 8
  20688725.977    -5769766.53549  -4478749.20347  20688726.123    20688734.553
       238.000         201.000
  22037520.181   -16491913.92649 -12830169.44146  22037520.032    22037529.186
       228.000         183.000
  23243650.599    10533064.83249   8229662.40545  23243651.645    23243663.459
       210.000         147.000
  23792165.446    17383383.98449  13766673.47845  23792164.937    23792181.745
       206.000         140.000
  23049522.631    -6454244.21949  -5002719.89245  23049522.388    23049535.397
       213.000         152.000
  23162185.985    -7209943.41249  -5592330.09445  23162184.963    23162198.719
       213.000         150.000
  20539597.027   -18841667.29349 -14302403.39547  20539597.303    20539603.516
       237.000         201.000
  23507969.221    -8823070.65649  -6058891.89045  23507966.573    23507981.885
       208.000         144.000
 01  9 24 22 42  0.0000000  0  8G 1G27G22G20G 3G31G13G 8
  20694333.148    -5740300.64749  -4455788.80547  20694333.081    20694341.589
       238.000         201.000
  22028749.051   -16538005.83549 -12866085.13046  22028748.615    22028757.407
       229.000         183.000
  23263604.195    10637919.88049   8311367.47145  23263604.961    23263617.338
       210.000         148.000
  23813076.805    17493272.19749  13852300.29445  23813076.780    23813094.027
       206.000         140.000
  23044033.323    -6483089.59549  -5025196.63545  23044031.929    23044045.577
       214.000         153.000
  23146483.438    -7292459.83449  -5656628.33645  23146481.924    23146497.728
       215.000         151.000
  20532728.979   -18877758.76149 -14330526.57547  20532729.147    20532735.571
       237.000         201.000
  23493694.698    -8898082.42949  -6117342.39445  23493694.863    23493709.029
       212.000         146.000
 01  9 24 22 42 30.0000000  0  8G 1G27G22G20G 3G31G13G 8
  20700015.677    -5710438.92949  -4432519.97947  20700015.677    20700024.169
       238.000         201.000
  22020001.172   -16583976.03749 -12901905.97446  22020000.551    22020009.762
       229.000         183.000
  23283593.151    10742961.87849   8393218.22745  23283592.454    23283606.556
       211.000         147.000
  23833998.671    17603216.58949  13937970.89145  23833998.726    23834016.888
       207.000         140.000
  23038633.848    -6511464.31949  -5047306.68945  23038633.716    23038645.220
       213.000         152.000
  23130822.633    -7374757.00649  -5720755.71645  23130821.366    23130836.128
       216.000         152.000
  20525928.298   -18913496.19649 -14358373.88347  20525928.475    20525934.735
       237.000         201.000
  23479441.592    -8972982.84649  -6175706.08545  23479440.661    23479456.061
       210.000         148.000
 01  9 24 22 43  0.0000000  0  8G 1G27G22G20G 3G31G13G 8
  20705773.570    -5680181.21149  -4408942.57747  20705773.581    20705781.967
       237.000         201.000
  22011276.339   -16629825.11349 -12937632.44746  22011275.811    22011285.548
       229.000         184.000
  23303617.048    10848187.73449   8475212.24645  23303616.522    23303629.034
       208.000         146.000
  23854930.700    17713213.71449  14023682.56845  23854931.225    23854950.104
       206.000         139.000
  23033323.946    -6539366.88249  -5069048.78745  23033323.702    23033336.197
       213.000         152.000
  23115204.136    -7456832.26749  -5784710.21445  23115203.438    23115216.747
       216.000         152.000
  20519195.342   -18948878.13049 -14385944.17847  20519195.736    20519202.164
       237.000         201.000
  23465209.474    -9047772.35349  -6233983.37245  23465208.494    23465222.866
       209.000         146.000
 01  9 24 22 43 30.0000000  0  8G 1G27G22G20G 3G31G13G 8
  20711607.058    -5649526.26049  -4385055.64747  20711606.853    20711615.396
       238.000         201.000
  22002574.665   -16675552.25749 -12973263.90946  22002574.365    22002583.091
       229.000         184.000
  23323675.540    10953595.84249   8557348.29145  23323674.856    23323687.641
       210.000         146.000
  23875872.478    17823261.66949  14109433.85645  23875872.717    23875890.185
       207.000         142.000
  23028104.581    -6566794.55049  -5090420.84945  23028103.775    23028117.427
       215.000         155.000
  23099628.556    -7538681.18449  -5848488.33145  23099627.121    23099642.683
       213.000         152.000
  20512530.487   -18983901.88949 -14413235.37847  20512531.020    20512536.892
       237.000         201.000
  23450998.612    -9122450.18549  -6292173.66845  23450998.152    23451012.220
       211.000         147.000
 01  9 24 22 44  0.0000000  0  8G 1G27G22G20G 3G31G13G 8
  20717516.037    -5618474.47149  -4360859.49447  20717515.732    20717524.696
       237.000         200.000
  21993896.063   -16721158.67649 -13008801.29946  21993896.033    21993904.823
       230.000         185.000
  23343768.196    11059182.36149   8639623.33545  23343769.255    23343780.198
       208.000         145.000
  23896823.180    17933356.84449  14195221.91645  23896823.743    23896840.874
       210.000         139.000
  23022975.635    -6593746.52449  -5111422.26145  23022974.446    23022988.229
       213.000         152.000
  23084096.462    -7620301.49349  -5912088.31545  23084095.503    23084109.220
       210.000         150.000
  20505934.042   -19018566.58049 -14440246.77547  20505934.387    20505940.451
       237.000         201.000
  23436808.893    -9197016.96849  -6350277.38345  23436807.716    23436822.699
       210.000         148.000
 01  9 24 22 44 30.0000000  0  8G 1G27G22G20G 3G31G13G 8
  20723500.659    -5587025.17749  -4336353.59147  20723500.789    20723509.115
       237.000         200.000
  21985240.462   -16766644.01249 -13044244.33046  21985240.485    21985248.757
       231.000         185.000
  23363894.234    11164944.97149   8722035.60245  23363893.903    23363906.779
       209.000         145.000
  23917782.471    18043496.63749  14281044.78445  23917784.542    23917802.499
       209.000         141.000
  23017937.467    -6620220.64449  -5132051.34245  23017936.494    23017949.915
       213.000         150.000
  23068608.569    -7701689.60949  -5975507.38745  23068608.105    23068622.403
       211.000         151.000
  20499406.247   -19052870.14549 -14466976.79047  20499406.886    20499412.313
       237.000         201.000
  23422640.201    -9271472.49449  -6408294.46645  23422639.854    23422652.758
       211.000         146.000
 01  9 24 22 45  0.0000000  0  8G 1G27G22G20G 3G31G13G 8
  20729560.968    -5555178.07049  -4311537.71247  20729560.884    20729569.668
       237.000         200.000
  21976607.759   -16812008.49849 -13079593.18846  21976607.271    21976616.481
       230.000         185.000
  23384053.250    11270880.78949   8804582.83945  23384052.877    23384066.593
       207.000         145.000
  23938749.790    18153678.05849  14366900.05345  23938751.127    23938766.524
       208.000         141.000
  23012990.848    -6646215.41849  -5152306.86245  23012990.548    23013003.101
       217.000         154.000
  23053165.618    -7782842.19649  -6038742.90645  23053165.076    23053179.256
       210.000         150.000
  20492947.545   -19086810.82949 -14493424.03547  20492947.708    20492954.012
       236.000         201.000
  23408492.822    -9345816.60749  -6466224.74845  23408491.598    23408505.878
       210.000         147.000
 01  9 24 22 45 30.0000000  0  8G 1G27G22G20G 3G31G13G 8
  20735696.900    -5522933.70849  -4286412.28247  20735696.976    20735705.428
       237.000         200.000
  21967997.786   -16857253.53149 -13114848.96546  21967997.412    21968006.701
       230.000         185.000
  23404244.697    11376986.17149   8887262.20745  23404244.079    23404257.524
       208.000         144.000
  23959724.160    18263897.46949  14452784.90445  23959725.177    23959742.374
       208.000         138.000
  23008135.565    -6671729.81949  -5172188.09845  23008135.889    23008147.629
       216.000         153.000
  23037767.773    -7863757.09849  -6101793.25545  23037767.346    23037781.354
       210.000         150.000
  20486558.040   -19120387.79349 -14519587.85347  20486558.111    20486564.484
       237.000         201.000
  23394366.273    -9420050.38149  -6524068.95445  23394364.778    23394379.538
       212.000         148.000
 01  9 24 22 46  0.0000000  0  8G 1G27G22G20G 3G31G13G 8
  20741908.795    -5490290.25049  -4260975.85747  20741908.705    20741917.183
       237.000         200.000
  21959410.931   -16902377.69149 -13150010.56646  21959411.026    21959419.678
       229.000         185.000
  23424468.107    11483259.83949   8970072.68845  23424467.449    23424479.953
       209.000         144.000
  23980705.461    18374153.36349  14538698.22645  23980704.144    23980723.240
       202.000         137.000
  23003372.151    -6696760.62549  -5191692.49545  23003371.257    23003384.251
       215.000         152.000
  23022416.126    -7944429.39049  -6164654.52645  23022415.004    23022429.034
       213.000         150.000
  20480238.326   -19153597.75649 -14545465.70747  20480238.636    20480244.883
       237.000         201.000
  23380261.268    -9494172.23549  -6581826.02445  23380261.882    23380273.672
       212.000         147.000
 01  9 24 22 46 30.0000000  0  8G 1G27G22G20G 3G31G13G 8
  20748196.632    -5457247.45449  -4235228.27247  20748196.552    20748205.349
       237.000         200.000
  21950846.973   -16947381.22549 -13185078.17046  21950846.225    21950856.091
       229.000         185.000
  23444722.835    11589699.02049   9053012.14845  23444723.765    23444734.093
       209.000         143.000
  24001692.650    18484442.81549  14624637.65245  24001692.824    24001711.363
       204.000         134.000
  22998701.246    -6721306.16549  -5210818.78645  22998699.472    22998713.820
       215.000         153.000
  23007111.269    -8024856.03149  -6227324.39645  23007110.779    23007125.620
       215.000         152.000
  20473988.779   -19186439.12849 -14571056.35147  20473989.222    20473994.971
       237.000         201.000
  23366177.431    -9568182.40549  -6639496.01545  23366175.833    23366190.344
       209.000         147.000
 01  9 24 22 47  0.0000000  0  8G 1G27G22G20G 3G31G13G 8
  20754560.664    -5423804.43549  -4209168.82147  20754560.667    20754569.207
       237.000         201.000
  21942305.961   -16992263.72449 -13220051.46946  21942305.678    21942314.738
       229.000         185.000
  23465008.628    11696301.68149   9136079.00045  23465008.293    23465022.152
       209.000         143.000
  24022686.078    18594763.49049  14710601.45745  24022685.011    24022704.730
       203.000         136.000
  22994123.056    -6745364.21049  -5229565.22145  22994122.420    22994135.507
       215.000         154.000
  22991853.892    -8105033.00949  -6289799.68245  22991853.231    22991866.919
       216.000         153.000
  20467809.796   -19218909.66849 -14596358.03347  20467810.410    20467816.238
       237.000         201.000
  23352114.972    -9642080.31049  -6697078.57045  23352113.828    23352128.509
       212.000         148.000
 01  9 24 22 47 30.0000000  0  9G 1G27G28G22G20G 3G31G13G 8
  20761000.708    -5389961.85349  -4182798.01347  20761000.838    20761008.981
       238.000         200.000
  21933787.872   -17037026.32349 -13254931.33046  21933787.975    21933796.803
       230.000         186.000
                  -1187862.13249   -903168.91243
       206.000          74.000
  23485324.975    11803064.15549   9219270.37345  23485324.808    23485338.941
       208.000         143.000
  24043684.521    18705111.79349  14796586.71545  24043683.914    24043703.029
       205.000         133.000
  22989637.693    -6768934.16649  -5247931.30345  22989636.896    22989650.609
       214.000         155.000
  22976644.690    -8184958.01949  -6352078.70945  22976645.060    22976657.142
       216.000         152.000
  20461701.585   -19251008.42949 -14621370.01547  20461701.839    20461708.006
       236.000         201.000
  23338073.780    -9715866.95249  -6754574.44645  23338072.748    23338086.498
       210.000         147.000
 01  9 24 22 48  0.0000000  0  8G 1G27G22G20G 3G31G13G 8
  20767516.921    -5355719.28549  -4156115.52547  20767516.767    20767525.360
       238.000         200.000
  21925292.594   -17081669.02449 -13289717.76446  21925292.126    21925301.229
       230.000         186.000
  23505671.195    11909983.74249   9302584.16945  23505670.823    23505685.532
       210.000         143.000
  24064687.747    18815484.93049  14882591.43644  24064686.684    24064704.676
       199.000         129.000
  22985245.552    -6792014.39349  -5265915.78345  22985245.865    22985258.178
       215.000         154.000
  22961483.734    -8264627.93449  -6414158.88645  22961481.797    22961498.139
       214.000         153.000
  20455664.427   -19282733.55049 -14646090.85547  20455664.768    20455670.734
       236.000         201.000
  23324053.660    -9789541.90549  -6811983.25445  23324053.164    23324066.721
       212.000         147.000
 01  9 24 22 48 30.0000000  0  9G 1G27G28G22G20G 3G31G13G 8
  20774109.319    -5321076.15249  -4129120.92047  20774109.383    20774117.685
       237.000         200.000
  21916820.162   -17126191.77549 -13324410.75246  21916819.781    21916828.974
       231.000         186.000
                  -1397130.28849  -1066234.48344                  24584602.408
       204.000          99.000
  23526046.994    12017058.25249   9386018.69145  23526047.626    23526060.868
       209.000         142.000
  24085694.952    18925880.35649  14968613.43345  24085695.750    24085717.350
       201.000         132.000
  22980947.054    -6814603.02849  -5283517.25545  22980946.812    22980959.051
       214.000         152.000
  22946372.186    -8344038.99949  -6476037.40545  22946371.568    22946385.324
       215.000         154.000
  20449698.785   -19314083.16249 -14670519.09047  20449699.018    20449705.383
       237.000         202.000
  23310054.976    -9863105.03349  -6869304.93545  23310054.205    23310067.475
       212.000         150.000
 01  9 24 22 49  0.0000000  0  9G 1G27G28G22G20G 3G31G13G 8
  20780777.937    -5286032.46649  -4101814.18747  20780777.907    20780786.340
       237.000         199.000
  21908370.527   -17170594.95749 -13359010.56846  21908369.981    21908379.069
       230.000         186.000
  24564706.428    -1501587.38249  -1147629.37044  24564704.289    24564724.422
       196.000         118.000
  23546451.542    12124284.50349   9469571.44445  23546452.040    23546464.324
       207.000         141.000
  24106706.632    19036294.97749  15054650.35945  24106706.344    24106724.198
       202.000         135.000
  22976742.335    -6836698.57149  -5300734.47545  22976741.113    22976754.621
       213.000         154.000
  22931310.348    -8423188.33749  -6537711.97045  22931309.665    22931322.763
       214.000         152.000
  20443804.878   -19345055.75449 -14694653.54247  20443805.218    20443811.207
       236.000         202.000
  23296077.291    -9936556.64249  -6926539.67645  23296075.483    23296088.988
       211.000         148.000
 01  9 24 22 49 30.0000000  0  9G 1G27G28G22G20G 3G31G13G 8
  20787522.668    -5250588.76749  -4074195.75447  20787522.518    20787531.227
       237.000         200.000
  21899943.336   -17214879.52949 -13393517.96146  21899942.965    21899951.712
       230.000         186.000
  24544851.536    -1605924.74449  -1228930.76244  24544851.493    24544871.282
       208.000         128.000
  23566884.412    12231659.21849   9553239.87845  23566883.376    23566896.789
       205.000         141.000
  24127720.840    19146725.30249  15140699.63844  24127718.348    24127736.016
       198.000         124.000
  22972631.614    -6858300.19649  -5317566.78145  22972631.438    22972643.603
       213.000         155.000
  22916298.924    -8502073.24749  -6599180.51045  22916297.707    22916309.896
       211.000         151.000
  20437982.898   -19375650.28349 -14718493.40147  20437983.309    20437989.272
       237.000         202.000
  23282120.705   -10009897.62949  -6983688.28745  23282120.264    23282133.611
       213.000         149.000
 01  9 24 22 50  0.0000000  0  9G 1G27G28G22G20G 3G31G13G 8
  20794343.498    -5214745.23649  -4046265.76647  20794343.336    20794352.251
       237.000         200.000
  21891538.596   -17259046.07549 -13427933.36346  21891537.774    21891547.131
       230.000         186.000
  24525020.465    -1710141.16049  -1310138.10744  24525017.134    24525040.846
       196.000         127.000
  23587344.857    12339179.19249   9637021.50845  23587344.511    23587357.706
       208.000         141.000
  24148737.981    19257167.73249  15226758.33045  24148740.755    24148761.058
       207.000         137.000
  22968615.108    -6879406.83749  -5334013.40045  22968614.159    22968626.432
       214.000         155.000
  22901338.218    -8580690.91949  -6660440.81445  22901336.804    22901352.005
       215.000         151.000
  20432233.168   -19405865.35849 -14742037.58447  20432233.409    20432239.581
       236.000         202.000
  23268185.013   -10083128.18349  -7040750.78445  23268183.842    23268197.525
       208.000         149.000
 01  9 24 22 50 30.0000000  0  9G 1G27G28G22G20G 3G31G13G 8
  20801240.575    -5178500.81849  -4018023.39647  20801240.691    20801249.174
       237.000         199.000
  21883156.529   -17303093.84349 -13462256.23146  21883155.906    21883165.476
       231.000         186.000
  24505211.896    -1814234.06049  -1391249.03844  24505212.305    24505231.919
       209.000         130.000
  23607832.595    12446842.67449   9720914.98445  23607833.017    23607847.482
       207.000         140.000
  24169757.160    19367620.48448  15312825.00445  24169754.377    24169777.251
       190.000         133.000
  22964693.227    -6900016.24249  -5350072.55445  22964693.294    22964705.150
       213.000         155.000
  22886429.419    -8659037.30549  -6721489.72645  22886427.496    22886441.963
       210.000         151.000
  20426556.074   -19435698.73449 -14765284.33847  20426556.239    20426562.371
       236.000         202.000
  23254270.441   -10156247.22449  -7097726.38845  23254270.534    23254283.217
       213.000         149.000
 01  9 24 22 51  0.0000000  0  9G 1G27G28G22G20G 3G31G13G 8
  20808214.168    -5141854.57749  -3989467.91547  20808214.133    20808222.978
       237.000         199.000
  21874797.284   -17347022.11249 -13496485.97946  21874796.973    21874805.512
       230.000         187.000
  24485427.891    -1918200.45049  -1472261.49644  24485426.422    24485444.869
       201.000         128.000
  23628347.470    12554647.96649   9804918.91245  23628347.066    23628359.741
       209.000         141.000
  24190777.149    19478081.87549  15398898.38444  24190779.812    24190790.483
       209.000         123.000
  22960866.427    -6920125.88049  -5365742.27345  22960865.124    22960879.922
       215.000         155.000
  22871572.703    -8737108.29149  -6782324.03045  22871572.300    22871585.802
       214.000         150.000
  20420952.072   -19465147.76249 -14788231.59847  20420952.249    20420958.532
       237.000         202.000
  23240377.430   -10229254.51649  -7154614.96845  23240375.963    23240389.900
       211.000         149.000
 01  9 24 22 51 30.0000000  0  9G 1G27G28G22G20G 3G31G13G 8
  20815264.339    -5104805.76849  -3960598.77047  20815264.083    20815272.859
       236.000         199.000
  21866460.697   -17390830.73849 -13530622.50446  21866460.315    21866469.112
       231.000         187.000
  24465667.880    -2022038.22749  -1553173.74844  24465666.292    24465686.569
       207.000         129.000
  23648889.057    12662592.58349   9889031.44445  23648889.325    23648902.765
       206.000         142.000
  24211799.477    19588549.04149  15484976.44045  24211802.488    24211823.327
       199.000         138.000
  22957135.174    -6939733.78049  -5381021.07245  22957134.596    22957148.853
       215.000         155.000
  22856769.169    -8814900.44149  -6842941.06545  22856767.229    22856782.370
       214.000         150.000
  20415421.611   -19494210.37349 -14810877.76847  20415421.977    20415427.752
       237.000         202.000
  23226505.555   -10302149.42549  -7211415.92445  23226505.165    23226519.680
       215.000         151.000
 01  9 24 22 52  0.0000000  0  9G 1G27G28G22G20G 3G31G13G 8
  20822391.110    -5067354.35149  -3931415.88347  20822391.139    20822399.868
       237.000         199.000
  21858146.786   -17434520.15049 -13564666.13046  21858146.620    21858155.590
       231.000         187.000
  24445933.206    -2125745.63949  -1633984.32145  24445932.903    24445951.308
       201.000         137.000
  23669456.391    12770673.82949   9973250.42645  23669455.537    23669470.942
       209.000         141.000
  24232821.373    19699019.59349  15571056.78444  24232823.455    24232842.928
       203.000         128.000
  22953499.438    -6958838.84449  -5395908.02345  22953498.863    22953511.669
       214.000         154.000
  22842019.183    -8892410.73949  -6903338.44645  22842018.130    22842031.953
       213.000         150.000
  20409964.989   -19522885.00949 -14833221.60347  20409965.185    20409971.302
       237.000         202.000
  23212655.461   -10374932.00649  -7268129.40945  23212656.013    23212667.336
       214.000         151.000
 01  9 24 22 52 30.0000000  0  9G 1G27G28G22G20G 3G31G13G 8
  20829594.591    -5029499.87749  -3901918.93447  20829594.612    20829603.198
       237.000         199.000
  21849855.624   -17478090.10949 -13598616.68346  21849855.500    21849863.979
       231.000         187.000
  24426223.242    -2229320.88949  -1714691.91444  24426220.140    24426238.889
       207.000         128.000
  23690049.194    12878889.31649  10057574.01745  23690050.020    23690063.072
       207.000         141.000
  24253844.097    19809490.42549  15657137.67844  24253845.862    24253855.878
       206.000         126.000
  22949959.714    -6977439.54649  -5410401.97045  22949958.015    22949971.305
       212.000         154.000
  22827323.606    -8969635.47649  -6963513.35145  22827323.113    22827336.221
       213.000         149.000
  20404582.500   -19551169.79349 -14855261.67347  20404582.801    20404588.627
       236.000         202.000
  23198826.565   -10447602.09449  -7324755.19945  23198826.557    23198839.026
       213.000         149.000
 01  9 24 22 53  0.0000000  0  9G 1G27G28G22G20G 3G31G13G 8
  20836874.731    -4991242.90049  -3872108.33147  20836874.922    20836883.437
       237.000         199.000
  21841587.147   -17521541.26749 -13632474.66446  21841586.864    21841596.067
       231.000         187.000
  24406538.981    -2332762.39049  -1795295.50944  24406536.696    24406557.702
       207.000         131.000
  23710667.099    12987236.03249  10141999.85945  23710666.387    23710680.640
       206.000         140.000
  24274865.642    19919958.87049  15743216.62644  24274862.332    24274894.912
       198.000         127.000
  22946516.130    -6995535.00949  -5424502.22445  22946514.539    22946526.126
       214.000         153.000
  22812682.885    -9046572.11849  -7023463.72645  22812681.759    22812695.911
       212.000         148.000
  20399274.487   -19579063.49949 -14876997.00047  20399275.096    20399281.092
       236.000         202.000
  23185019.277   -10520160.09549  -7381293.68645  23185020.454    23185032.626
       216.000         153.000
 01  9 24 22 53 30.0000000  0  9G 1G27G28G22G20G 3G31G13G 8
  20844231.465    -4952582.97949  -3841983.75447  20844231.559    20844240.227
       237.000         199.000
  21833341.150   -17564873.57249 -13666240.02546  21833341.043    21833349.528
       231.000         187.000
  24386880.214    -2436068.40348  -1875793.28744  24386876.637    24386894.409
       192.000         131.000
  23731309.373    13095711.40349  10226525.93945  23731308.957    23731322.648
       208.000         140.000
  24295886.419    20030421.54949  15829290.86745  24295890.675    24295905.572
       206.000         134.000
  22943169.102    -7013123.34149  -5438207.32045  22943167.626    22943181.826
       215.000         155.000
  22798097.676    -9123217.22349  -7083186.97745  22798097.276    22798110.445
       211.000         149.000
  20394041.224   -19606564.31749 -14898426.17847  20394041.409    20394047.420
       236.000         202.000
  23171233.113   -10592606.14249  -7437744.93445  23171232.460    23171246.106
       213.000         151.000
 01  9 24 22 54  0.0000000  0  9G 1G27G28G22G20G 3G31G13G 8
  20851664.949    -4913519.94749  -3811545.06647  20851664.553    20851673.782
       236.000         198.000
  21825117.767   -17608087.07949 -13699912.81646  21825117.615    21825126.415
       232.000         187.000
  24367247.568    -2539236.79349  -1956183.74345  24367247.695    24367267.625
       211.000         135.000
  23751975.605    13204312.92449  10311150.34145  23751975.420    23751988.806
       206.000         139.000
  24316905.662    20140876.16649  15915359.18344  24316904.597    24316923.761
       201.000         123.000
  22939918.824    -7030203.49149  -5451516.44545  22939917.695    22939932.285
       214.000         156.000
  22783568.377    -9199567.53349  -7142680.49245  22783567.654    22783580.172
       210.000         147.000
  20388883.046   -19633670.60149 -14919547.93347  20388883.570    20388889.284
       236.000         202.000
  23157468.377   -10664939.77949  -7494108.63145  23157468.538    23157480.268
       215.000         152.000
 01  9 24 22 54 30.0000000  0  9G 1G27G28G22G20G 3G31G13G 8
  20859175.034    -4874053.93449  -3780792.36947  20859175.253    20859184.022
       237.000         198.000
  21816917.019   -17651182.11849 -13733493.28646  21816916.493    21816925.422
       232.000         187.000
  24347641.558    -2642266.27348  -2036466.32244  24347638.001    24347656.805
       191.000         127.000
  23772665.302    13313037.72049  10395870.79345  23772666.166    23772677.498
       207.000         139.000
  24337922.718    20251319.70649  16001418.62045  24337924.845    24337946.259
       209.000         134.000
  22936765.451    -7046774.14849  -5464428.54545  22936764.478    22936776.952
       212.000         154.000
  22769095.901    -9275619.98849  -7201941.91445  22769094.634    22769109.537
       207.000         147.000
  20383800.265   -19660380.77549 -14940361.02647  20383800.529    20383806.606
       236.000         202.000
  23143724.997   -10737161.45049  -7550385.05845  23143724.043    23143738.195
       214.000         153.000
 01  9 24 22 55  0.0000000  0  9G 1G27G28G22G20G 3G31G13G 8
  20866761.892    -4834185.15549  -3749725.84547  20866761.711    20866770.634
       236.000         198.000
  21808738.799   -17694159.09949 -13766981.76947  21808738.754    21808746.942
       232.000         188.000
  24328061.571    -2745155.16249  -2116638.94244  24328060.654    24328079.747
       212.000         131.000
  23793378.173    13421883.10349  10480685.19645  23793378.497    23793393.264
       207.000         140.000
  24358937.377    20361749.18248  16087467.11144  24358938.858    24358956.412
       194.000         131.000
  22933709.314    -7062834.09549  -5476942.72745  22933708.724    22933720.680
       217.000         154.000
  22754680.563    -9351371.72449  -7260969.02945  22754680.343    22754692.356
       210.000         146.000
  20378793.051   -19686693.57849 -14960864.48747  20378793.245    20378799.500
       238.000         202.000
  23130002.745   -10809271.43149  -7606574.44545  23130002.303    23130014.594
       216.000         152.000
 01  9 24 22 55 30.0000000  0  9G 1G27G28G22G20G 3G31G13G 8
  20874425.240    -4793914.02449  -3718345.78147  20874425.036    20874434.031
       237.000         198.000
  21800582.829   -17737018.74649 -13800378.82147  21800582.391    21800591.122
       233.000         188.000
  24308509.832    -2847902.14549  -2196701.15345  24308507.291    24308527.412
       202.000         134.000
  23814113.397    13530845.92849  10565591.14245  23814112.803    23814127.764
       206.000         140.000
  24379948.431    20472161.17149  16173502.08144  24379949.992    24379963.721
       207.000         126.000
  22930750.440    -7078382.85349  -5489058.52045  22930748.933    22930762.921
       213.000         155.000
  22740323.196    -9426820.01149  -7319759.70045  22740322.322    22740337.181
       207.000         147.000
  20373861.664   -19712607.92749 -14981057.46047  20373861.929    20373867.963
       238.000         202.000
  23116301.724   -10881270.33549  -7662677.34045  23116300.138    23116313.342
       214.000         152.000
 01  9 24 22 56  0.0000000  0  9G 1G27G28G22G20G 3G31G13G 8
  20882165.505    -4753238.84749  -3686650.88447  20882165.827    20882174.274
       237.000         198.000
  21792449.499   -17779759.66549 -13833683.36347  21792449.621    21792458.192
       233.000         188.000
  24288984.577    -2950504.03249  -2276650.33644  24288981.688    24289000.998
       204.000         129.000
  23834870.491    13639925.04149  10650587.68645  23834870.283    23834884.874
       206.000         139.000
  24400955.946    20582554.55149  16259522.51144  24400954.741    24400979.287
       203.000         127.000
  22927889.349    -7093417.62149  -5500773.81745  22927889.033    22927901.830
       213.000         155.000
  22726024.215    -9501960.11949  -7378310.22745  22726023.062    22726036.364
       209.000         147.000
  20369006.759   -19738120.53249 -15000937.39347  20369007.060    20369012.739
       238.000         202.000
  23102622.160   -10953156.37449  -7718692.22445  23102621.358    23102635.528
       215.000         153.000
 01  9 24 22 56 30.0000000  0  9G 1G27G28G22G20G 3G31G13G 8
  20889982.703    -4712159.42749  -3654640.98647  20889982.376    20889991.685
       237.000         198.000
  21784338.677   -17822381.69649 -13866895.25947  21784338.736    21784347.186
       232.000         188.000
  24269487.949    -3052958.75249  -2356484.75345  24269487.863    24269505.647
       207.000         136.000
  23855649.211    13749118.15949  10735673.05145  23855647.699    23855663.307
       205.000         138.000
  24421959.477    20692926.62749  16345526.29545  24421959.819    24421977.405
       208.000         133.000
  22925126.232    -7107936.64849  -5512087.22645  22925126.295    22925138.225
       215.000         154.000
  22711784.686    -9576788.74649  -7436618.04245  22711784.029    22711798.813
       210.000         148.000
  20364228.663   -19763229.68849 -15020502.94547  20364228.788    20364234.937
       238.000         203.000
  23088964.087   -11024929.62849  -7774619.26745  23088961.884    23088975.626
       213.000         153.000
 01  9 24 22 57  0.0000000  0  9G 1G27G28G22G20G 3G31G13G 8
  20897876.673    -4670676.51149  -3622316.67647  20897876.661    20897885.293
       237.000         198.000
  21776250.453   -17864885.49349 -13900015.01747  21776249.976    21776258.247
       233.000         189.000
  24250019.313    -3155265.26149  -2436203.79544  24250014.934    24250034.095
       199.000         131.000
  23876449.108    13858422.10949  10820844.78745  23876448.139    23876463.037
       205.000         139.000
  24442958.416    20803274.24549  16431511.07944  24442956.323    24442980.818
       200.000         129.000
  22922461.616    -7121939.51149  -5522998.41945  22922461.950    22922473.554
       215.000         154.000
  22697604.968    -9651303.06149  -7494680.95745  22697603.636    22697616.836
       209.000         149.000
  20359527.522   -19787934.20749 -15039753.19547  20359527.952    20359533.824
       238.000         203.000
  23075327.383   -11096590.39049  -7830458.64945  23075326.934    23075340.449
       214.000         153.000
 01  9 24 22 57 30.0000000  0  9G 1G27G28G22G20G 3G31G13G 8
  20905847.445    -4628790.10849  -3589677.97247  20905847.333    20905856.385
       237.000         197.000
  21768184.673   -17907271.26349 -13933042.81647  21768184.390    21768192.879
       233.000         189.000
  24230579.356    -3257421.74149  -2515805.84745  24230578.669    24230596.678
       207.000         137.000
  23897269.678    13967834.30949  10906100.89245  23897268.575    23897284.319
       206.000         137.000
  24463951.943    20913594.28649  16517474.22044  24463953.278    24463969.521
       207.000         127.000
  22919895.250    -7135424.98049  -5533506.46945  22919895.307    22919907.804
       215.000         155.000
  22683485.592    -9725500.05349  -7552496.57645  22683485.690    22683498.585
       211.000         151.000
  20354903.682   -19812232.77649 -15058687.11747  20354903.833    20354910.168
       238.000         203.000
  23061711.924   -11168139.20349  -7886210.81545  23061711.170    23061723.022
       214.000         153.000
 01  9 24 22 58  0.0000000  0  9G 1G27G28G22G20G 3G31G13G 8
  20913895.056    -4586500.10649  -3556724.77547  20913894.932    20913903.568
       236.000         198.000
  21760141.262   -17949539.05249 -13965978.68247  21760141.198    21760149.781
       232.000         189.000
  24211168.277    -3359426.44449  -2595289.62845  24211167.767    24211185.912
       202.000         137.000
  23918110.386    14077352.12949  10991439.29445  23918109.997    23918124.737
       203.000         136.000
  24484940.002    21023884.48449  16603414.44945  24484941.088    24484963.177
       199.000         132.000
  22917427.656    -7148391.78449  -5543610.34645  22917427.475    22917439.858
       213.000         156.000
  22669427.099    -9799376.66049  -7610062.53945  22669426.533    22669439.125
       212.000         150.000
  20350357.342   -19836123.80449 -15077303.47647  20350357.511    20350363.455
       238.000         203.000
  23048117.918   -11239575.61849  -7941875.39045  23048117.500    23048128.774
       214.000         153.000
 01  9 24 22 58 30.0000000  0  9G 1G27G28G22G20G 3G31G13G 8
  20922019.492    -4543805.92349  -3523456.63547  20922019.607    20922028.101
       236.000         197.000
  21752120.406   -17991688.48049 -13998822.32547  21752120.251    21752128.861
       233.000         189.000
  24191786.284    -3461277.31549  -2674653.61345  24191786.335    24191800.199
       210.000         132.000
  23938970.891    14186973.64649  11076858.49045  23938970.516    23938985.625
       204.000         136.000
  24505920.935    21134142.37749  16689329.09644  24505921.643    24505946.663
       203.000         130.000
  22915058.867    -7160838.65449  -5553309.11545  22915058.125    22915070.414
       215.000         154.000
  22655430.403    -9872929.23849  -7667376.04745  22655428.113    22655441.092
       211.000         150.000
  20345888.947   -19859605.21149 -15095600.64747  20345889.224    20345895.237
       238.000         203.000
  23034545.263   -11310899.41949  -7997452.18745  23034544.127    23034557.226
       213.000         154.000
 01  9 24 22 59  0.0000000  0  9G 1G27G28G22G20G 3G31G13G 8
  20930220.824    -4500708.03549  -3489873.89847  20930220.400    20930229.724
       237.000         197.000
  21744122.043   -18033720.24149 -14031574.27247  21744122.088    21744129.786
       233.000         189.000
  24172434.134    -3562972.91149  -2753896.61445  24172431.224    24172448.941
       199.000         135.000
  23959850.549    14296695.77149  11162356.07645  23959849.621    23959862.656
       207.000         136.000
  24526896.000    21244364.48849  16775216.06344  24526896.893    24526916.660
       198.000         128.000
  22912789.531    -7172764.69449  -5562602.04145  22912789.806    22912800.935
       214.000         154.000
  22641495.956    -9946155.15449  -7724434.98945  22641494.749    22641508.783
       212.000         152.000
  20341498.796   -19882675.75849 -15113577.66847  20341499.243    20341505.332
       237.000         203.000
  23020994.035   -11382110.99049  -8052941.52445  23020993.088    23021005.488
       215.000         154.000
 01  9 24 22 59 30.0000000  0  9G 1G27G28G22G20G 3G31G13G 8
  20938498.896    -4457206.48649  -3455976.63047  20938499.139    20938507.780
       237.000         197.000
  21736145.946   -18075634.50249 -14064234.66047  21736145.330    21736153.804
       233.000         189.000
  24153111.528    -3664511.33849  -2833016.98545  24153110.559    24153127.728
       210.000         138.000
  23980748.662    14406515.94749  11247930.08645  23980746.625    23980762.890
       202.000         136.000
  24547863.322    21354548.34149  16861073.31244  24547865.456    24547883.607
       208.000         127.000
  22910619.293    -7184168.75849  -5571488.20345  22910618.709    22910631.609
       215.000         155.000
  22627624.062   -10019051.43249  -7781237.09445  22627624.761    22627636.750
       214.000         151.000
  20337187.022   -19905334.14349 -15131233.51547  20337187.148    20337192.993
       237.000         203.000
  23007464.147   -11453210.41449  -8108343.52045  23007463.694    23007475.664
       214.000         153.000
 01  9 24 23  0  0.0000000  0  9G 1G27G28G22G20G 3G31G13G 8
  20946853.930    -4413300.73049  -3421764.39747  20946853.725    20946862.719
       236.000         197.000
  21728192.345   -18117430.69249 -14096803.05947  21728191.896    21728200.403
       232.000         189.000
  24133819.836    -3765890.49849  -2912013.43245  24133817.656    24133834.978
       203.000         135.000
  24001665.193    14516432.20249  11333578.95645  24001664.673    24001676.982
       198.000         135.000
  24568823.180    21464691.69248  16946898.95845  24568821.819    24568847.266
       185.000         133.000
  22908548.783    -7195049.22949  -5579966.42445  22908548.342    22908561.033
       215.000         154.000
  22613815.667   -10091614.15949  -7837779.20645  22613814.642    22613827.459
       215.000         154.000
  20332954.094   -19927578.20749 -15148566.51947  20332954.229    20332960.360
       238.000         203.000
  22993955.717   -11524197.15349  -8163657.68045  22993956.305    22993967.632
       215.000         153.000
 01  9 24 23  0 30.0000000  0  9G 1G27G28G22G20G 3G31G13G 8
  20955285.796    -4368991.09349  -3387237.44447  20955285.927    20955294.766
       237.000         197.000
  21720261.191   -18159109.10449 -14129279.67247  21720260.736    21720269.615
       232.000         189.000
  24114558.223    -3867108.88149  -2990884.51145  24114558.598    24114574.018
       205.000         136.000
  24022599.158    14626442.05649  11419300.74645  24022599.630    24022615.127
       208.000         136.000
  24589774.502    21574791.75249  17032690.65745  24589775.333    24589796.008
       207.000         132.000
  22906578.008    -7205405.22349  -5588035.92845  22906579.035    22906590.436
       215.000         154.000
  22600071.403   -10163840.44549  -7894059.26145  22600070.777    22600083.083
       215.000         153.000
  20328800.252   -19949406.53149 -15165575.58147  20328800.604    20328806.501
       238.000         203.000
  22980468.744   -11595071.44049  -8218884.21845  22980467.653    22980480.233
       212.000         153.000
 01  9 24 23  1  0.0000000  0  9G 1G27G28G22G20G 3G31G13G 8
  20963794.540    -4324277.64649  -3352395.83947  20963794.247    20963803.204
       236.000         197.000
  21712352.387   -18200669.68249 -14161664.46547  21712351.792    21712360.501
       232.000         189.000
  24095327.645    -3968164.83149  -3069629.00345  24095325.054    24095344.030
       205.000         136.000
  24043550.817    14736542.84149  11505093.38245  24043549.997    24043562.742
       203.000         134.000
  24610717.657    21684845.85949  17118446.86145  24610718.774    24610738.663
       201.000         132.000
  22904707.415    -7215235.62549  -5595695.88145  22904706.622    22904718.422
       215.000         155.000
  22586391.770   -10235726.97549  -7950074.51245  22586390.377    22586402.612
       213.000         154.000
  20324725.865   -19970817.46549 -15182259.39547  20324726.245    20324732.140
       237.000         203.000
  22967003.026   -11665833.09949  -8274022.97745  22967002.205    22967013.634
       215.000         153.000
 01  9 24 23  1 30.0000000  0  9G 1G27G28G22G20G 3G31G13G 8
  20972380.035    -4279160.47449  -3317239.66147  20972379.824    20972388.763
       236.000         196.000
  21704465.967   -18242112.62449 -14193957.60547  21704466.051    21704474.226
       232.000         190.000
  24076128.033    -4069056.53749  -3148245.54045  24076126.524    24076142.279
       207.000         136.000
  24064519.365    14846732.15449  11590955.03245  24064519.760    24064533.501
       204.000         135.000
  24631651.190    21794851.20748  17204164.90744  24631649.474    24631677.399
       194.000         129.000
  22902936.729    -7224539.40249  -5602945.45745  22902935.448    22902949.066
       213.000         155.000
  22572777.302   -10307270.56849  -8005822.57645  22572777.132    22572789.430
       214.000         154.000
  20320731.197   -19991809.49749 -15198616.79947  20320731.690    20320737.028
       238.000         203.000
  22953558.790   -11736482.34149  -8329074.12245  22953557.233    22953569.638
       213.000         153.000
 01  9 24 23  2  0.0000000  0  9G 1G27G28G22G20G 3G31G13G 8
  20981042.500    -4233639.20349  -3281768.57947  20981042.806    20981051.380
       236.000         196.000
  21696602.083   -18283437.54049 -14226158.76747  21696601.595    21696610.290
       232.000         190.000
  24056960.126    -4169781.68849  -3226732.28545  24056958.184    24056974.608
       201.000         135.000
  24085504.168    14957007.94749  11676884.01045  24085503.583    24085518.476
       205.000         133.000
  24652575.089    21904805.42549  17289843.10244  24652576.486    24652594.784
       206.000         128.000
  22901266.604    -7233315.26649  -5609783.70145  22901267.582    22901279.088
       217.000         155.000
  22559228.625   -10378467.95349  -8061300.85045  22559227.592    22559240.040
       216.000         153.000
  20316816.623   -20012380.67249 -15214646.26847  20316817.120    20316822.666
       238.000         203.000
  22940135.995   -11807018.53349  -8384037.18645  22940135.375    22940147.111
       214.000         154.000
 01  9 24 23  2 30.0000000  0  9G 1G27G28G22G20G 3G31G13G 8
  20989781.720    -4187714.46049  -3245983.10547  20989781.397    20989790.441
       236.000         196.000
  21688760.511   -18324645.02449 -14258268.43447  21688760.194    21688768.042
       232.000         190.000
  24037824.101    -4270339.21549  -3305088.41845  24037823.391    24037839.418
       208.000         135.000
  24106504.966    15067367.28149  11762878.18145  24106504.884    24106519.891
       201.000         133.000
  24673488.769    22014705.65049  17375479.32844  24673487.760    24673514.411
       197.000         131.000
  22899697.315    -7241562.69449  -5616210.18545  22899695.591    22899709.426
       213.000         155.000
  22545746.385   -10449316.47749  -8116507.25845  22545744.576    22545757.427
       216.000         154.000
  20312982.274   -20032530.18549 -15230347.16747  20312982.715    20312988.460
       237.000         203.000
  22926734.589   -11877442.24749  -8438912.61145  22926733.483    22926746.508
       214.000         154.000
 01  9 24 23  3  0.0000000  0  9G 1G27G28G22G20G 3G31G13G 8
  20998597.855    -4141385.42249  -3209882.60147  20998597.963    20998606.734
       236.000         196.000
  21680941.490   -18365734.16449 -14290285.88747  21680941.367    21680949.525
       233.000         190.000
  24018720.882    -4370726.43749  -3383311.82445  24018720.166    24018737.438
       206.000         139.000
  24127521.200    15177808.63549  11848936.17545  24127522.074    24127531.650
       204.000         134.000
  24694391.458    22124550.00049  17461071.78544  24694392.528    24694411.836
       205.000         128.000
  22898228.345    -7249279.74749  -5622223.37845  22898228.946    22898239.813
       212.000         154.000
  22532331.488   -10519811.96749  -8171438.61445  22532330.212    22532342.929
       212.000         154.000
  20309228.671   -20052255.51649 -15245717.54447  20309228.893    20309234.705
       236.000         203.000
  22913354.734   -11947752.65449  -8493699.70845  22913353.865    22913365.807
       216.000         155.000
 01  9 24 23  3 30.0000000  0  9G 1G27G28G22G20G 3G31G13G 8
  21007490.661    -4094653.35849  -3173468.05747  21007490.467    21007499.500
       236.000         196.000
  21673144.851   -18406705.98349 -14322211.91147  21673144.484    21673152.817
       232.000         190.000
  23999650.117    -4470942.58349  -3461401.91245  23999648.209    23999664.724
       205.000         137.000
  24148552.623    15288328.76749  11935055.60745  24148552.725    24148571.164
       203.000         133.000
  24715283.084    22234334.81348  17546618.15844  24715283.625    24715300.149
       189.000         116.000
  22896860.759    -7256466.45149  -5627823.29745  22896860.513    22896872.085
       215.000         155.000
  22518983.958   -10589952.43149  -8226093.30745  22518982.283    22518993.969
       214.000         154.000
  20305555.873   -20071556.04949 -15260756.90047  20305556.226    20305561.936
       236.000         203.000
  22899996.284   -12017950.73849  -8548399.31245  22899995.173    22900007.599
       214.000         156.000
 01  9 24 23  4  0.0000000  0  9G 1G27G28G22G20G 3G31G13G 8
  21016460.168    -4047518.28549  -3136739.47647  21016460.077    21016469.284
       236.000         196.000
  21665370.414   -18447560.36249 -14354046.42947  21665369.787    21665378.473
       232.000         190.000
  23980612.122    -4570985.94549  -3539357.37745  23980611.358    23980627.406
       210.000         136.000
  24169598.671    15398925.23049  12021234.49345  24169598.395    24169611.828
       200.000         132.000
  24736163.042    22344057.58049  17632116.05245  24736165.639    24736188.262
       211.000         133.000
  22895594.350    -7263121.82949  -5633009.21545  22895592.571    22895604.870
       213.000         154.000
  22505704.602   -10659734.62449  -8280468.83045  22505704.325    22505716.449
       218.000         154.000
  20301964.179   -20090430.25549 -15275464.06147  20301964.353    20301970.388
       236.000         203.000
  22886659.312   -12088036.14449  -8603011.09445  22886658.516    22886670.381
       215.000         156.000
 01  9 24 23  4 30.0000000  0  8G 1G27G28G22G 3G31G13G 8
  21025507.039    -3999976.85649  -3099694.25447  21025507.214    21025515.727
       236.000         195.000
  21657618.926   -18488293.98549 -14385786.85547  21657618.773    21657627.042
       232.000         190.000
  23961608.105    -4670851.21649  -3617174.05845  23961606.885    23961624.367
       203.000         140.000
  24190659.519    15509599.01349  12107473.63545  24190659.505    24190673.734
       204.000         133.000
  22894429.588    -7269241.63949  -5637777.80045  22894429.436    22894442.299
       214.000         154.000
  22492494.897   -10729151.72949  -8334559.88545  22492494.000    22492505.965
       216.000         155.000
  20298454.623   -20108873.01549 -15289835.02747  20298454.862    20298460.695
       236.000         203.000
  22873344.269   -12158005.61149  -8657532.51945  22873343.144    22873356.075
       214.000         157.000
 01  9 24 23  5  0.0000000  0  8G 1G27G28G22G 3G31G13G 8
  21034630.610    -3952032.48049  -3062335.06147  21034630.708    21034639.617
       236.000         196.000
  21649889.893   -18528910.02849 -14417435.66447  21649890.003    21649897.706
       233.000         190.000
  23942637.603    -4770540.10149  -3694853.26845  23942636.977    23942652.136
       208.000         137.000
  24211734.022    15620344.58849  12193768.69745  24211733.865    24211749.120
       203.000         132.000
  22893366.387    -7274828.20549  -5642130.89045  22893366.462    22893377.937
       214.000         156.000
  22479354.540   -10798203.94649  -8388366.60245  22479353.797    22479365.888
       215.000         156.000
  20295026.865   -20126886.16349 -15303871.22647  20295027.275    20295033.010
       236.000         203.000
  22860050.680   -12227862.42549  -8711966.21545  22860049.447    22860061.830
       213.000         156.000
 01  9 24 23  5 30.0000000  0  8G 1G27G28G22G 3G31G13G 8
  21043830.393    -3903687.74749  -3024663.90447  21043830.319    21043839.413
       236.000         196.000
  21642182.754   -18569411.06349 -14448994.85847  21642182.189    21642190.694
       232.000         190.000
  23923700.675    -4870053.24949  -3772395.63845  23923699.567    23923715.329
       210.000         138.000
  24232821.103    15731156.93949  12280115.84045  24232821.926    24232836.415
       204.000         133.000
  22892404.543    -7279883.16449  -5646069.72345  22892403.769    22892415.730
       215.000         155.000
  22466283.548   -10866891.14049  -8441888.87545  22466283.296    22466294.026
       219.000         158.000
  20291680.574   -20144470.93049 -15317573.62247  20291680.812    20291686.811
       236.000         203.000
  22846778.289   -12297608.88449  -8766313.87345  22846777.695    22846789.631
       217.000         157.000
 01  9 24 23  6  0.0000000  0  8G 1G27G28G22G 3G31G13G 8
  21053106.758    -3854940.16349  -2986678.83447  21053106.857    21053115.846
       236.000         195.000
  21634497.949   -18609794.48449 -14480462.40547  21634497.759    21634506.220
       232.000         190.000
  23904797.917    -4969386.46649  -3849797.69745  23904796.634    23904813.595
       206.000         138.000
  24253920.704    15842036.36449  12366515.21344  24253920.960    24253935.390
       203.000         130.000
  22891544.370    -7284402.88849  -5649591.51345  22891544.923    22891556.212
       215.000         155.000
  22453283.258   -10935207.43349  -8495122.14145  22453282.736    22453295.012
       219.000         159.000
  20288416.613   -20161623.29849 -15330939.08047  20288416.911    20288422.448
       236.000         204.000
  22833527.330   -12367242.48749  -8820573.60045  22833526.389    22833538.332
       215.000         157.000
 01  9 24 23  6 30.0000000  0  8G 1G27G28G22G 3G31G13G 8
  21062459.824    -3805789.85749  -2948379.94147  21062460.082    21062469.164
       237.000         195.000
  21626835.586   -18650060.02749 -14511838.08947  21626835.244    21626843.947
       232.000         190.000
  23885929.787    -5068537.84949  -3927058.04445  23885928.896    23885945.647
       210.000         141.000
  24275032.933    15952980.69848  12452965.22545  24275030.876    24275047.965
       194.000         132.000
  22890786.214    -7288386.48149  -5652695.50945  22890785.999    22890798.387
       214.000         157.000
  22440354.123   -11003149.84849  -8548064.12945  22440353.407    22440365.529
       218.000         158.000
  20285235.258   -20178341.48049 -15343966.21247  20285235.424    20285241.331
       236.000         204.000
  22820297.847   -12436763.06749  -8874745.27845  22820297.447    22820309.520
       216.000         157.000
 01  9 24 23  7  0.0000000  0  8G 1G27G28G22G 3G31G13G 8
  21071889.448    -3756237.34549  -2909767.64947  21071889.395    21071898.406
       235.000         195.000
  21619195.617   -18690208.01449 -14543122.18647  21619195.392    21619203.647
       232.000         191.000
  23867096.554    -5167505.84749  -4004175.59445  23867093.835    23867110.833
       204.000         137.000
  24296156.820    16063987.27849  12539463.62944  24296159.109    24296166.213
       198.000         131.000
  22890130.184    -7291833.29549  -5655381.25145  22890130.712    22890141.856
       214.000         156.000
  22427496.685   -11070715.31849  -8600712.34645  22427493.989    22427506.301
       215.000         159.000
  20282136.700   -20194624.32149 -15356654.11647  20282137.159    20282142.649
       236.000         204.000
  22807090.093   -12506170.71749  -8928828.96545  22807089.101    22807100.635
       218.000         158.000
 01  9 24 23  7 30.0000000  0  8G 1G27G28G22G 3G31G13G 8
  21081395.595    -3706282.16649  -2870841.60447  21081395.304    21081404.400
       233.000         194.000
  21611578.155   -18730237.83849 -14574314.19747  21611577.966    21611586.881
       232.000         191.000
  23848298.215    -5266288.44849  -4081148.59845  23848297.897    23848314.283
       211.000         141.000
  24317291.952    16175054.71649  12626009.55944  24317292.769    24317309.354
       202.000         131.000
  22889576.798    -7294742.12849  -5657647.82045  22889575.347    22889587.476
       214.000         155.000
  22414711.614   -11137900.07749  -8653063.93545  22414711.258    22414723.449
       217.000         160.000
  20279121.425   -20210469.55049 -15369001.02147  20279121.486    20279127.703
       236.000         203.000
  22793903.725   -12575464.85249  -8982824.17645  22793902.610    22793914.540
       217.000         159.000
 01  9 24 23  8  0.0000000  0  8G 1G27G28G22G 3G31G13G 8
  21090978.183    -3655925.34349  -2831602.58847  21090977.960    21090987.299
       235.000         195.000
  21603983.074   -18770150.16249 -14605414.65947  21603982.994    21603990.984
       232.000         191.000
  23829535.930    -5364884.40049  -4157976.18945  23829534.037    23829550.918
       207.000         141.000
  24338438.712    16286179.55749  12712600.15545  24338437.820    24338453.316
       203.000         132.000
  22889125.632    -7297112.92749  -5659495.09545  22889125.358    22889137.385
       216.000         157.000
  22401999.491   -11204701.89449  -8705117.12145  22401998.799    22402010.320
       218.000         160.000
  20276189.538   -20225876.76449 -15381006.61847  20276189.696    20276195.355
       236.000         203.000
  22780738.904   -12644646.26849  -9036731.56145  22780737.913    22780749.309
       217.000         159.000
 01  9 24 23  8 30.0000000  0  8G 1G27G28G22G 3G31G13G 8
  21100637.228    -3605167.02649  -2792050.70947  21100636.913    21100646.379
       235.000         194.000
  21596410.267   -18809945.03849 -14636423.59547  21596409.996    21596418.087
       233.000         191.000
  23810809.177    -5463292.39449  -4234657.34845  23810807.711    23810823.206
       209.000         138.000
  24359595.868    16397359.55049  12799233.78344  24359596.003    24359610.612
       201.000         130.000
  22888776.970    -7298944.84549  -5660922.48345  22888775.830    22888788.788
       213.000         157.000
  22389360.908   -11271117.74649  -8756869.54045  22389360.418    22389371.399
       218.000         162.000
  20273341.183   -20240844.65549 -15392669.88747  20273341.398    20273347.422
       236.000         203.000
  22767595.546   -12713714.78849  -9090550.98745  22767594.622    22767605.829
       218.000         159.000
 01  9 24 23  9  0.0000000  0  8G 1G27G28G22G 3G31G13G 8
  21110372.717    -3554006.89849  -2752185.73147  21110372.553    21110382.225
       235.000         194.000
  21588860.007   -18849621.70849 -14667340.42147  21588859.993    21588868.420
       232.000         191.000
  23792118.731    -5561509.85249  -4311190.01345  23792118.139    23792132.801
       212.000         142.000
  24380763.018    16508593.23449  12885909.18244  24380763.389    24380776.951
       204.000         129.000
  22888530.708    -7300236.53849  -5661928.93445  22888531.110    22888542.788
       213.000         156.000
  22376796.396   -11337143.84449  -8808318.28045  22376794.258    22376808.091
       217.000         162.000
  20270576.881   -20255370.96349 -15403989.06547  20270577.191    20270582.950
       235.000         203.000
  22754473.819   -12782669.81949  -9144281.97345  22754472.287    22754484.076
       219.000         159.000
 01  9 24 23  9 30.0000000  0  8G 1G27G28G22G 3G31G13G 8
  21120184.627    -3502445.14349  -2712007.80447  21120184.580    21120193.885
       235.000         194.000
  21581332.286   -18889180.00249 -14698165.01247  21581332.115    21581340.553
       232.000         191.000
  23773464.848    -5659535.06549  -4387572.87045  23773461.635    23773478.788
       207.000         140.000
  24401939.951    16619878.27949  12972624.69044  24401940.638    24401954.809
       198.000         129.000
  22888387.626    -7300987.54049  -5662514.04345  22888387.119    22888398.483
       214.000         157.000
  22364306.638   -11402777.12549  -8859460.89646  22364306.133    22364317.519
       217.000         163.000
  20267896.904   -20269454.21149 -15414963.00547  20267897.317    20267903.118
       236.000         203.000
  22741373.549   -12851511.15749  -9197924.40445  22741372.016    22741383.495
       219.000         159.000
 01  9 24 23 10  0.0000000  0  8G 1G27G28G22G 3G31G13G 8
  21130072.857    -3450482.29549  -2671517.33047  21130073.145    21130081.937
       235.000         193.000
  21573826.995   -18928620.22249 -14728897.60147  21573827.110    21573835.094
       232.000         191.000
  23754847.725    -5757366.53649  -4463804.80045  23754847.012    23754861.996
       212.000         139.000
  24423126.386    16731212.33749  13059378.28544  24423127.661    24423140.707
       205.000         128.000
  22888347.528    -7301197.25249  -5662677.39045  22888347.397    22888360.740
       214.000         156.000
  22351892.154   -11468015.00949  -8910295.43846  22351891.727    22351903.998
       220.000         164.000
  20265301.473   -20283093.31849 -15425590.86647  20265301.833    20265307.568
       235.000         203.000
  22728294.863   -12920239.11149  -9251478.46545  22728294.199    22728305.586
       217.000         159.000
 01  9 24 23 10 30.0000000  0  8G 1G27G28G22G 3G31G13G 8
  21140037.377    -3398118.66849  -2630714.55347  21140037.137    21140046.491
       235.000         193.000
  21566344.227   -18967942.24249 -14759538.07847  21566344.291    21566352.093
       233.000         191.000
  23736267.900    -5855002.65549  -4539884.48245  23736265.006    23736281.320
       202.000         140.000
  24444321.651    16842593.13149  13146168.44344  24444319.180    24444338.394
       202.000         129.000
  22888410.720    -7300864.95549  -5662418.40545  22888410.713    22888422.313
       213.000         156.000
  22339553.488   -11532854.32549  -8960819.41646  22339553.409    22339564.334
       221.000         164.000
  20262790.889   -20296286.48649 -15435871.23847  20262791.072    20262797.077
       235.000         203.000
  22715237.743   -12988853.49049  -9304944.06545  22715237.428    22715247.337
       218.000         159.000
 01  9 24 23 11  0.0000000  0  8G 1G27G28G22G 3G31G13G 8
  21150078.147    -3345354.32849  -2589599.53847  21150078.236    21150087.319
       234.000         193.000
  21558884.016   -19007145.76649 -14790086.21247  21558883.925    21558891.890
       231.000         191.000
  23717725.276    -5952441.48049  -4615810.41845  23717725.240    23717738.624
       213.000         141.000
  24465525.363    16954018.55049  13232993.22844  24465526.678    24465538.616
       202.000         128.000
  22888577.201    -7299989.87249  -5661736.44845  22888577.547    22888588.959
       214.000         156.000
  22327291.334   -11597291.57849  -9011030.07746  22327290.788    22327302.768
       221.000         164.000
  20260365.411   -20309032.53949 -15445803.20647  20260365.691    20260371.380
       235.000         203.000
  22702202.316   -13057353.90249  -9358320.83345  22702201.493    22702212.668
       218.000         159.000
 01  9 24 23 11 30.0000000  0  8G 1G27G28G22G 3G31G13G 8
  21160195.033    -3292189.96849  -2548172.82847  21160194.792    21160204.077
       235.000         193.000
  21551446.215   -19046231.17049 -14820542.32847  21551445.984    21551454.299
       232.000         191.000
  23699220.922    -6049681.78249  -4691581.70045  23699219.022    23699234.072
       211.000         141.000
  24486736.994    17065485.99149  13319850.84244  24486737.894    24486752.104
       204.000         125.000
  22888847.181    -7298571.54449  -5660631.20745  22888846.731    22888858.500
       216.000         157.000
  22315106.169   -11661324.37949  -9060925.62246  22315104.764    22315118.215
       219.000         164.000
  20258025.153   -20321330.39149 -15455385.93747  20258025.451    20258031.224
       235.000         203.000
  22689188.438   -13125740.82649  -9411609.16345  22689187.742    22689199.932
       219.000         159.000
 01  9 24 23 12  0.0000000  0  7G 1G27G28G 3G31G13G 8
  21170389.276    -3238619.23449  -2506429.44347  21170389.025    21170398.556
       234.000         193.000
  21544032.346   -19085191.44249 -14850900.92847  21544032.327    21544040.183
       232.000         191.000
  23680755.768    -6146715.03549  -4767191.63545  23680756.184    23680769.857
       212.000         141.000
  22889221.877    -7296602.77349  -5659097.03445  22889221.771    22889234.795
       212.000         156.000
  22302999.877   -11724942.78849  -9110498.24646  22302999.235    22303010.483
       220.000         166.000
  20255771.767   -20333171.92249 -15464613.08847  20255772.031    20255778.045
       235.000         203.000
  22676197.680   -13194007.44149  -9464803.77945  22676197.435    22676208.024
       217.000         159.000
 01  9 24 23 12 30.0000000  0  7G 1G27G28G 3G31G13G 8
  21180658.922    -3184652.07349  -2464377.15947  21180659.075    21180667.940
       233.000         192.000
  21536640.347   -19124036.26549 -14881169.56547  21536640.224    21536648.527
       232.000         192.000
  23662328.448    -6243549.56049  -4842646.71345  23662326.562    23662341.129
       208.000         142.000
  22889699.596    -7294092.75049  -5657141.16145  22889700.570    22889710.750
       215.000         156.000
  22290971.045   -11788153.86749  -9159753.48046  22290970.692    22290982.479
       223.000         167.000
  20253603.574   -20344565.74149 -15473491.37847  20253604.142    20253609.725
       235.000         203.000
  22663227.985   -13262163.31749  -9517912.10445  22663226.795    22663238.105
       218.000         159.000
 01  9 24 23 13  0.0000000  0  7G 1G27G28G 3G31G13G 8
  21191004.010    -3130288.40249  -2422015.92247  21191003.863    21191013.233
       234.000         192.000
  21529270.507   -19162764.98949 -14911347.74847  21529270.456    21529278.802
       233.000         192.000
  23643939.505    -6340183.08049  -4917945.18245  23643937.922    23643952.588
       211.000         142.000
  22890280.551    -7291040.44749  -5654762.69345  22890279.919    22890291.925
       213.000         155.000
  22279020.436   -11850954.13749  -9208688.60546  22279020.455    22279030.892
       223.000         167.000
  20251521.041   -20355509.54849 -15482019.00747  20251521.453    20251527.078
       236.000         203.000
  22650279.451   -13330208.00449  -9570933.79545  22650278.818    22650290.112
       217.000         160.000
 01  9 24 23 13 30.0000000  0  7G 1G27G28G 3G31G13G 8
  21201424.896    -3075526.38149  -2379344.28447  21201424.799    21201434.248
       233.000         191.000
  21521923.117   -19201375.44149 -14941433.76447  21521922.873    21521930.608
       232.000         192.000
  23625589.374    -6436611.75649  -4993084.04445  23625588.975    23625602.551
       212.000         143.000
  22890964.941    -7287443.09549  -5651959.53345  22890965.724    22890976.393
       214.000         155.000
  22267148.967   -11913338.35449  -9257299.52046  22267148.884    22267159.184
       221.000         167.000
  20249524.735   -20366000.23949 -15490193.55847  20249525.195    20249530.832
       236.000         204.000
  22637352.441   -13398139.24949  -9623867.10245  22637351.857    22637362.793
       219.000         160.000
 01  9 24 23 14  0.0000000  0  7G 1G27G28G 3G31G13G 8
  21211921.491    -3020366.65949  -2336362.74547  21211921.642    21211930.795
       234.000         192.000
  21514598.168   -19239867.91649 -14971427.84747  21514598.314    21514606.208
       233.000         192.000
  23607278.791    -6532834.24449  -5068062.20445  23607277.172    23607292.144
       209.000         144.000
  22891753.283    -7283300.55349  -5648731.54345  22891753.519    22891764.940
       213.000         155.000
  22255357.114   -11975304.27449  -9305584.48646  22255356.727    22255368.069
       221.000         167.000
  20247614.875   -20376036.65349 -15498014.12247  20247615.098    20247620.777
       235.000         204.000
  22624446.873   -13465957.06149  -9676711.97545  22624446.302    22624456.987
       218.000         161.000
 01  9 24 23 14 30.0000000  0  7G 1G27G28G 3G31G13G 8
  21222493.764    -2964809.19649  -2293071.28647  21222493.793    21222503.450
       233.000         191.000
  21507295.888   -19278241.72149 -15001329.45247  21507295.639    21507303.785
       232.000         192.000
  23589007.417    -6628848.52849  -5142878.15145  23589007.310    23589021.062
       212.000         144.000
  22892645.594    -7278611.94549  -5645078.04145  22892646.061    22892657.252
       215.000         156.000
  22243645.574   -12036848.16349  -9353540.61346  22243645.425    22243655.399
       223.000         168.000
  20245791.771   -20385617.11849 -15505479.40447  20245792.120    20245797.854
       235.000         204.000
  22611563.020   -13533660.89449  -9729468.04445  22611562.781    22611574.730
       217.000         161.000
 01  9 24 23 15  0.0000000  0  7G 1G27G28G 3G31G13G 8
  21233141.549    -2908854.95249  -2249470.65047  21233141.462    21233150.381
       234.000         191.000
  21500016.017   -19316497.17449 -15031138.85247  21500015.869    21500023.831
       232.000         192.000
  23570776.066    -6724653.40549  -5217530.90745  23570773.723    23570789.998
       210.000         145.000
  22893641.839    -7273377.25149  -5640999.05745  22893641.732    22893653.379
       214.000         155.000
  22232014.933   -12097967.53749  -9401165.95846  22232014.706    22232025.453
       224.000         169.000
  20244055.620   -20394740.55949 -15512588.56647  20244056.142    20244061.555
       235.000         204.000
  22598700.908   -13601251.36449  -9782135.81645  22598699.226    22598711.412
       217.000         161.000
 01  9 24 23 15 30.0000000  0  7G 1G27G28G 3G31G13G 8
  21243864.676    -2852504.81449  -2205561.52747  21243864.828    21243874.069
       234.000         191.000
  21492758.750   -19354634.55549 -15060856.23647  21492758.493    21492766.403
       233.000         192.000
  23552584.698    -6820247.83749  -5292019.71645  23552584.775    23552598.321
       212.000         146.000
  22894742.045    -7267596.90149  -5636494.86545  22894741.700    22894752.786
       216.000         156.000
  22220465.395   -12158660.00149  -9448458.62846  22220465.652    22220476.730
       223.000         169.000
  20242406.560   -20403406.51749 -15519341.25547  20242406.773    20242412.628
       235.000         204.000
  22585860.358   -13668728.75549  -9834715.43345  22585858.995    22585870.652
       219.000         161.000
 01  9 24 23 16  0.0000000  0  7G 1G27G28G 3G31G13G 8
  21254663.342    -2795757.74449  -2161343.11947  21254663.533    21254673.128
       234.000         191.000
  21485524.133   -19392652.39049 -15090480.48247  21485524.051    21485532.337
       233.000         192.000
  23534434.106    -6915628.75949  -5366342.13645  23534432.761    23534448.426
       210.000         146.000
  22895946.106    -7261268.81049  -5631563.87045  22895944.348    22895958.002
       213.000         155.000
  22208997.951   -12218921.16949  -9495415.23046  22208997.391    22209008.544
       222.000         169.000
  20240845.088   -20411612.18049 -15525735.26047  20240845.304    20240851.101
       235.000         204.000
  22573041.655   -13736091.50649  -9887205.74845  22573040.349    22573051.534
       218.000         162.000
 01  9 24 23 16 30.0000000  0  7G 1G27G28G 3G31G13G 8
  21265537.601    -2738613.40249  -2116815.15847  21265537.485    21265546.845
       233.000         191.000
  21478312.520   -19430549.79649 -15120010.87547  21478312.004    21478319.961
       233.000         192.000
  23516324.399    -7010793.80449  -5440496.36045  23516322.868    23516336.778
       211.000         145.000
  22897254.573    -7254391.94349  -5626205.25145  22897254.111    22897264.780
       215.000         157.000
  22197613.227   -12278747.41849  -9542032.91746  22197611.933    22197623.602
       222.000         170.000
  20239371.595   -20419355.34549 -15531768.88647  20239371.884    20239377.508
       236.000         204.000
  22560244.662   -13803338.75449  -9939606.04745  22560244.128    22560255.519
       218.000         162.000
